<?xml version="1.0" encoding="UTF-8" standalone="no" ?>
<gpx xmlns="http://www.topografix.com/GPX/1/1" xmlns:xsi="http://www.w3.org/2001/XMLSchema-instance" xsi:schemaLocation="http://www.topografix.com/GPX/1/1 http://www.topografix.com/GPX/1/1/gpx.xsd" version="1.1" creator="VisuGPX - https://www.visugpx.com">
  <metadata>
    <name>24 avr. 2021 09:58:54</name>
    <desc><![CDATA[ballade sympathique, entre urbanisme et verdure.]]></desc>
  </metadata>
  <trk>
    <name><![CDATA[24 avr. 2021 09:58:54_1]]></name>
    <trkseg>
      <trkpt lat="48.77336" lon="2.28606">
        <ele>127.43</ele>
        <time>2021-04-24T08:01:59.000Z</time>
      </trkpt>
      <trkpt lat="48.77327" lon="2.28612">
        <ele>126.92</ele>
        <time>2021-04-24T08:02:11.000Z</time>
      </trkpt>
      <trkpt lat="48.77318" lon="2.28614">
        <ele>126.57</ele>
        <time>2021-04-24T08:02:19.000Z</time>
      </trkpt>
      <trkpt lat="48.77309" lon="2.28613">
        <ele>126.19</ele>
        <time>2021-04-24T08:02:28.000Z</time>
      </trkpt>
      <trkpt lat="48.77299" lon="2.28612">
        <ele>125.84</ele>
        <time>2021-04-24T08:02:36.000Z</time>
      </trkpt>
      <trkpt lat="48.77289" lon="2.28618">
        <ele>125.52</ele>
        <time>2021-04-24T08:02:44.000Z</time>
      </trkpt>
      <trkpt lat="48.77281" lon="2.28626">
        <ele>125.28</ele>
        <time>2021-04-24T08:02:50.000Z</time>
      </trkpt>
      <trkpt lat="48.77274" lon="2.28636">
        <ele>124.91</ele>
        <time>2021-04-24T08:02:58.000Z</time>
      </trkpt>
      <trkpt lat="48.7727" lon="2.2865">
        <ele>124.19</ele>
        <time>2021-04-24T08:03:13.000Z</time>
      </trkpt>
      <trkpt lat="48.77263" lon="2.28661">
        <ele>123.59</ele>
        <time>2021-04-24T08:03:26.000Z</time>
      </trkpt>
      <trkpt lat="48.77256" lon="2.28669">
        <ele>123.15</ele>
        <time>2021-04-24T08:03:37.000Z</time>
      </trkpt>
      <trkpt lat="48.7725" lon="2.2868">
        <ele>122.97</ele>
        <time>2021-04-24T08:03:42.000Z</time>
      </trkpt>
      <trkpt lat="48.77245" lon="2.28693">
        <ele>122.8</ele>
        <time>2021-04-24T08:03:47.000Z</time>
      </trkpt>
      <trkpt lat="48.77236" lon="2.28696">
        <ele>122.59</ele>
        <time>2021-04-24T08:03:53.000Z</time>
      </trkpt>
      <trkpt lat="48.77232" lon="2.28711">
        <ele>122.33</ele>
        <time>2021-04-24T08:04:01.000Z</time>
      </trkpt>
      <trkpt lat="48.77232" lon="2.28727">
        <ele>122.13</ele>
        <time>2021-04-24T08:04:08.000Z</time>
      </trkpt>
      <trkpt lat="48.77229" lon="2.28741">
        <ele>121.95</ele>
        <time>2021-04-24T08:04:14.000Z</time>
      </trkpt>
      <trkpt lat="48.77225" lon="2.28754">
        <ele>121.79</ele>
        <time>2021-04-24T08:04:20.000Z</time>
      </trkpt>
      <trkpt lat="48.77224" lon="2.28767">
        <ele>121.58</ele>
        <time>2021-04-24T08:04:28.000Z</time>
      </trkpt>
      <trkpt lat="48.77225" lon="2.28782">
        <ele>121.36</ele>
        <time>2021-04-24T08:04:37.000Z</time>
      </trkpt>
      <trkpt lat="48.77225" lon="2.28796">
        <ele>121.19</ele>
        <time>2021-04-24T08:04:45.000Z</time>
      </trkpt>
      <trkpt lat="48.77227" lon="2.28811">
        <ele>121.02</ele>
        <time>2021-04-24T08:04:54.000Z</time>
      </trkpt>
      <trkpt lat="48.77229" lon="2.28825">
        <ele>120.85</ele>
        <time>2021-04-24T08:05:04.000Z</time>
      </trkpt>
      <trkpt lat="48.77232" lon="2.28838">
        <ele>120.69</ele>
        <time>2021-04-24T08:05:13.000Z</time>
      </trkpt>
      <trkpt lat="48.77228" lon="2.28851">
        <ele>120.48</ele>
        <time>2021-04-24T08:05:22.000Z</time>
      </trkpt>
      <trkpt lat="48.77221" lon="2.2886">
        <ele>120.24</ele>
        <time>2021-04-24T08:05:30.000Z</time>
      </trkpt>
      <trkpt lat="48.77212" lon="2.28868">
        <ele>119.84</ele>
        <time>2021-04-24T08:05:40.000Z</time>
      </trkpt>
      <trkpt lat="48.77204" lon="2.28875">
        <ele>119.55</ele>
        <time>2021-04-24T08:05:47.000Z</time>
      </trkpt>
      <trkpt lat="48.77199" lon="2.28888">
        <ele>119.11</ele>
        <time>2021-04-24T08:05:58.000Z</time>
      </trkpt>
      <trkpt lat="48.77197" lon="2.28902">
        <ele>118.77</ele>
        <time>2021-04-24T08:06:07.000Z</time>
      </trkpt>
      <trkpt lat="48.77198" lon="2.28916">
        <ele>118.38</ele>
        <time>2021-04-24T08:06:17.000Z</time>
      </trkpt>
      <trkpt lat="48.77201" lon="2.28929">
        <ele>118.01</ele>
        <time>2021-04-24T08:06:26.000Z</time>
      </trkpt>
      <trkpt lat="48.77202" lon="2.28943">
        <ele>117.67</ele>
        <time>2021-04-24T08:06:34.000Z</time>
      </trkpt>
      <trkpt lat="48.77203" lon="2.28957">
        <ele>117.35</ele>
        <time>2021-04-24T08:06:41.000Z</time>
      </trkpt>
      <trkpt lat="48.77205" lon="2.28971">
        <ele>116.97</ele>
        <time>2021-04-24T08:06:49.000Z</time>
      </trkpt>
      <trkpt lat="48.77207" lon="2.28984">
        <ele>116.62</ele>
        <time>2021-04-24T08:06:56.000Z</time>
      </trkpt>
      <trkpt lat="48.7721" lon="2.28999">
        <ele>116.22</ele>
        <time>2021-04-24T08:07:04.000Z</time>
      </trkpt>
      <trkpt lat="48.77214" lon="2.29012">
        <ele>115.9</ele>
        <time>2021-04-24T08:07:11.000Z</time>
      </trkpt>
      <trkpt lat="48.7722" lon="2.29024">
        <ele>115.59</ele>
        <time>2021-04-24T08:07:18.000Z</time>
      </trkpt>
      <trkpt lat="48.77224" lon="2.29037">
        <ele>115.28</ele>
        <time>2021-04-24T08:07:26.000Z</time>
      </trkpt>
      <trkpt lat="48.77228" lon="2.29049">
        <ele>115</ele>
        <time>2021-04-24T08:07:34.000Z</time>
      </trkpt>
      <trkpt lat="48.77234" lon="2.29062">
        <ele>114.72</ele>
        <time>2021-04-24T08:07:43.000Z</time>
      </trkpt>
      <trkpt lat="48.7724" lon="2.29072">
        <ele>114.58</ele>
        <time>2021-04-24T08:07:48.000Z</time>
      </trkpt>
      <trkpt lat="48.77246" lon="2.29084">
        <ele>114.43</ele>
        <time>2021-04-24T08:07:55.000Z</time>
      </trkpt>
      <trkpt lat="48.7725" lon="2.29098">
        <ele>114.2</ele>
        <time>2021-04-24T08:08:07.000Z</time>
      </trkpt>
      <trkpt lat="48.77251" lon="2.29113">
        <ele>114.03</ele>
        <time>2021-04-24T08:08:17.000Z</time>
      </trkpt>
      <trkpt lat="48.77252" lon="2.29128">
        <ele>113.88</ele>
        <time>2021-04-24T08:08:25.000Z</time>
      </trkpt>
      <trkpt lat="48.7725" lon="2.29142">
        <ele>113.67</ele>
        <time>2021-04-24T08:08:34.000Z</time>
      </trkpt>
      <trkpt lat="48.77254" lon="2.29154">
        <ele>113.46</ele>
        <time>2021-04-24T08:08:43.000Z</time>
      </trkpt>
      <trkpt lat="48.77259" lon="2.29167">
        <ele>113.29</ele>
        <time>2021-04-24T08:08:50.000Z</time>
      </trkpt>
      <trkpt lat="48.77263" lon="2.2918">
        <ele>113.14</ele>
        <time>2021-04-24T08:08:57.000Z</time>
      </trkpt>
      <trkpt lat="48.77268" lon="2.29192">
        <ele>112.96</ele>
        <time>2021-04-24T08:09:06.000Z</time>
      </trkpt>
      <trkpt lat="48.7727" lon="2.29208">
        <ele>112.8</ele>
        <time>2021-04-24T08:09:14.000Z</time>
      </trkpt>
      <trkpt lat="48.77266" lon="2.29225">
        <ele>112.7</ele>
        <time>2021-04-24T08:09:19.000Z</time>
      </trkpt>
      <trkpt lat="48.77263" lon="2.2924">
        <ele>112.51</ele>
        <time>2021-04-24T08:09:27.000Z</time>
      </trkpt>
      <trkpt lat="48.77261" lon="2.29253">
        <ele>112.35</ele>
        <time>2021-04-24T08:09:34.000Z</time>
      </trkpt>
      <trkpt lat="48.77261" lon="2.29268">
        <ele>112.18</ele>
        <time>2021-04-24T08:09:42.000Z</time>
      </trkpt>
      <trkpt lat="48.7726" lon="2.29284">
        <ele>112.01</ele>
        <time>2021-04-24T08:09:50.000Z</time>
      </trkpt>
      <trkpt lat="48.77261" lon="2.29297">
        <ele>111.45</ele>
        <time>2021-04-24T08:10:32.000Z</time>
      </trkpt>
      <trkpt lat="48.77259" lon="2.29311">
        <ele>111.22</ele>
        <time>2021-04-24T08:10:49.000Z</time>
      </trkpt>
      <trkpt lat="48.77254" lon="2.29324">
        <ele>111.06</ele>
        <time>2021-04-24T08:11:06.000Z</time>
      </trkpt>
      <trkpt lat="48.77244" lon="2.29333">
        <ele>110.87</ele>
        <time>2021-04-24T08:11:20.000Z</time>
      </trkpt>
      <trkpt lat="48.77234" lon="2.29343">
        <ele>110.8</ele>
        <time>2021-04-24T08:11:23.000Z</time>
      </trkpt>
      <trkpt lat="48.77226" lon="2.29353">
        <ele>110.74</ele>
        <time>2021-04-24T08:11:26.000Z</time>
      </trkpt>
      <trkpt lat="48.77218" lon="2.29363">
        <ele>110.48</ele>
        <time>2021-04-24T08:11:37.000Z</time>
      </trkpt>
      <trkpt lat="48.7721" lon="2.29371">
        <ele>110.25</ele>
        <time>2021-04-24T08:11:47.000Z</time>
      </trkpt>
      <trkpt lat="48.77201" lon="2.29376">
        <ele>109.97</ele>
        <time>2021-04-24T08:12:00.000Z</time>
      </trkpt>
      <trkpt lat="48.77192" lon="2.2938">
        <ele>109.85</ele>
        <time>2021-04-24T08:12:06.000Z</time>
      </trkpt>
      <trkpt lat="48.77183" lon="2.29383">
        <ele>109.66</ele>
        <time>2021-04-24T08:12:15.000Z</time>
      </trkpt>
      <trkpt lat="48.77174" lon="2.29387">
        <ele>109.49</ele>
        <time>2021-04-24T08:12:23.000Z</time>
      </trkpt>
      <trkpt lat="48.77164" lon="2.29385">
        <ele>109.32</ele>
        <time>2021-04-24T08:12:31.000Z</time>
      </trkpt>
      <trkpt lat="48.77155" lon="2.29389">
        <ele>109.11</ele>
        <time>2021-04-24T08:12:41.000Z</time>
      </trkpt>
      <trkpt lat="48.77147" lon="2.29398">
        <ele>109.01</ele>
        <time>2021-04-24T08:12:46.000Z</time>
      </trkpt>
      <trkpt lat="48.77138" lon="2.29402">
        <ele>108.82</ele>
        <time>2021-04-24T08:12:55.000Z</time>
      </trkpt>
      <trkpt lat="48.77128" lon="2.29402">
        <ele>108.69</ele>
        <time>2021-04-24T08:13:02.000Z</time>
      </trkpt>
      <trkpt lat="48.7712" lon="2.29411">
        <ele>108.54</ele>
        <time>2021-04-24T08:13:09.000Z</time>
      </trkpt>
      <trkpt lat="48.77111" lon="2.29418">
        <ele>108.38</ele>
        <time>2021-04-24T08:13:17.000Z</time>
      </trkpt>
      <trkpt lat="48.77101" lon="2.2942">
        <ele>108.23</ele>
        <time>2021-04-24T08:13:24.000Z</time>
      </trkpt>
      <trkpt lat="48.77091" lon="2.29421">
        <ele>108.12</ele>
        <time>2021-04-24T08:13:29.000Z</time>
      </trkpt>
      <trkpt lat="48.77082" lon="2.29422">
        <ele>107.98</ele>
        <time>2021-04-24T08:13:36.000Z</time>
      </trkpt>
      <trkpt lat="48.77073" lon="2.29432">
        <ele>107.81</ele>
        <time>2021-04-24T08:13:45.000Z</time>
      </trkpt>
      <trkpt lat="48.77068" lon="2.29444">
        <ele>107.72</ele>
        <time>2021-04-24T08:13:50.000Z</time>
      </trkpt>
      <trkpt lat="48.77063" lon="2.29456">
        <ele>107.58</ele>
        <time>2021-04-24T08:13:57.000Z</time>
      </trkpt>
      <trkpt lat="48.77055" lon="2.29465">
        <ele>107.47</ele>
        <time>2021-04-24T08:14:03.000Z</time>
      </trkpt>
      <trkpt lat="48.77047" lon="2.29474">
        <ele>107.31</ele>
        <time>2021-04-24T08:14:13.000Z</time>
      </trkpt>
      <trkpt lat="48.77038" lon="2.29478">
        <ele>107.17</ele>
        <time>2021-04-24T08:14:20.000Z</time>
      </trkpt>
      <trkpt lat="48.77029" lon="2.29482">
        <ele>107.03</ele>
        <time>2021-04-24T08:14:27.000Z</time>
      </trkpt>
      <trkpt lat="48.77021" lon="2.2949">
        <ele>106.9</ele>
        <time>2021-04-24T08:14:33.000Z</time>
      </trkpt>
      <trkpt lat="48.77013" lon="2.29497">
        <ele>106.74</ele>
        <time>2021-04-24T08:14:39.000Z</time>
      </trkpt>
      <trkpt lat="48.77007" lon="2.29508">
        <ele>106.57</ele>
        <time>2021-04-24T08:14:46.000Z</time>
      </trkpt>
      <trkpt lat="48.77002" lon="2.29521">
        <ele>106.39</ele>
        <time>2021-04-24T08:14:54.000Z</time>
      </trkpt>
      <trkpt lat="48.76999" lon="2.29535">
        <ele>106.24</ele>
        <time>2021-04-24T08:15:02.000Z</time>
      </trkpt>
      <trkpt lat="48.76995" lon="2.29548">
        <ele>106.09</ele>
        <time>2021-04-24T08:15:10.000Z</time>
      </trkpt>
      <trkpt lat="48.7699" lon="2.29562">
        <ele>105.91</ele>
        <time>2021-04-24T08:15:19.000Z</time>
      </trkpt>
      <trkpt lat="48.76984" lon="2.29572">
        <ele>105.72</ele>
        <time>2021-04-24T08:15:27.000Z</time>
      </trkpt>
      <trkpt lat="48.76978" lon="2.29584">
        <ele>105.52</ele>
        <time>2021-04-24T08:15:35.000Z</time>
      </trkpt>
      <trkpt lat="48.76975" lon="2.29597">
        <ele>105.29</ele>
        <time>2021-04-24T08:15:45.000Z</time>
      </trkpt>
      <trkpt lat="48.76973" lon="2.29611">
        <ele>105.08</ele>
        <time>2021-04-24T08:15:55.000Z</time>
      </trkpt>
      <trkpt lat="48.76967" lon="2.29599">
        <ele>104.62</ele>
        <time>2021-04-24T08:16:24.000Z</time>
      </trkpt>
      <trkpt lat="48.76957" lon="2.296">
        <ele>104.31</ele>
        <time>2021-04-24T08:16:42.000Z</time>
      </trkpt>
      <trkpt lat="48.76965" lon="2.29593">
        <ele>103.73</ele>
        <time>2021-04-24T08:17:28.000Z</time>
      </trkpt>
      <trkpt lat="48.76965" lon="2.29607">
        <ele>103.01</ele>
        <time>2021-04-24T08:19:07.000Z</time>
      </trkpt>
      <trkpt lat="48.76962" lon="2.29621">
        <ele>102.75</ele>
        <time>2021-04-24T08:19:14.000Z</time>
      </trkpt>
      <trkpt lat="48.76959" lon="2.29635">
        <ele>102.49</ele>
        <time>2021-04-24T08:19:22.000Z</time>
      </trkpt>
      <trkpt lat="48.76956" lon="2.29647">
        <ele>102.21</ele>
        <time>2021-04-24T08:19:32.000Z</time>
      </trkpt>
      <trkpt lat="48.7695" lon="2.29659">
        <ele>101.99</ele>
        <time>2021-04-24T08:19:40.000Z</time>
      </trkpt>
      <trkpt lat="48.76944" lon="2.29671">
        <ele>101.78</ele>
        <time>2021-04-24T08:19:48.000Z</time>
      </trkpt>
      <trkpt lat="48.76938" lon="2.29682">
        <ele>101.55</ele>
        <time>2021-04-24T08:19:57.000Z</time>
      </trkpt>
      <trkpt lat="48.76932" lon="2.29692">
        <ele>101.32</ele>
        <time>2021-04-24T08:20:06.000Z</time>
      </trkpt>
      <trkpt lat="48.76926" lon="2.29703">
        <ele>101.12</ele>
        <time>2021-04-24T08:20:14.000Z</time>
      </trkpt>
      <trkpt lat="48.76922" lon="2.29716">
        <ele>100.92</ele>
        <time>2021-04-24T08:20:23.000Z</time>
      </trkpt>
      <trkpt lat="48.76916" lon="2.29728">
        <ele>100.73</ele>
        <time>2021-04-24T08:20:32.000Z</time>
      </trkpt>
      <trkpt lat="48.7691" lon="2.29739">
        <ele>100.57</ele>
        <time>2021-04-24T08:20:40.000Z</time>
      </trkpt>
      <trkpt lat="48.76905" lon="2.2975">
        <ele>100.39</ele>
        <time>2021-04-24T08:20:49.000Z</time>
      </trkpt>
      <trkpt lat="48.76899" lon="2.29761">
        <ele>100.25</ele>
        <time>2021-04-24T08:20:56.000Z</time>
      </trkpt>
      <trkpt lat="48.76894" lon="2.29775">
        <ele>100.07</ele>
        <time>2021-04-24T08:21:05.000Z</time>
      </trkpt>
      <trkpt lat="48.7689" lon="2.29787">
        <ele>99.87</ele>
        <time>2021-04-24T08:21:15.999Z</time>
      </trkpt>
      <trkpt lat="48.76885" lon="2.29801">
        <ele>99.72</ele>
        <time>2021-04-24T08:21:24.999Z</time>
      </trkpt>
      <trkpt lat="48.76879" lon="2.29812">
        <ele>99.57</ele>
        <time>2021-04-24T08:21:33.999Z</time>
      </trkpt>
      <trkpt lat="48.7687" lon="2.29818">
        <ele>99.39</ele>
        <time>2021-04-24T08:21:43.999Z</time>
      </trkpt>
      <trkpt lat="48.7686" lon="2.29821">
        <ele>99.2</ele>
        <time>2021-04-24T08:21:53.999Z</time>
      </trkpt>
      <trkpt lat="48.76851" lon="2.29824">
        <ele>99.07</ele>
        <time>2021-04-24T08:22:00.999Z</time>
      </trkpt>
      <trkpt lat="48.76843" lon="2.29829">
        <ele>98.9</ele>
        <time>2021-04-24T08:22:09.999Z</time>
      </trkpt>
      <trkpt lat="48.76833" lon="2.29832">
        <ele>98.7</ele>
        <time>2021-04-24T08:22:21.999Z</time>
      </trkpt>
      <trkpt lat="48.76824" lon="2.29836">
        <ele>98.59</ele>
        <time>2021-04-24T08:22:28.999Z</time>
      </trkpt>
      <trkpt lat="48.76814" lon="2.29837">
        <ele>98.42</ele>
        <time>2021-04-24T08:22:37.999Z</time>
      </trkpt>
      <trkpt lat="48.76804" lon="2.29834">
        <ele>98.26</ele>
        <time>2021-04-24T08:22:45.999Z</time>
      </trkpt>
      <trkpt lat="48.76794" lon="2.29831">
        <ele>98.09</ele>
        <time>2021-04-24T08:22:53.999Z</time>
      </trkpt>
      <trkpt lat="48.76784" lon="2.29829">
        <ele>97.93</ele>
        <time>2021-04-24T08:23:00.999Z</time>
      </trkpt>
      <trkpt lat="48.76776" lon="2.29833">
        <ele>97.73</ele>
        <time>2021-04-24T08:23:08.999Z</time>
      </trkpt>
      <trkpt lat="48.76767" lon="2.29842">
        <ele>97.51</ele>
        <time>2021-04-24T08:23:16.999Z</time>
      </trkpt>
      <trkpt lat="48.7676" lon="2.2985">
        <ele>97.33</ele>
        <time>2021-04-24T08:23:22.999Z</time>
      </trkpt>
      <trkpt lat="48.76755" lon="2.29863">
        <ele>97.07</ele>
        <time>2021-04-24T08:23:31.999Z</time>
      </trkpt>
      <trkpt lat="48.76749" lon="2.29876">
        <ele>96.82</ele>
        <time>2021-04-24T08:23:40.999Z</time>
      </trkpt>
      <trkpt lat="48.76744" lon="2.29889">
        <ele>96.64</ele>
        <time>2021-04-24T08:23:47.999Z</time>
      </trkpt>
      <trkpt lat="48.76741" lon="2.29903">
        <ele>96.43</ele>
        <time>2021-04-24T08:23:56.999Z</time>
      </trkpt>
      <trkpt lat="48.76734" lon="2.29916">
        <ele>96.25</ele>
        <time>2021-04-24T08:24:05.999Z</time>
      </trkpt>
      <trkpt lat="48.76724" lon="2.29919">
        <ele>96.1</ele>
        <time>2021-04-24T08:24:12.999Z</time>
      </trkpt>
      <trkpt lat="48.76715" lon="2.29922">
        <ele>95.88</ele>
        <time>2021-04-24T08:24:22.999Z</time>
      </trkpt>
      <trkpt lat="48.76705" lon="2.29923">
        <ele>95.76</ele>
        <time>2021-04-24T08:24:28.999Z</time>
      </trkpt>
      <trkpt lat="48.76695" lon="2.29924">
        <ele>95.63</ele>
        <time>2021-04-24T08:24:35.999Z</time>
      </trkpt>
      <trkpt lat="48.76686" lon="2.29925">
        <ele>95.53</ele>
        <time>2021-04-24T08:24:40.999Z</time>
      </trkpt>
      <trkpt lat="48.76677" lon="2.29926">
        <ele>95.38</ele>
        <time>2021-04-24T08:24:47.999Z</time>
      </trkpt>
      <trkpt lat="48.76667" lon="2.29927">
        <ele>95.25</ele>
        <time>2021-04-24T08:24:53.999Z</time>
      </trkpt>
      <trkpt lat="48.76658" lon="2.29929">
        <ele>95.12</ele>
        <time>2021-04-24T08:24:59.999Z</time>
      </trkpt>
      <trkpt lat="48.76649" lon="2.29934">
        <ele>94.9</ele>
        <time>2021-04-24T08:25:08.999Z</time>
      </trkpt>
      <trkpt lat="48.7664" lon="2.2994">
        <ele>94.69</ele>
        <time>2021-04-24T08:25:17.999Z</time>
      </trkpt>
      <trkpt lat="48.76631" lon="2.29944">
        <ele>94.5</ele>
        <time>2021-04-24T08:25:27.999Z</time>
      </trkpt>
      <trkpt lat="48.76621" lon="2.29948">
        <ele>94.37</ele>
        <time>2021-04-24T08:25:34.999Z</time>
      </trkpt>
      <trkpt lat="48.76611" lon="2.29951">
        <ele>94.2</ele>
        <time>2021-04-24T08:25:43.999Z</time>
      </trkpt>
      <trkpt lat="48.76602" lon="2.29955">
        <ele>94.05</ele>
        <time>2021-04-24T08:25:51.999Z</time>
      </trkpt>
      <trkpt lat="48.76594" lon="2.29962">
        <ele>93.92</ele>
        <time>2021-04-24T08:25:59.999Z</time>
      </trkpt>
      <trkpt lat="48.76585" lon="2.29966">
        <ele>93.8</ele>
        <time>2021-04-24T08:26:07.999Z</time>
      </trkpt>
      <trkpt lat="48.76575" lon="2.29968">
        <ele>93.65</ele>
        <time>2021-04-24T08:26:17.999Z</time>
      </trkpt>
      <trkpt lat="48.76565" lon="2.29973">
        <ele>93.45</ele>
        <time>2021-04-24T08:26:31.999Z</time>
      </trkpt>
      <trkpt lat="48.76555" lon="2.29976">
        <ele>93.34</ele>
        <time>2021-04-24T08:26:39.999Z</time>
      </trkpt>
      <trkpt lat="48.76545" lon="2.29978">
        <ele>93.23</ele>
        <time>2021-04-24T08:26:46.999Z</time>
      </trkpt>
      <trkpt lat="48.76536" lon="2.29981">
        <ele>93.11</ele>
        <time>2021-04-24T08:26:54.999Z</time>
      </trkpt>
      <trkpt lat="48.76527" lon="2.29979">
        <ele>92.98</ele>
        <time>2021-04-24T08:27:02.999Z</time>
      </trkpt>
      <trkpt lat="48.76518" lon="2.29971">
        <ele>92.88</ele>
        <time>2021-04-24T08:27:08.999Z</time>
      </trkpt>
      <trkpt lat="48.76511" lon="2.29961">
        <ele>92.74</ele>
        <time>2021-04-24T08:27:15.999Z</time>
      </trkpt>
      <trkpt lat="48.76504" lon="2.2995">
        <ele>92.6</ele>
        <time>2021-04-24T08:27:22.999Z</time>
      </trkpt>
      <trkpt lat="48.76498" lon="2.29939">
        <ele>92.47</ele>
        <time>2021-04-24T08:27:29.999Z</time>
      </trkpt>
      <trkpt lat="48.76486" lon="2.29944">
        <ele>92.27</ele>
        <time>2021-04-24T08:27:40.999Z</time>
      </trkpt>
      <trkpt lat="48.76478" lon="2.29951">
        <ele>92.21</ele>
        <time>2021-04-24T08:27:44.999Z</time>
      </trkpt>
      <trkpt lat="48.7647" lon="2.29957">
        <ele>92.1</ele>
        <time>2021-04-24T08:27:51.999Z</time>
      </trkpt>
      <trkpt lat="48.7646" lon="2.29959">
        <ele>91.94</ele>
        <time>2021-04-24T08:28:02.999Z</time>
      </trkpt>
      <trkpt lat="48.76451" lon="2.29959">
        <ele>91.85</ele>
        <time>2021-04-24T08:28:08.999Z</time>
      </trkpt>
      <trkpt lat="48.76442" lon="2.29961">
        <ele>91.74</ele>
        <time>2021-04-24T08:28:15.999Z</time>
      </trkpt>
      <trkpt lat="48.76432" lon="2.29961">
        <ele>91.65</ele>
        <time>2021-04-24T08:28:21.999Z</time>
      </trkpt>
      <trkpt lat="48.76423" lon="2.29958">
        <ele>91.55</ele>
        <time>2021-04-24T08:28:28.999Z</time>
      </trkpt>
      <trkpt lat="48.76415" lon="2.29951">
        <ele>91.4</ele>
        <time>2021-04-24T08:28:37.999Z</time>
      </trkpt>
      <trkpt lat="48.76405" lon="2.29952">
        <ele>91.23</ele>
        <time>2021-04-24T08:28:47.999Z</time>
      </trkpt>
      <trkpt lat="48.76396" lon="2.29956">
        <ele>91.11</ele>
        <time>2021-04-24T08:28:54.999Z</time>
      </trkpt>
      <trkpt lat="48.76387" lon="2.29961">
        <ele>91</ele>
        <time>2021-04-24T08:29:01.999Z</time>
      </trkpt>
      <trkpt lat="48.76378" lon="2.29967">
        <ele>90.88</ele>
        <time>2021-04-24T08:29:08.999Z</time>
      </trkpt>
      <trkpt lat="48.76368" lon="2.2997">
        <ele>90.74</ele>
        <time>2021-04-24T08:29:15.999Z</time>
      </trkpt>
      <trkpt lat="48.76359" lon="2.29969">
        <ele>90.41</ele>
        <time>2021-04-24T08:29:52.999Z</time>
      </trkpt>
      <trkpt lat="48.7635" lon="2.29968">
        <ele>89.86</ele>
        <time>2021-04-24T08:30:12.999Z</time>
      </trkpt>
      <trkpt lat="48.76342" lon="2.29975">
        <ele>88.4</ele>
        <time>2021-04-24T08:30:30.999Z</time>
      </trkpt>
      <trkpt lat="48.76333" lon="2.29982">
        <ele>87.62</ele>
        <time>2021-04-24T08:30:40.999Z</time>
      </trkpt>
      <trkpt lat="48.76325" lon="2.29987">
        <ele>87.06</ele>
        <time>2021-04-24T08:30:48.999Z</time>
      </trkpt>
      <trkpt lat="48.76316" lon="2.29992">
        <ele>86.13</ele>
        <time>2021-04-24T08:31:01.999Z</time>
      </trkpt>
      <trkpt lat="48.76307" lon="2.29995">
        <ele>85.45</ele>
        <time>2021-04-24T08:31:11.999Z</time>
      </trkpt>
      <trkpt lat="48.76297" lon="2.3">
        <ele>84.92</ele>
        <time>2021-04-24T08:31:22.999Z</time>
      </trkpt>
      <trkpt lat="48.76288" lon="2.30006">
        <ele>84.27</ele>
        <time>2021-04-24T08:31:32.999Z</time>
      </trkpt>
      <trkpt lat="48.76281" lon="2.30016">
        <ele>83.68</ele>
        <time>2021-04-24T08:31:42.999Z</time>
      </trkpt>
      <trkpt lat="48.76272" lon="2.30021">
        <ele>83.05</ele>
        <time>2021-04-24T08:31:54.999Z</time>
      </trkpt>
      <trkpt lat="48.76263" lon="2.30023">
        <ele>82.34</ele>
        <time>2021-04-24T08:32:09.999Z</time>
      </trkpt>
      <trkpt lat="48.76261" lon="2.30036">
        <ele>81.76</ele>
        <time>2021-04-24T08:32:20.999Z</time>
      </trkpt>
      <trkpt lat="48.76261" lon="2.30051">
        <ele>81.2</ele>
        <time>2021-04-24T08:32:31.999Z</time>
      </trkpt>
      <trkpt lat="48.76252" lon="2.30058">
        <ele>80.44</ele>
        <time>2021-04-24T08:32:47.999Z</time>
      </trkpt>
      <trkpt lat="48.76243" lon="2.30066">
        <ele>80.1</ele>
        <time>2021-04-24T08:32:55.999Z</time>
      </trkpt>
      <trkpt lat="48.76239" lon="2.30078">
        <ele>79.66</ele>
        <time>2021-04-24T08:33:04.999Z</time>
      </trkpt>
      <trkpt lat="48.7623" lon="2.30075">
        <ele>75.7</ele>
        <time>2021-04-24T08:34:52.999Z</time>
      </trkpt>
      <trkpt lat="48.76224" lon="2.30064">
        <ele>72.96</ele>
        <time>2021-04-24T08:35:38.999Z</time>
      </trkpt>
      <trkpt lat="48.76218" lon="2.30053">
        <ele>68.12</ele>
        <time>2021-04-24T08:37:31.999Z</time>
      </trkpt>
      <trkpt lat="48.76227" lon="2.30058">
        <ele>65.97</ele>
        <time>2021-04-24T08:38:01.999Z</time>
      </trkpt>
      <trkpt lat="48.76217" lon="2.30064">
        <ele>65.55</ele>
        <time>2021-04-24T08:38:04.999Z</time>
      </trkpt>
      <trkpt lat="48.76208" lon="2.30069">
        <ele>65.02</ele>
        <time>2021-04-24T08:38:08.999Z</time>
      </trkpt>
      <trkpt lat="48.76201" lon="2.30077">
        <ele>63.57</ele>
        <time>2021-04-24T08:38:21.999Z</time>
      </trkpt>
      <trkpt lat="48.76193" lon="2.30085">
        <ele>63.25</ele>
        <time>2021-04-24T08:38:34.999Z</time>
      </trkpt>
      <trkpt lat="48.76187" lon="2.30099">
        <ele>63.15</ele>
        <time>2021-04-24T08:38:48.999Z</time>
      </trkpt>
      <trkpt lat="48.76184" lon="2.30112">
        <ele>62.81</ele>
        <time>2021-04-24T08:38:52.999Z</time>
      </trkpt>
      <trkpt lat="48.7618" lon="2.30125">
        <ele>59.02</ele>
        <time>2021-04-24T08:39:22.999Z</time>
      </trkpt>
      <trkpt lat="48.76172" lon="2.30134">
        <ele>55.93</ele>
        <time>2021-04-24T08:39:50.999Z</time>
      </trkpt>
      <trkpt lat="48.76163" lon="2.30142">
        <ele>54.73</ele>
        <time>2021-04-24T08:39:58.999Z</time>
      </trkpt>
      <trkpt lat="48.76162" lon="2.30157">
        <ele>52.07</ele>
        <time>2021-04-24T08:40:20.999Z</time>
      </trkpt>
      <trkpt lat="48.76166" lon="2.30169">
        <ele>50.14</ele>
        <time>2021-04-24T08:40:44.999Z</time>
      </trkpt>
      <trkpt lat="48.7617" lon="2.30183">
        <ele>49.36</ele>
        <time>2021-04-24T08:40:54.999Z</time>
      </trkpt>
      <trkpt lat="48.76177" lon="2.3019">
        <ele>47.28</ele>
        <time>2021-04-24T08:41:05.999Z</time>
      </trkpt>
      <trkpt lat="48.76186" lon="2.30199">
        <ele>45.48</ele>
        <time>2021-04-24T08:41:14.999Z</time>
      </trkpt>
      <trkpt lat="48.76187" lon="2.30224">
        <ele>43.71</ele>
        <time>2021-04-24T08:41:24.000Z</time>
      </trkpt>
      <trkpt lat="48.76186" lon="2.30241">
        <ele>43.29</ele>
        <time>2021-04-24T08:41:26.000Z</time>
      </trkpt>
      <trkpt lat="48.76187" lon="2.30258">
        <ele>42.87</ele>
        <time>2021-04-24T08:41:28.000Z</time>
      </trkpt>
      <trkpt lat="48.76191" lon="2.30272">
        <ele>41.99</ele>
        <time>2021-04-24T08:41:34.000Z</time>
      </trkpt>
      <trkpt lat="48.76192" lon="2.30285">
        <ele>41.89</ele>
        <time>2021-04-24T08:41:39.000Z</time>
      </trkpt>
      <trkpt lat="48.76192" lon="2.30299">
        <ele>42.44</ele>
        <time>2021-04-24T08:41:46.000Z</time>
      </trkpt>
      <trkpt lat="48.76189" lon="2.30313">
        <ele>43.22</ele>
        <time>2021-04-24T08:41:53.000Z</time>
      </trkpt>
      <trkpt lat="48.76187" lon="2.30326">
        <ele>43.97</ele>
        <time>2021-04-24T08:42:32.000Z</time>
      </trkpt>
      <trkpt lat="48.76178" lon="2.3033">
        <ele>44.91</ele>
        <time>2021-04-24T08:44:00.000Z</time>
      </trkpt>
      <trkpt lat="48.76168" lon="2.30329">
        <ele>44.4</ele>
        <time>2021-04-24T08:44:09.000Z</time>
      </trkpt>
      <trkpt lat="48.7616" lon="2.30321">
        <ele>43.69</ele>
        <time>2021-04-24T08:44:15.000Z</time>
      </trkpt>
      <trkpt lat="48.76151" lon="2.30317">
        <ele>42.63</ele>
        <time>2021-04-24T08:44:22.000Z</time>
      </trkpt>
      <trkpt lat="48.76144" lon="2.30326">
        <ele>42.56</ele>
        <time>2021-04-24T08:44:27.000Z</time>
      </trkpt>
      <trkpt lat="48.76136" lon="2.30337">
        <ele>43.32</ele>
        <time>2021-04-24T08:44:33.000Z</time>
      </trkpt>
      <trkpt lat="48.76128" lon="2.30345">
        <ele>44.35</ele>
        <time>2021-04-24T08:44:51.000Z</time>
      </trkpt>
      <trkpt lat="48.7612" lon="2.30352">
        <ele>42.82</ele>
        <time>2021-04-24T08:45:04.000Z</time>
      </trkpt>
      <trkpt lat="48.76111" lon="2.30356">
        <ele>43.26</ele>
        <time>2021-04-24T08:45:24.000Z</time>
      </trkpt>
      <trkpt lat="48.76101" lon="2.30356">
        <ele>44.96</ele>
        <time>2021-04-24T08:45:33.000Z</time>
      </trkpt>
      <trkpt lat="48.76092" lon="2.30355">
        <ele>46.24</ele>
        <time>2021-04-24T08:45:39.000Z</time>
      </trkpt>
      <trkpt lat="48.76082" lon="2.30356">
        <ele>48.06</ele>
        <time>2021-04-24T08:45:48.000Z</time>
      </trkpt>
      <trkpt lat="48.76073" lon="2.30354">
        <ele>49.16</ele>
        <time>2021-04-24T08:45:54.000Z</time>
      </trkpt>
      <trkpt lat="48.76064" lon="2.30351">
        <ele>50.95</ele>
        <time>2021-04-24T08:46:04.000Z</time>
      </trkpt>
      <trkpt lat="48.76054" lon="2.30348">
        <ele>52.41</ele>
        <time>2021-04-24T08:46:14.000Z</time>
      </trkpt>
      <trkpt lat="48.76045" lon="2.30345">
        <ele>53.35</ele>
        <time>2021-04-24T08:46:22.000Z</time>
      </trkpt>
      <trkpt lat="48.76036" lon="2.30341">
        <ele>54.03</ele>
        <time>2021-04-24T08:46:30.000Z</time>
      </trkpt>
      <trkpt lat="48.76027" lon="2.30336">
        <ele>54.51</ele>
        <time>2021-04-24T08:46:37.000Z</time>
      </trkpt>
      <trkpt lat="48.76018" lon="2.30331">
        <ele>55.27</ele>
        <time>2021-04-24T08:46:48.000Z</time>
      </trkpt>
      <trkpt lat="48.76008" lon="2.30326">
        <ele>55.49</ele>
        <time>2021-04-24T08:46:54.000Z</time>
      </trkpt>
      <trkpt lat="48.75999" lon="2.30321">
        <ele>55.66</ele>
        <time>2021-04-24T08:47:00.000Z</time>
      </trkpt>
      <trkpt lat="48.7599" lon="2.30318">
        <ele>55.99</ele>
        <time>2021-04-24T08:47:08.000Z</time>
      </trkpt>
      <trkpt lat="48.75981" lon="2.30312">
        <ele>56.4</ele>
        <time>2021-04-24T08:47:19.000Z</time>
      </trkpt>
      <trkpt lat="48.75971" lon="2.30308">
        <ele>56.67</ele>
        <time>2021-04-24T08:47:25.000Z</time>
      </trkpt>
      <trkpt lat="48.75962" lon="2.30305">
        <ele>56.74</ele>
        <time>2021-04-24T08:47:31.000Z</time>
      </trkpt>
      <trkpt lat="48.75953" lon="2.30301">
        <ele>56.92</ele>
        <time>2021-04-24T08:47:39.000Z</time>
      </trkpt>
      <trkpt lat="48.75945" lon="2.30296">
        <ele>56.7</ele>
        <time>2021-04-24T08:47:52.000Z</time>
      </trkpt>
      <trkpt lat="48.75936" lon="2.30292">
        <ele>56.37</ele>
        <time>2021-04-24T08:47:59.000Z</time>
      </trkpt>
      <trkpt lat="48.75926" lon="2.30288">
        <ele>56.29</ele>
        <time>2021-04-24T08:48:06.000Z</time>
      </trkpt>
      <trkpt lat="48.75916" lon="2.30283">
        <ele>56.32</ele>
        <time>2021-04-24T08:48:11.000Z</time>
      </trkpt>
      <trkpt lat="48.75908" lon="2.30277">
        <ele>56.47</ele>
        <time>2021-04-24T08:48:17.000Z</time>
      </trkpt>
      <trkpt lat="48.75899" lon="2.30274">
        <ele>56.66</ele>
        <time>2021-04-24T08:48:27.000Z</time>
      </trkpt>
      <trkpt lat="48.7589" lon="2.30269">
        <ele>56.75</ele>
        <time>2021-04-24T08:48:34.000Z</time>
      </trkpt>
      <trkpt lat="48.75881" lon="2.30266">
        <ele>56.94</ele>
        <time>2021-04-24T08:48:40.000Z</time>
      </trkpt>
      <trkpt lat="48.75872" lon="2.3026">
        <ele>57.39</ele>
        <time>2021-04-24T08:48:51.000Z</time>
      </trkpt>
      <trkpt lat="48.75863" lon="2.30257">
        <ele>57.48</ele>
        <time>2021-04-24T08:49:00.000Z</time>
      </trkpt>
      <trkpt lat="48.75852" lon="2.30254">
        <ele>57.45</ele>
        <time>2021-04-24T08:49:11.000Z</time>
      </trkpt>
      <trkpt lat="48.75843" lon="2.3025">
        <ele>57.5</ele>
        <time>2021-04-24T08:49:16.000Z</time>
      </trkpt>
      <trkpt lat="48.75834" lon="2.30246">
        <ele>57.68</ele>
        <time>2021-04-24T08:49:25.000Z</time>
      </trkpt>
      <trkpt lat="48.75823" lon="2.30243">
        <ele>57.76</ele>
        <time>2021-04-24T08:49:33.000Z</time>
      </trkpt>
      <trkpt lat="48.75813" lon="2.3024">
        <ele>57.8</ele>
        <time>2021-04-24T08:49:41.000Z</time>
      </trkpt>
      <trkpt lat="48.75802" lon="2.3024">
        <ele>57.87</ele>
        <time>2021-04-24T08:49:46.000Z</time>
      </trkpt>
      <trkpt lat="48.75793" lon="2.30238">
        <ele>57.81</ele>
        <time>2021-04-24T08:49:55.000Z</time>
      </trkpt>
      <trkpt lat="48.75784" lon="2.30241">
        <ele>57.27</ele>
        <time>2021-04-24T08:50:04.000Z</time>
      </trkpt>
      <trkpt lat="48.75774" lon="2.30242">
        <ele>56.5</ele>
        <time>2021-04-24T08:50:13.000Z</time>
      </trkpt>
      <trkpt lat="48.75764" lon="2.30246">
        <ele>55.44</ele>
        <time>2021-04-24T08:50:27.000Z</time>
      </trkpt>
      <trkpt lat="48.75772" lon="2.30239">
        <ele>55.75</ele>
        <time>2021-04-24T08:50:43.000Z</time>
      </trkpt>
      <trkpt lat="48.75768" lon="2.30252">
        <ele>56.39</ele>
        <time>2021-04-24T08:51:17.000Z</time>
      </trkpt>
      <trkpt lat="48.75759" lon="2.30254">
        <ele>55.96</ele>
        <time>2021-04-24T08:51:27.000Z</time>
      </trkpt>
      <trkpt lat="48.7575" lon="2.30254">
        <ele>55.55</ele>
        <time>2021-04-24T08:51:34.000Z</time>
      </trkpt>
      <trkpt lat="48.75742" lon="2.30249">
        <ele>55.03</ele>
        <time>2021-04-24T08:51:43.000Z</time>
      </trkpt>
      <trkpt lat="48.75733" lon="2.30244">
        <ele>54.59</ele>
        <time>2021-04-24T08:51:51.000Z</time>
      </trkpt>
      <trkpt lat="48.75725" lon="2.30237">
        <ele>54.18</ele>
        <time>2021-04-24T08:51:58.000Z</time>
      </trkpt>
      <trkpt lat="48.75716" lon="2.30233">
        <ele>53.7</ele>
        <time>2021-04-24T08:52:07.000Z</time>
      </trkpt>
      <trkpt lat="48.75706" lon="2.30229">
        <ele>53.33</ele>
        <time>2021-04-24T08:52:13.000Z</time>
      </trkpt>
      <trkpt lat="48.75696" lon="2.30223">
        <ele>52.84</ele>
        <time>2021-04-24T08:52:20.000Z</time>
      </trkpt>
      <trkpt lat="48.75687" lon="2.30221">
        <ele>52.28</ele>
        <time>2021-04-24T08:52:28.000Z</time>
      </trkpt>
      <trkpt lat="48.75678" lon="2.30218">
        <ele>51.76</ele>
        <time>2021-04-24T08:52:39.000Z</time>
      </trkpt>
      <trkpt lat="48.75669" lon="2.30215">
        <ele>51.42</ele>
        <time>2021-04-24T08:52:44.000Z</time>
      </trkpt>
      <trkpt lat="48.7566" lon="2.30213">
        <ele>50.92</ele>
        <time>2021-04-24T08:52:51.000Z</time>
      </trkpt>
      <trkpt lat="48.7565" lon="2.30209">
        <ele>50.14</ele>
        <time>2021-04-24T08:52:59.000Z</time>
      </trkpt>
      <trkpt lat="48.75641" lon="2.30204">
        <ele>49.48</ele>
        <time>2021-04-24T08:53:05.000Z</time>
      </trkpt>
      <trkpt lat="48.75631" lon="2.30202">
        <ele>48.72</ele>
        <time>2021-04-24T08:53:12.000Z</time>
      </trkpt>
      <trkpt lat="48.75622" lon="2.30198">
        <ele>47.75</ele>
        <time>2021-04-24T08:53:22.000Z</time>
      </trkpt>
      <trkpt lat="48.75614" lon="2.30193">
        <ele>47.14</ele>
        <time>2021-04-24T08:53:30.000Z</time>
      </trkpt>
      <trkpt lat="48.75606" lon="2.30186">
        <ele>46.16</ele>
        <time>2021-04-24T08:53:40.000Z</time>
      </trkpt>
      <trkpt lat="48.75596" lon="2.30181">
        <ele>45.51</ele>
        <time>2021-04-24T08:53:49.000Z</time>
      </trkpt>
      <trkpt lat="48.75587" lon="2.30178">
        <ele>45.11</ele>
        <time>2021-04-24T08:53:56.000Z</time>
      </trkpt>
      <trkpt lat="48.75575" lon="2.30168">
        <ele>44.87</ele>
        <time>2021-04-24T08:54:08.000Z</time>
      </trkpt>
      <trkpt lat="48.75565" lon="2.30171">
        <ele>43.81</ele>
        <time>2021-04-24T08:54:15.000Z</time>
      </trkpt>
      <trkpt lat="48.75555" lon="2.30165">
        <ele>43.08</ele>
        <time>2021-04-24T08:54:20.000Z</time>
      </trkpt>
      <trkpt lat="48.75548" lon="2.30156">
        <ele>42.11</ele>
        <time>2021-04-24T08:54:27.000Z</time>
      </trkpt>
      <trkpt lat="48.75538" lon="2.30153">
        <ele>41.79</ele>
        <time>2021-04-24T08:54:36.000Z</time>
      </trkpt>
      <trkpt lat="48.75529" lon="2.3015">
        <ele>42.07</ele>
        <time>2021-04-24T08:54:45.000Z</time>
      </trkpt>
      <trkpt lat="48.7552" lon="2.30147">
        <ele>42.4</ele>
        <time>2021-04-24T08:54:54.000Z</time>
      </trkpt>
      <trkpt lat="48.75511" lon="2.30146">
        <ele>42.72</ele>
        <time>2021-04-24T08:55:01.000Z</time>
      </trkpt>
      <trkpt lat="48.75501" lon="2.30142">
        <ele>43.2</ele>
        <time>2021-04-24T08:55:10.000Z</time>
      </trkpt>
      <trkpt lat="48.75491" lon="2.30131">
        <ele>43.38</ele>
        <time>2021-04-24T08:55:17.000Z</time>
      </trkpt>
      <trkpt lat="48.75482" lon="2.30126">
        <ele>43.97</ele>
        <time>2021-04-24T08:55:27.000Z</time>
      </trkpt>
      <trkpt lat="48.75473" lon="2.30121">
        <ele>44.77</ele>
        <time>2021-04-24T08:55:36.000Z</time>
      </trkpt>
      <trkpt lat="48.75464" lon="2.30124">
        <ele>45.31</ele>
        <time>2021-04-24T08:55:44.000Z</time>
      </trkpt>
      <trkpt lat="48.75455" lon="2.30121">
        <ele>45.56</ele>
        <time>2021-04-24T08:55:55.000Z</time>
      </trkpt>
      <trkpt lat="48.75446" lon="2.30115">
        <ele>45.41</ele>
        <time>2021-04-24T08:56:03.000Z</time>
      </trkpt>
      <trkpt lat="48.75436" lon="2.30114">
        <ele>45.7</ele>
        <time>2021-04-24T08:56:33.000Z</time>
      </trkpt>
      <trkpt lat="48.75427" lon="2.30108">
        <ele>46</ele>
        <time>2021-04-24T08:56:38.000Z</time>
      </trkpt>
      <trkpt lat="48.75419" lon="2.30101">
        <ele>46.29</ele>
        <time>2021-04-24T08:56:44.000Z</time>
      </trkpt>
      <trkpt lat="48.7541" lon="2.30091">
        <ele>47.21</ele>
        <time>2021-04-24T08:56:53.000Z</time>
      </trkpt>
      <trkpt lat="48.75401" lon="2.30086">
        <ele>48.16</ele>
        <time>2021-04-24T08:57:00.000Z</time>
      </trkpt>
      <trkpt lat="48.75394" lon="2.30076">
        <ele>48.88</ele>
        <time>2021-04-24T08:57:09.000Z</time>
      </trkpt>
      <trkpt lat="48.75385" lon="2.30069">
        <ele>48.97</ele>
        <time>2021-04-24T08:57:16.000Z</time>
      </trkpt>
      <trkpt lat="48.75383" lon="2.30055">
        <ele>48.92</ele>
        <time>2021-04-24T08:57:19.000Z</time>
      </trkpt>
      <trkpt lat="48.75383" lon="2.3004">
        <ele>48.72</ele>
        <time>2021-04-24T08:57:22.000Z</time>
      </trkpt>
      <trkpt lat="48.75379" lon="2.30027">
        <ele>48.54</ele>
        <time>2021-04-24T08:57:26.000Z</time>
      </trkpt>
      <trkpt lat="48.75381" lon="2.29995">
        <ele>50.98</ele>
        <time>2021-04-24T08:57:44.000Z</time>
      </trkpt>
      <trkpt lat="48.75384" lon="2.29978">
        <ele>51.26</ele>
        <time>2021-04-24T08:57:46.000Z</time>
      </trkpt>
      <trkpt lat="48.75384" lon="2.29963">
        <ele>52.44</ele>
        <time>2021-04-24T08:57:52.000Z</time>
      </trkpt>
      <trkpt lat="48.75375" lon="2.29956">
        <ele>59.39</ele>
        <time>2021-04-24T08:58:11.000Z</time>
      </trkpt>
      <trkpt lat="48.75366" lon="2.29948">
        <ele>63.34</ele>
        <time>2021-04-24T08:58:20.000Z</time>
      </trkpt>
      <trkpt lat="48.75356" lon="2.29943">
        <ele>70.76</ele>
        <time>2021-04-24T08:58:39.000Z</time>
      </trkpt>
      <trkpt lat="48.75346" lon="2.29946">
        <ele>71.62</ele>
        <time>2021-04-24T08:58:41.000Z</time>
      </trkpt>
      <trkpt lat="48.75334" lon="2.29948">
        <ele>72.98</ele>
        <time>2021-04-24T08:58:44.000Z</time>
      </trkpt>
      <trkpt lat="48.75325" lon="2.29948">
        <ele>75.3</ele>
        <time>2021-04-24T08:58:49.000Z</time>
      </trkpt>
      <trkpt lat="48.75311" lon="2.29948">
        <ele>76.74</ele>
        <time>2021-04-24T08:58:52.000Z</time>
      </trkpt>
      <trkpt lat="48.75303" lon="2.29951">
        <ele>78.23</ele>
        <time>2021-04-24T08:58:55.000Z</time>
      </trkpt>
      <trkpt lat="48.75294" lon="2.29943">
        <ele>81.59</ele>
        <time>2021-04-24T08:59:02.000Z</time>
      </trkpt>
      <trkpt lat="48.75289" lon="2.29929">
        <ele>83.85</ele>
        <time>2021-04-24T08:59:07.000Z</time>
      </trkpt>
      <trkpt lat="48.75283" lon="2.29917">
        <ele>87.66</ele>
        <time>2021-04-24T08:59:16.000Z</time>
      </trkpt>
      <trkpt lat="48.75275" lon="2.29912">
        <ele>93.89</ele>
        <time>2021-04-24T08:59:36.000Z</time>
      </trkpt>
      <trkpt lat="48.75265" lon="2.29908">
        <ele>95.69</ele>
        <time>2021-04-24T08:59:42.000Z</time>
      </trkpt>
      <trkpt lat="48.75256" lon="2.29903">
        <ele>96.8</ele>
        <time>2021-04-24T08:59:46.000Z</time>
      </trkpt>
      <trkpt lat="48.75247" lon="2.29896">
        <ele>98.39</ele>
        <time>2021-04-24T08:59:52.000Z</time>
      </trkpt>
      <trkpt lat="48.75238" lon="2.29891">
        <ele>100.86</ele>
        <time>2021-04-24T09:00:02.000Z</time>
      </trkpt>
      <trkpt lat="48.75232" lon="2.2988">
        <ele>102.84</ele>
        <time>2021-04-24T09:00:11.000Z</time>
      </trkpt>
      <trkpt lat="48.75226" lon="2.2987">
        <ele>104.24</ele>
        <time>2021-04-24T09:00:18.000Z</time>
      </trkpt>
      <trkpt lat="48.7522" lon="2.29858">
        <ele>105.87</ele>
        <time>2021-04-24T09:00:27.000Z</time>
      </trkpt>
      <trkpt lat="48.75214" lon="2.29846">
        <ele>107.1</ele>
        <time>2021-04-24T09:00:35.000Z</time>
      </trkpt>
      <trkpt lat="48.75209" lon="2.29834">
        <ele>108.3</ele>
        <time>2021-04-24T09:00:44.000Z</time>
      </trkpt>
      <trkpt lat="48.75202" lon="2.29824">
        <ele>109.25</ele>
        <time>2021-04-24T09:00:52.000Z</time>
      </trkpt>
      <trkpt lat="48.75195" lon="2.29815">
        <ele>110.13</ele>
        <time>2021-04-24T09:01:01.000Z</time>
      </trkpt>
      <trkpt lat="48.75189" lon="2.29803">
        <ele>110.74</ele>
        <time>2021-04-24T09:01:09.000Z</time>
      </trkpt>
      <trkpt lat="48.75184" lon="2.29791">
        <ele>111.39</ele>
        <time>2021-04-24T09:01:19.000Z</time>
      </trkpt>
      <trkpt lat="48.75177" lon="2.29781">
        <ele>111.85</ele>
        <time>2021-04-24T09:01:26.999Z</time>
      </trkpt>
      <trkpt lat="48.75174" lon="2.29767">
        <ele>112.23</ele>
        <time>2021-04-24T09:01:34.999Z</time>
      </trkpt>
      <trkpt lat="48.75168" lon="2.29756">
        <ele>112.66</ele>
        <time>2021-04-24T09:01:43.999Z</time>
      </trkpt>
      <trkpt lat="48.75159" lon="2.29749">
        <ele>112.98</ele>
        <time>2021-04-24T09:01:52.999Z</time>
      </trkpt>
      <trkpt lat="48.75152" lon="2.2974">
        <ele>113.27</ele>
        <time>2021-04-24T09:02:03.999Z</time>
      </trkpt>
      <trkpt lat="48.75146" lon="2.29729">
        <ele>113.65</ele>
        <time>2021-04-24T09:03:00.999Z</time>
      </trkpt>
      <trkpt lat="48.75137" lon="2.29722">
        <ele>113.94</ele>
        <time>2021-04-24T09:03:10.999Z</time>
      </trkpt>
      <trkpt lat="48.75128" lon="2.29714">
        <ele>114.12</ele>
        <time>2021-04-24T09:03:18.999Z</time>
      </trkpt>
      <trkpt lat="48.7512" lon="2.29707">
        <ele>114.26</ele>
        <time>2021-04-24T09:03:26.999Z</time>
      </trkpt>
      <trkpt lat="48.75113" lon="2.29696">
        <ele>114.37</ele>
        <time>2021-04-24T09:03:34.999Z</time>
      </trkpt>
      <trkpt lat="48.75107" lon="2.29686">
        <ele>114.46</ele>
        <time>2021-04-24T09:03:41.999Z</time>
      </trkpt>
      <trkpt lat="48.75098" lon="2.29677">
        <ele>114.63</ele>
        <time>2021-04-24T09:03:50.999Z</time>
      </trkpt>
      <trkpt lat="48.75092" lon="2.29667">
        <ele>114.8</ele>
        <time>2021-04-24T09:03:58.999Z</time>
      </trkpt>
      <trkpt lat="48.75092" lon="2.29652">
        <ele>114.93</ele>
        <time>2021-04-24T09:04:06.999Z</time>
      </trkpt>
      <trkpt lat="48.75096" lon="2.29639">
        <ele>114.99</ele>
        <time>2021-04-24T09:04:12.999Z</time>
      </trkpt>
      <trkpt lat="48.75104" lon="2.29629">
        <ele>115.04</ele>
        <time>2021-04-24T09:04:20.999Z</time>
      </trkpt>
      <trkpt lat="48.7511" lon="2.29618">
        <ele>115.08</ele>
        <time>2021-04-24T09:04:28.999Z</time>
      </trkpt>
      <trkpt lat="48.75101" lon="2.2961">
        <ele>115.15</ele>
        <time>2021-04-24T09:04:39.999Z</time>
      </trkpt>
      <trkpt lat="48.75093" lon="2.29603">
        <ele>115.27</ele>
        <time>2021-04-24T09:04:52.999Z</time>
      </trkpt>
      <trkpt lat="48.75083" lon="2.29602">
        <ele>115.35</ele>
        <time>2021-04-24T09:05:03.999Z</time>
      </trkpt>
      <trkpt lat="48.75075" lon="2.29596">
        <ele>115.4</ele>
        <time>2021-04-24T09:05:10.999Z</time>
      </trkpt>
      <trkpt lat="48.75068" lon="2.29584">
        <ele>115.44</ele>
        <time>2021-04-24T09:05:18.999Z</time>
      </trkpt>
      <trkpt lat="48.75064" lon="2.29572">
        <ele>115.46</ele>
        <time>2021-04-24T09:05:22.999Z</time>
      </trkpt>
      <trkpt lat="48.75058" lon="2.29561">
        <ele>115.51</ele>
        <time>2021-04-24T09:05:30.999Z</time>
      </trkpt>
      <trkpt lat="48.75051" lon="2.29551">
        <ele>115.56</ele>
        <time>2021-04-24T09:05:37.999Z</time>
      </trkpt>
      <trkpt lat="48.75045" lon="2.2954">
        <ele>115.61</ele>
        <time>2021-04-24T09:05:45.999Z</time>
      </trkpt>
      <trkpt lat="48.75036" lon="2.29535">
        <ele>115.67</ele>
        <time>2021-04-24T09:05:53.999Z</time>
      </trkpt>
      <trkpt lat="48.75027" lon="2.29532">
        <ele>115.73</ele>
        <time>2021-04-24T09:06:00.999Z</time>
      </trkpt>
      <trkpt lat="48.7502" lon="2.29521">
        <ele>115.79</ele>
        <time>2021-04-24T09:06:08.999Z</time>
      </trkpt>
      <trkpt lat="48.75015" lon="2.2951">
        <ele>115.86</ele>
        <time>2021-04-24T09:06:18.999Z</time>
      </trkpt>
      <trkpt lat="48.75008" lon="2.295">
        <ele>115.91</ele>
        <time>2021-04-24T09:06:25.999Z</time>
      </trkpt>
      <trkpt lat="48.75" lon="2.29493">
        <ele>115.96</ele>
        <time>2021-04-24T09:06:34.999Z</time>
      </trkpt>
      <trkpt lat="48.74991" lon="2.29486">
        <ele>116.01</ele>
        <time>2021-04-24T09:06:41.999Z</time>
      </trkpt>
      <trkpt lat="48.74983" lon="2.29478">
        <ele>116.08</ele>
        <time>2021-04-24T09:06:49.999Z</time>
      </trkpt>
      <trkpt lat="48.74975" lon="2.29469">
        <ele>116.17</ele>
        <time>2021-04-24T09:06:59.999Z</time>
      </trkpt>
      <trkpt lat="48.74967" lon="2.29461">
        <ele>116.22</ele>
        <time>2021-04-24T09:07:09.999Z</time>
      </trkpt>
      <trkpt lat="48.74959" lon="2.29454">
        <ele>116.23</ele>
        <time>2021-04-24T09:07:16.999Z</time>
      </trkpt>
      <trkpt lat="48.74951" lon="2.29446">
        <ele>116.22</ele>
        <time>2021-04-24T09:07:23.999Z</time>
      </trkpt>
      <trkpt lat="48.74944" lon="2.29437">
        <ele>116.17</ele>
        <time>2021-04-24T09:07:34.999Z</time>
      </trkpt>
      <trkpt lat="48.74939" lon="2.29425">
        <ele>116.11</ele>
        <time>2021-04-24T09:07:44.999Z</time>
      </trkpt>
      <trkpt lat="48.74931" lon="2.29419">
        <ele>116.05</ele>
        <time>2021-04-24T09:07:50.999Z</time>
      </trkpt>
      <trkpt lat="48.74921" lon="2.29419">
        <ele>115.3</ele>
        <time>2021-04-24T09:08:30.999Z</time>
      </trkpt>
      <trkpt lat="48.74915" lon="2.2943">
        <ele>114.66</ele>
        <time>2021-04-24T09:09:59.999Z</time>
      </trkpt>
      <trkpt lat="48.74906" lon="2.29438">
        <ele>114.5</ele>
        <time>2021-04-24T09:10:08.999Z</time>
      </trkpt>
      <trkpt lat="48.74896" lon="2.29441">
        <ele>114.29</ele>
        <time>2021-04-24T09:10:18.999Z</time>
      </trkpt>
      <trkpt lat="48.74887" lon="2.29444">
        <ele>114.11</ele>
        <time>2021-04-24T09:10:27.999Z</time>
      </trkpt>
      <trkpt lat="48.74879" lon="2.29451">
        <ele>113.85</ele>
        <time>2021-04-24T09:10:40.999Z</time>
      </trkpt>
      <trkpt lat="48.7487" lon="2.29453">
        <ele>113.7</ele>
        <time>2021-04-24T09:10:48.999Z</time>
      </trkpt>
      <trkpt lat="48.74863" lon="2.29444">
        <ele>113.51</ele>
        <time>2021-04-24T09:10:59.999Z</time>
      </trkpt>
      <trkpt lat="48.74855" lon="2.29434">
        <ele>113.35</ele>
        <time>2021-04-24T09:11:09.999Z</time>
      </trkpt>
      <trkpt lat="48.7485" lon="2.29421">
        <ele>113.13</ele>
        <time>2021-04-24T09:11:22.999Z</time>
      </trkpt>
      <trkpt lat="48.74843" lon="2.29411">
        <ele>112.95</ele>
        <time>2021-04-24T09:11:32.999Z</time>
      </trkpt>
      <trkpt lat="48.74841" lon="2.29398">
        <ele>112.83</ele>
        <time>2021-04-24T09:11:39.999Z</time>
      </trkpt>
      <trkpt lat="48.74839" lon="2.29384">
        <ele>112.78</ele>
        <time>2021-04-24T09:11:43.999Z</time>
      </trkpt>
      <trkpt lat="48.74838" lon="2.29369">
        <ele>112.72</ele>
        <time>2021-04-24T09:11:49.999Z</time>
      </trkpt>
      <trkpt lat="48.74839" lon="2.29355">
        <ele>112.65</ele>
        <time>2021-04-24T09:11:57.999Z</time>
      </trkpt>
      <trkpt lat="48.74836" lon="2.29341">
        <ele>112.55</ele>
        <time>2021-04-24T09:12:10.999Z</time>
      </trkpt>
      <trkpt lat="48.74831" lon="2.2933">
        <ele>112.48</ele>
        <time>2021-04-24T09:12:17.999Z</time>
      </trkpt>
      <trkpt lat="48.74824" lon="2.29319">
        <ele>112.41</ele>
        <time>2021-04-24T09:12:27.999Z</time>
      </trkpt>
      <trkpt lat="48.7482" lon="2.29307">
        <ele>112.3</ele>
        <time>2021-04-24T09:12:41.999Z</time>
      </trkpt>
      <trkpt lat="48.74815" lon="2.29294">
        <ele>112.18</ele>
        <time>2021-04-24T09:12:52.999Z</time>
      </trkpt>
      <trkpt lat="48.74812" lon="2.2928">
        <ele>112.12</ele>
        <time>2021-04-24T09:12:58.999Z</time>
      </trkpt>
      <trkpt lat="48.74812" lon="2.29265">
        <ele>111.91</ele>
        <time>2021-04-24T09:13:10.999Z</time>
      </trkpt>
      <trkpt lat="48.7481" lon="2.29251">
        <ele>111.71</ele>
        <time>2021-04-24T09:13:22.999Z</time>
      </trkpt>
      <trkpt lat="48.74805" lon="2.29239">
        <ele>111.52</ele>
        <time>2021-04-24T09:13:34.999Z</time>
      </trkpt>
      <trkpt lat="48.74796" lon="2.29233">
        <ele>111.28</ele>
        <time>2021-04-24T09:13:50.999Z</time>
      </trkpt>
      <trkpt lat="48.74787" lon="2.29226">
        <ele>111.18</ele>
        <time>2021-04-24T09:13:56.999Z</time>
      </trkpt>
      <trkpt lat="48.74778" lon="2.29218">
        <ele>111.05</ele>
        <time>2021-04-24T09:14:04.999Z</time>
      </trkpt>
      <trkpt lat="48.74772" lon="2.29206">
        <ele>110.93</ele>
        <time>2021-04-24T09:14:12.999Z</time>
      </trkpt>
      <trkpt lat="48.74767" lon="2.29194">
        <ele>110.84</ele>
        <time>2021-04-24T09:14:18.999Z</time>
      </trkpt>
      <trkpt lat="48.74763" lon="2.29182">
        <ele>110.75</ele>
        <time>2021-04-24T09:14:25.999Z</time>
      </trkpt>
      <trkpt lat="48.7476" lon="2.29168">
        <ele>110.67</ele>
        <time>2021-04-24T09:14:32.999Z</time>
      </trkpt>
      <trkpt lat="48.74753" lon="2.29158">
        <ele>110.46</ele>
        <time>2021-04-24T09:14:48.999Z</time>
      </trkpt>
      <trkpt lat="48.74749" lon="2.29145">
        <ele>110.34</ele>
        <time>2021-04-24T09:14:56.999Z</time>
      </trkpt>
      <trkpt lat="48.74744" lon="2.29132">
        <ele>110.25</ele>
        <time>2021-04-24T09:15:02.999Z</time>
      </trkpt>
      <trkpt lat="48.74737" lon="2.29123">
        <ele>110.11</ele>
        <time>2021-04-24T09:15:12.999Z</time>
      </trkpt>
      <trkpt lat="48.7473" lon="2.29114">
        <ele>110.01</ele>
        <time>2021-04-24T09:15:25.999Z</time>
      </trkpt>
      <trkpt lat="48.74724" lon="2.29102">
        <ele>109.95</ele>
        <time>2021-04-24T09:15:33.999Z</time>
      </trkpt>
      <trkpt lat="48.74717" lon="2.29091">
        <ele>109.88</ele>
        <time>2021-04-24T09:15:41.999Z</time>
      </trkpt>
      <trkpt lat="48.74712" lon="2.29079">
        <ele>109.79</ele>
        <time>2021-04-24T09:15:52.999Z</time>
      </trkpt>
      <trkpt lat="48.74705" lon="2.2907">
        <ele>109.66</ele>
        <time>2021-04-24T09:16:05.999Z</time>
      </trkpt>
      <trkpt lat="48.74704" lon="2.29056">
        <ele>109.59</ele>
        <time>2021-04-24T09:16:13.999Z</time>
      </trkpt>
      <trkpt lat="48.74701" lon="2.29043">
        <ele>109.45</ele>
        <time>2021-04-24T09:16:28.999Z</time>
      </trkpt>
      <trkpt lat="48.74695" lon="2.29032">
        <ele>109.38</ele>
        <time>2021-04-24T09:16:35.999Z</time>
      </trkpt>
      <trkpt lat="48.74686" lon="2.29025">
        <ele>109.3</ele>
        <time>2021-04-24T09:16:44.999Z</time>
      </trkpt>
      <trkpt lat="48.74678" lon="2.29012">
        <ele>109.24</ele>
        <time>2021-04-24T09:16:51.999Z</time>
      </trkpt>
      <trkpt lat="48.74669" lon="2.29007">
        <ele>109.19</ele>
        <time>2021-04-24T09:16:56.999Z</time>
      </trkpt>
      <trkpt lat="48.74661" lon="2.28995">
        <ele>109.13</ele>
        <time>2021-04-24T09:17:03.999Z</time>
      </trkpt>
      <trkpt lat="48.74656" lon="2.28983">
        <ele>109.09</ele>
        <time>2021-04-24T09:17:09.999Z</time>
      </trkpt>
      <trkpt lat="48.74654" lon="2.28969">
        <ele>109.06</ele>
        <time>2021-04-24T09:17:18.999Z</time>
      </trkpt>
      <trkpt lat="48.74654" lon="2.28956">
        <ele>109.04</ele>
        <time>2021-04-24T09:17:24.999Z</time>
      </trkpt>
      <trkpt lat="48.74648" lon="2.28944">
        <ele>108.99</ele>
        <time>2021-04-24T09:17:41.999Z</time>
      </trkpt>
      <trkpt lat="48.74639" lon="2.28937">
        <ele>108.95</ele>
        <time>2021-04-24T09:17:49.999Z</time>
      </trkpt>
      <trkpt lat="48.74631" lon="2.28932">
        <ele>108.67</ele>
        <time>2021-04-24T09:20:10.999Z</time>
      </trkpt>
      <trkpt lat="48.74623" lon="2.28922">
        <ele>107.37</ele>
        <time>2021-04-24T09:25:01.000Z</time>
      </trkpt>
      <trkpt lat="48.74621" lon="2.28908">
        <ele>107.34</ele>
        <time>2021-04-24T09:25:12.000Z</time>
      </trkpt>
      <trkpt lat="48.74619" lon="2.28895">
        <ele>107.28</ele>
        <time>2021-04-24T09:25:23.000Z</time>
      </trkpt>
      <trkpt lat="48.74615" lon="2.28882">
        <ele>107.2</ele>
        <time>2021-04-24T09:25:35.000Z</time>
      </trkpt>
      <trkpt lat="48.74611" lon="2.28868">
        <ele>107.14</ele>
        <time>2021-04-24T09:25:45.000Z</time>
      </trkpt>
      <trkpt lat="48.74608" lon="2.28854">
        <ele>107.08</ele>
        <time>2021-04-24T09:25:54.000Z</time>
      </trkpt>
      <trkpt lat="48.74605" lon="2.2884">
        <ele>107.03</ele>
        <time>2021-04-24T09:26:02.000Z</time>
      </trkpt>
      <trkpt lat="48.74603" lon="2.28826">
        <ele>106.97</ele>
        <time>2021-04-24T09:26:11.000Z</time>
      </trkpt>
      <trkpt lat="48.74598" lon="2.28812">
        <ele>106.92</ele>
        <time>2021-04-24T09:26:19.000Z</time>
      </trkpt>
      <trkpt lat="48.74597" lon="2.28796">
        <ele>106.89</ele>
        <time>2021-04-24T09:26:25.000Z</time>
      </trkpt>
      <trkpt lat="48.74596" lon="2.28782">
        <ele>106.85</ele>
        <time>2021-04-24T09:26:33.000Z</time>
      </trkpt>
      <trkpt lat="48.74596" lon="2.28767">
        <ele>106.82</ele>
        <time>2021-04-24T09:26:40.000Z</time>
      </trkpt>
      <trkpt lat="48.74593" lon="2.28753">
        <ele>106.8</ele>
        <time>2021-04-24T09:26:48.000Z</time>
      </trkpt>
      <trkpt lat="48.7459" lon="2.2874">
        <ele>106.78</ele>
        <time>2021-04-24T09:26:57.000Z</time>
      </trkpt>
      <trkpt lat="48.74594" lon="2.28728">
        <ele>106.75</ele>
        <time>2021-04-24T09:27:08.000Z</time>
      </trkpt>
      <trkpt lat="48.74602" lon="2.2872">
        <ele>106.71</ele>
        <time>2021-04-24T09:27:16.000Z</time>
      </trkpt>
      <trkpt lat="48.7461" lon="2.28711">
        <ele>106.67</ele>
        <time>2021-04-24T09:27:26.000Z</time>
      </trkpt>
      <trkpt lat="48.74616" lon="2.28702">
        <ele>106.62</ele>
        <time>2021-04-24T09:27:36.000Z</time>
      </trkpt>
      <trkpt lat="48.74625" lon="2.28696">
        <ele>106.58</ele>
        <time>2021-04-24T09:27:47.000Z</time>
      </trkpt>
      <trkpt lat="48.74634" lon="2.28692">
        <ele>106.54</ele>
        <time>2021-04-24T09:27:55.000Z</time>
      </trkpt>
      <trkpt lat="48.74642" lon="2.28684">
        <ele>106.49</ele>
        <time>2021-04-24T09:28:03.000Z</time>
      </trkpt>
      <trkpt lat="48.74651" lon="2.2868">
        <ele>106.44</ele>
        <time>2021-04-24T09:28:10.000Z</time>
      </trkpt>
      <trkpt lat="48.74659" lon="2.28672">
        <ele>106.4</ele>
        <time>2021-04-24T09:28:19.000Z</time>
      </trkpt>
      <trkpt lat="48.74668" lon="2.28663">
        <ele>106.38</ele>
        <time>2021-04-24T09:28:26.000Z</time>
      </trkpt>
      <trkpt lat="48.74675" lon="2.28653">
        <ele>106.36</ele>
        <time>2021-04-24T09:28:33.000Z</time>
      </trkpt>
      <trkpt lat="48.74681" lon="2.28642">
        <ele>106.35</ele>
        <time>2021-04-24T09:28:46.000Z</time>
      </trkpt>
      <trkpt lat="48.74688" lon="2.28632">
        <ele>106.36</ele>
        <time>2021-04-24T09:28:52.000Z</time>
      </trkpt>
      <trkpt lat="48.74696" lon="2.28623">
        <ele>106.36</ele>
        <time>2021-04-24T09:29:02.000Z</time>
      </trkpt>
      <trkpt lat="48.74701" lon="2.28611">
        <ele>106.36</ele>
        <time>2021-04-24T09:29:12.000Z</time>
      </trkpt>
      <trkpt lat="48.74706" lon="2.286">
        <ele>106.37</ele>
        <time>2021-04-24T09:29:19.000Z</time>
      </trkpt>
      <trkpt lat="48.74714" lon="2.28592">
        <ele>106.38</ele>
        <time>2021-04-24T09:29:28.000Z</time>
      </trkpt>
      <trkpt lat="48.74721" lon="2.28584">
        <ele>106.37</ele>
        <time>2021-04-24T09:29:35.000Z</time>
      </trkpt>
      <trkpt lat="48.74729" lon="2.28574">
        <ele>106.37</ele>
        <time>2021-04-24T09:29:44.000Z</time>
      </trkpt>
      <trkpt lat="48.74734" lon="2.28562">
        <ele>106.38</ele>
        <time>2021-04-24T09:29:56.000Z</time>
      </trkpt>
      <trkpt lat="48.74741" lon="2.28553">
        <ele>106.39</ele>
        <time>2021-04-24T09:30:04.000Z</time>
      </trkpt>
      <trkpt lat="48.7475" lon="2.28546">
        <ele>106.42</ele>
        <time>2021-04-24T09:30:13.000Z</time>
      </trkpt>
      <trkpt lat="48.74758" lon="2.2854">
        <ele>106.47</ele>
        <time>2021-04-24T09:30:24.000Z</time>
      </trkpt>
      <trkpt lat="48.74763" lon="2.28527">
        <ele>106.52</ele>
        <time>2021-04-24T09:30:34.000Z</time>
      </trkpt>
      <trkpt lat="48.74773" lon="2.2852">
        <ele>106.55</ele>
        <time>2021-04-24T09:30:42.000Z</time>
      </trkpt>
      <trkpt lat="48.74781" lon="2.28515">
        <ele>106.6</ele>
        <time>2021-04-24T09:30:50.000Z</time>
      </trkpt>
      <trkpt lat="48.74789" lon="2.28507">
        <ele>106.65</ele>
        <time>2021-04-24T09:30:59.000Z</time>
      </trkpt>
      <trkpt lat="48.74796" lon="2.28498">
        <ele>106.69</ele>
        <time>2021-04-24T09:31:07.000Z</time>
      </trkpt>
      <trkpt lat="48.74805" lon="2.2849">
        <ele>106.74</ele>
        <time>2021-04-24T09:31:15.000Z</time>
      </trkpt>
      <trkpt lat="48.74813" lon="2.28483">
        <ele>106.79</ele>
        <time>2021-04-24T09:31:30.000Z</time>
      </trkpt>
      <trkpt lat="48.74822" lon="2.2848">
        <ele>106.81</ele>
        <time>2021-04-24T09:31:58.000Z</time>
      </trkpt>
      <trkpt lat="48.74829" lon="2.28471">
        <ele>106.84</ele>
        <time>2021-04-24T09:32:06.000Z</time>
      </trkpt>
      <trkpt lat="48.74837" lon="2.28462">
        <ele>106.92</ele>
        <time>2021-04-24T09:32:19.000Z</time>
      </trkpt>
      <trkpt lat="48.74843" lon="2.2845">
        <ele>107</ele>
        <time>2021-04-24T09:32:28.000Z</time>
      </trkpt>
      <trkpt lat="48.7485" lon="2.2844">
        <ele>107.08</ele>
        <time>2021-04-24T09:32:36.000Z</time>
      </trkpt>
      <trkpt lat="48.74855" lon="2.28428">
        <ele>107.23</ele>
        <time>2021-04-24T09:32:48.000Z</time>
      </trkpt>
      <trkpt lat="48.74864" lon="2.2842">
        <ele>107.32</ele>
        <time>2021-04-24T09:32:55.000Z</time>
      </trkpt>
      <trkpt lat="48.74873" lon="2.28418">
        <ele>107.42</ele>
        <time>2021-04-24T09:33:02.000Z</time>
      </trkpt>
      <trkpt lat="48.74882" lon="2.28416">
        <ele>107.55</ele>
        <time>2021-04-24T09:33:12.000Z</time>
      </trkpt>
      <trkpt lat="48.74891" lon="2.28418">
        <ele>107.68</ele>
        <time>2021-04-24T09:33:23.000Z</time>
      </trkpt>
      <trkpt lat="48.74901" lon="2.28418">
        <ele>107.84</ele>
        <time>2021-04-24T09:33:35.000Z</time>
      </trkpt>
      <trkpt lat="48.74911" lon="2.28416">
        <ele>107.95</ele>
        <time>2021-04-24T09:33:44.000Z</time>
      </trkpt>
      <trkpt lat="48.74919" lon="2.28411">
        <ele>108.02</ele>
        <time>2021-04-24T09:33:50.000Z</time>
      </trkpt>
      <trkpt lat="48.74926" lon="2.284">
        <ele>108.15</ele>
        <time>2021-04-24T09:34:00.000Z</time>
      </trkpt>
      <trkpt lat="48.74933" lon="2.2839">
        <ele>108.27</ele>
        <time>2021-04-24T09:34:09.000Z</time>
      </trkpt>
      <trkpt lat="48.74939" lon="2.28378">
        <ele>108.41</ele>
        <time>2021-04-24T09:34:19.000Z</time>
      </trkpt>
      <trkpt lat="48.74946" lon="2.28367">
        <ele>108.55</ele>
        <time>2021-04-24T09:34:28.000Z</time>
      </trkpt>
      <trkpt lat="48.74953" lon="2.28357">
        <ele>108.67</ele>
        <time>2021-04-24T09:34:37.000Z</time>
      </trkpt>
      <trkpt lat="48.7496" lon="2.28347">
        <ele>108.77</ele>
        <time>2021-04-24T09:34:45.000Z</time>
      </trkpt>
      <trkpt lat="48.74967" lon="2.28338">
        <ele>108.88</ele>
        <time>2021-04-24T09:34:54.000Z</time>
      </trkpt>
      <trkpt lat="48.74975" lon="2.28331">
        <ele>108.99</ele>
        <time>2021-04-24T09:35:04.000Z</time>
      </trkpt>
      <trkpt lat="48.74982" lon="2.28323">
        <ele>109.09</ele>
        <time>2021-04-24T09:35:13.000Z</time>
      </trkpt>
      <trkpt lat="48.7499" lon="2.28315">
        <ele>109.18</ele>
        <time>2021-04-24T09:35:20.000Z</time>
      </trkpt>
      <trkpt lat="48.74997" lon="2.28306">
        <ele>109.3</ele>
        <time>2021-04-24T09:35:28.000Z</time>
      </trkpt>
      <trkpt lat="48.75007" lon="2.28304">
        <ele>109.38</ele>
        <time>2021-04-24T09:35:34.000Z</time>
      </trkpt>
      <trkpt lat="48.75017" lon="2.28305">
        <ele>109.47</ele>
        <time>2021-04-24T09:35:41.000Z</time>
      </trkpt>
      <trkpt lat="48.75026" lon="2.283">
        <ele>109.57</ele>
        <time>2021-04-24T09:35:50.000Z</time>
      </trkpt>
      <trkpt lat="48.75035" lon="2.28294">
        <ele>109.71</ele>
        <time>2021-04-24T09:35:59.000Z</time>
      </trkpt>
      <trkpt lat="48.75043" lon="2.28288">
        <ele>109.9</ele>
        <time>2021-04-24T09:36:09.000Z</time>
      </trkpt>
      <trkpt lat="48.7505" lon="2.28278">
        <ele>110.07</ele>
        <time>2021-04-24T09:36:18.000Z</time>
      </trkpt>
      <trkpt lat="48.75057" lon="2.28268">
        <ele>110.31</ele>
        <time>2021-04-24T09:36:30.000Z</time>
      </trkpt>
      <trkpt lat="48.75066" lon="2.28267">
        <ele>110.4</ele>
        <time>2021-04-24T09:36:35.000Z</time>
      </trkpt>
      <trkpt lat="48.75076" lon="2.28263">
        <ele>110.54</ele>
        <time>2021-04-24T09:36:43.000Z</time>
      </trkpt>
      <trkpt lat="48.75083" lon="2.28256">
        <ele>110.7</ele>
        <time>2021-04-24T09:36:53.000Z</time>
      </trkpt>
      <trkpt lat="48.75093" lon="2.28251">
        <ele>110.83</ele>
        <time>2021-04-24T09:37:00.000Z</time>
      </trkpt>
      <trkpt lat="48.75102" lon="2.28254">
        <ele>111.13</ele>
        <time>2021-04-24T09:37:16.000Z</time>
      </trkpt>
      <trkpt lat="48.75109" lon="2.28263">
        <ele>111.47</ele>
        <time>2021-04-24T09:37:31.000Z</time>
      </trkpt>
      <trkpt lat="48.75115" lon="2.28274">
        <ele>111.71</ele>
        <time>2021-04-24T09:37:41.000Z</time>
      </trkpt>
      <trkpt lat="48.7512" lon="2.28287">
        <ele>111.89</ele>
        <time>2021-04-24T09:37:48.000Z</time>
      </trkpt>
      <trkpt lat="48.75126" lon="2.28297">
        <ele>112.1</ele>
        <time>2021-04-24T09:37:55.000Z</time>
      </trkpt>
      <trkpt lat="48.7513" lon="2.2831">
        <ele>112.4</ele>
        <time>2021-04-24T09:38:04.000Z</time>
      </trkpt>
      <trkpt lat="48.75139" lon="2.2831">
        <ele>112.81</ele>
        <time>2021-04-24T09:38:15.000Z</time>
      </trkpt>
      <trkpt lat="48.75141" lon="2.28295">
        <ele>113.18</ele>
        <time>2021-04-24T09:38:24.000Z</time>
      </trkpt>
      <trkpt lat="48.75138" lon="2.28281">
        <ele>113.51</ele>
        <time>2021-04-24T09:38:33.000Z</time>
      </trkpt>
      <trkpt lat="48.75139" lon="2.28268">
        <ele>114.1</ele>
        <time>2021-04-24T09:38:49.000Z</time>
      </trkpt>
      <trkpt lat="48.75141" lon="2.28254">
        <ele>114.54</ele>
        <time>2021-04-24T09:39:01.000Z</time>
      </trkpt>
      <trkpt lat="48.75138" lon="2.28239">
        <ele>114.76</ele>
        <time>2021-04-24T09:39:07.000Z</time>
      </trkpt>
      <trkpt lat="48.75138" lon="2.28225">
        <ele>115.13</ele>
        <time>2021-04-24T09:39:17.000Z</time>
      </trkpt>
      <trkpt lat="48.75143" lon="2.28212">
        <ele>115.48</ele>
        <time>2021-04-24T09:39:26.000Z</time>
      </trkpt>
      <trkpt lat="48.7515" lon="2.28202">
        <ele>115.75</ele>
        <time>2021-04-24T09:39:33.000Z</time>
      </trkpt>
      <trkpt lat="48.75156" lon="2.28189">
        <ele>116.21</ele>
        <time>2021-04-24T09:39:45.000Z</time>
      </trkpt>
      <trkpt lat="48.75163" lon="2.28181">
        <ele>116.55</ele>
        <time>2021-04-24T09:39:55.000Z</time>
      </trkpt>
      <trkpt lat="48.75174" lon="2.28179">
        <ele>116.67</ele>
        <time>2021-04-24T09:39:59.000Z</time>
      </trkpt>
      <trkpt lat="48.75185" lon="2.28183">
        <ele>116.83</ele>
        <time>2021-04-24T09:40:04.000Z</time>
      </trkpt>
      <trkpt lat="48.75194" lon="2.28183">
        <ele>117.24</ele>
        <time>2021-04-24T09:40:18.000Z</time>
      </trkpt>
      <trkpt lat="48.75203" lon="2.28174">
        <ele>117.42</ele>
        <time>2021-04-24T09:40:25.000Z</time>
      </trkpt>
      <trkpt lat="48.7521" lon="2.28165">
        <ele>117.7</ele>
        <time>2021-04-24T09:40:36.000Z</time>
      </trkpt>
      <trkpt lat="48.75216" lon="2.28155">
        <ele>119.58</ele>
        <time>2021-04-24T09:44:19.999Z</time>
      </trkpt>
      <trkpt lat="48.75219" lon="2.2814">
        <ele>119.87</ele>
        <time>2021-04-24T09:44:26.999Z</time>
      </trkpt>
      <trkpt lat="48.75227" lon="2.28131">
        <ele>120.29</ele>
        <time>2021-04-24T09:44:37.999Z</time>
      </trkpt>
      <trkpt lat="48.75233" lon="2.28121">
        <ele>120.51</ele>
        <time>2021-04-24T09:44:44.999Z</time>
      </trkpt>
      <trkpt lat="48.75241" lon="2.28114">
        <ele>120.77</ele>
        <time>2021-04-24T09:44:53.999Z</time>
      </trkpt>
      <trkpt lat="48.7525" lon="2.28106">
        <ele>120.96</ele>
        <time>2021-04-24T09:45:01.999Z</time>
      </trkpt>
      <trkpt lat="48.75258" lon="2.28098">
        <ele>121.1</ele>
        <time>2021-04-24T09:45:08.999Z</time>
      </trkpt>
      <trkpt lat="48.75265" lon="2.28087">
        <ele>121.25</ele>
        <time>2021-04-24T09:45:16.999Z</time>
      </trkpt>
      <trkpt lat="48.7527" lon="2.28075">
        <ele>121.39</ele>
        <time>2021-04-24T09:45:25.999Z</time>
      </trkpt>
      <trkpt lat="48.75279" lon="2.28067">
        <ele>121.54</ele>
        <time>2021-04-24T09:45:36.999Z</time>
      </trkpt>
      <trkpt lat="48.75285" lon="2.28057">
        <ele>121.65</ele>
        <time>2021-04-24T09:45:44.999Z</time>
      </trkpt>
      <trkpt lat="48.75292" lon="2.28048">
        <ele>121.75</ele>
        <time>2021-04-24T09:45:52.999Z</time>
      </trkpt>
      <trkpt lat="48.75301" lon="2.28039">
        <ele>121.82</ele>
        <time>2021-04-24T09:45:59.999Z</time>
      </trkpt>
      <trkpt lat="48.7531" lon="2.28032">
        <ele>121.92</ele>
        <time>2021-04-24T09:46:09.999Z</time>
      </trkpt>
      <trkpt lat="48.75317" lon="2.28021">
        <ele>121.99</ele>
        <time>2021-04-24T09:46:16.999Z</time>
      </trkpt>
      <trkpt lat="48.75322" lon="2.28008">
        <ele>122.07</ele>
        <time>2021-04-24T09:46:24.999Z</time>
      </trkpt>
      <trkpt lat="48.75326" lon="2.27995">
        <ele>122.15</ele>
        <time>2021-04-24T09:46:33.999Z</time>
      </trkpt>
      <trkpt lat="48.7533" lon="2.27982">
        <ele>122.23</ele>
        <time>2021-04-24T09:46:41.999Z</time>
      </trkpt>
      <trkpt lat="48.75334" lon="2.27969">
        <ele>122.3</ele>
        <time>2021-04-24T09:46:48.999Z</time>
      </trkpt>
      <trkpt lat="48.7534" lon="2.27959">
        <ele>122.46</ele>
        <time>2021-04-24T09:46:58.999Z</time>
      </trkpt>
      <trkpt lat="48.75347" lon="2.27948">
        <ele>122.59</ele>
        <time>2021-04-24T09:47:06.999Z</time>
      </trkpt>
      <trkpt lat="48.75353" lon="2.27934">
        <ele>122.78</ele>
        <time>2021-04-24T09:47:16.999Z</time>
      </trkpt>
      <trkpt lat="48.75356" lon="2.27919">
        <ele>122.95</ele>
        <time>2021-04-24T09:47:25.999Z</time>
      </trkpt>
      <trkpt lat="48.75357" lon="2.27905">
        <ele>123.09</ele>
        <time>2021-04-24T09:47:33.999Z</time>
      </trkpt>
      <trkpt lat="48.75354" lon="2.27892">
        <ele>123.18</ele>
        <time>2021-04-24T09:47:38.999Z</time>
      </trkpt>
      <trkpt lat="48.7535" lon="2.27879">
        <ele>123.29</ele>
        <time>2021-04-24T09:47:44.999Z</time>
      </trkpt>
      <trkpt lat="48.75355" lon="2.27867">
        <ele>123.45</ele>
        <time>2021-04-24T09:47:52.999Z</time>
      </trkpt>
      <trkpt lat="48.75362" lon="2.27859">
        <ele>123.58</ele>
        <time>2021-04-24T09:47:59.999Z</time>
      </trkpt>
      <trkpt lat="48.75371" lon="2.27852">
        <ele>123.74</ele>
        <time>2021-04-24T09:48:08.999Z</time>
      </trkpt>
      <trkpt lat="48.75378" lon="2.27844">
        <ele>123.87</ele>
        <time>2021-04-24T09:48:16.999Z</time>
      </trkpt>
      <trkpt lat="48.75383" lon="2.27831">
        <ele>123.98</ele>
        <time>2021-04-24T09:48:24.999Z</time>
      </trkpt>
      <trkpt lat="48.75392" lon="2.27834">
        <ele>124.07</ele>
        <time>2021-04-24T09:48:31.999Z</time>
      </trkpt>
      <trkpt lat="48.75402" lon="2.27829">
        <ele>124.17</ele>
        <time>2021-04-24T09:48:39.999Z</time>
      </trkpt>
      <trkpt lat="48.75408" lon="2.2782">
        <ele>124.25</ele>
        <time>2021-04-24T09:48:45.999Z</time>
      </trkpt>
      <trkpt lat="48.75412" lon="2.27806">
        <ele>124.36</ele>
        <time>2021-04-24T09:48:56.999Z</time>
      </trkpt>
      <trkpt lat="48.75419" lon="2.27795">
        <ele>124.47</ele>
        <time>2021-04-24T09:49:05.999Z</time>
      </trkpt>
      <trkpt lat="48.75424" lon="2.27783">
        <ele>124.57</ele>
        <time>2021-04-24T09:49:14.999Z</time>
      </trkpt>
      <trkpt lat="48.75429" lon="2.2777">
        <ele>124.68</ele>
        <time>2021-04-24T09:49:23.999Z</time>
      </trkpt>
      <trkpt lat="48.75433" lon="2.27758">
        <ele>124.81</ele>
        <time>2021-04-24T09:49:33.999Z</time>
      </trkpt>
      <trkpt lat="48.75438" lon="2.27746">
        <ele>124.92</ele>
        <time>2021-04-24T09:49:45.999Z</time>
      </trkpt>
      <trkpt lat="48.75443" lon="2.27734">
        <ele>125.01</ele>
        <time>2021-04-24T09:49:54.999Z</time>
      </trkpt>
      <trkpt lat="48.7545" lon="2.27723">
        <ele>125.08</ele>
        <time>2021-04-24T09:50:02.999Z</time>
      </trkpt>
      <trkpt lat="48.75456" lon="2.27712">
        <ele>125.17</ele>
        <time>2021-04-24T09:50:11.999Z</time>
      </trkpt>
      <trkpt lat="48.75457" lon="2.27697">
        <ele>125.28</ele>
        <time>2021-04-24T09:50:22.999Z</time>
      </trkpt>
      <trkpt lat="48.75449" lon="2.27688">
        <ele>125.32</ele>
        <time>2021-04-24T09:50:27.999Z</time>
      </trkpt>
      <trkpt lat="48.7544" lon="2.27684">
        <ele>125.41</ele>
        <time>2021-04-24T09:50:38.999Z</time>
      </trkpt>
      <trkpt lat="48.75435" lon="2.2767">
        <ele>125.46</ele>
        <time>2021-04-24T09:50:45.999Z</time>
      </trkpt>
      <trkpt lat="48.75434" lon="2.27656">
        <ele>125.49</ele>
        <time>2021-04-24T09:50:50.999Z</time>
      </trkpt>
      <trkpt lat="48.75435" lon="2.27641">
        <ele>125.54</ele>
        <time>2021-04-24T09:50:55.999Z</time>
      </trkpt>
      <trkpt lat="48.75442" lon="2.27631">
        <ele>125.61</ele>
        <time>2021-04-24T09:51:05.999Z</time>
      </trkpt>
      <trkpt lat="48.75448" lon="2.27619">
        <ele>125.68</ele>
        <time>2021-04-24T09:51:14.999Z</time>
      </trkpt>
      <trkpt lat="48.75449" lon="2.27605">
        <ele>125.74</ele>
        <time>2021-04-24T09:51:24.999Z</time>
      </trkpt>
      <trkpt lat="48.75455" lon="2.27594">
        <ele>125.82</ele>
        <time>2021-04-24T09:51:36.999Z</time>
      </trkpt>
      <trkpt lat="48.75462" lon="2.27583">
        <ele>125.86</ele>
        <time>2021-04-24T09:51:44.999Z</time>
      </trkpt>
      <trkpt lat="48.7547" lon="2.27572">
        <ele>125.91</ele>
        <time>2021-04-24T09:51:52.999Z</time>
      </trkpt>
      <trkpt lat="48.75474" lon="2.27559">
        <ele>125.94</ele>
        <time>2021-04-24T09:51:57.999Z</time>
      </trkpt>
      <trkpt lat="48.75476" lon="2.27545">
        <ele>126</ele>
        <time>2021-04-24T09:52:04.999Z</time>
      </trkpt>
      <trkpt lat="48.75478" lon="2.27531">
        <ele>126.12</ele>
        <time>2021-04-24T09:52:19.999Z</time>
      </trkpt>
      <trkpt lat="48.75474" lon="2.27517">
        <ele>126.17</ele>
        <time>2021-04-24T09:52:25.999Z</time>
      </trkpt>
      <trkpt lat="48.75473" lon="2.27503">
        <ele>126.23</ele>
        <time>2021-04-24T09:52:31.999Z</time>
      </trkpt>
      <trkpt lat="48.75468" lon="2.2749">
        <ele>126.31</ele>
        <time>2021-04-24T09:52:38.999Z</time>
      </trkpt>
      <trkpt lat="48.75472" lon="2.27478">
        <ele>126.53</ele>
        <time>2021-04-24T09:52:49.999Z</time>
      </trkpt>
      <trkpt lat="48.75477" lon="2.27465">
        <ele>127.21</ele>
        <time>2021-04-24T09:53:49.999Z</time>
      </trkpt>
      <trkpt lat="48.75481" lon="2.27451">
        <ele>127.38</ele>
        <time>2021-04-24T09:53:57.999Z</time>
      </trkpt>
      <trkpt lat="48.75477" lon="2.27439">
        <ele>127.96</ele>
        <time>2021-04-24T09:54:34.999Z</time>
      </trkpt>
      <trkpt lat="48.75472" lon="2.27426">
        <ele>128.19</ele>
        <time>2021-04-24T09:54:41.999Z</time>
      </trkpt>
      <trkpt lat="48.75472" lon="2.27411">
        <ele>128.46</ele>
        <time>2021-04-24T09:54:49.999Z</time>
      </trkpt>
      <trkpt lat="48.75479" lon="2.27402">
        <ele>129.19</ele>
        <time>2021-04-24T09:55:50.999Z</time>
      </trkpt>
      <trkpt lat="48.75486" lon="2.27394">
        <ele>129.71</ele>
        <time>2021-04-24T09:56:05.999Z</time>
      </trkpt>
      <trkpt lat="48.75493" lon="2.27384">
        <ele>129.99</ele>
        <time>2021-04-24T09:56:13.999Z</time>
      </trkpt>
      <trkpt lat="48.75499" lon="2.27373">
        <ele>130.31</ele>
        <time>2021-04-24T09:56:23.999Z</time>
      </trkpt>
      <trkpt lat="48.75506" lon="2.27363">
        <ele>130.67</ele>
        <time>2021-04-24T09:56:35.999Z</time>
      </trkpt>
      <trkpt lat="48.75513" lon="2.27352">
        <ele>130.91</ele>
        <time>2021-04-24T09:56:44.999Z</time>
      </trkpt>
      <trkpt lat="48.75521" lon="2.27345">
        <ele>131.09</ele>
        <time>2021-04-24T09:56:51.999Z</time>
      </trkpt>
      <trkpt lat="48.75527" lon="2.27335">
        <ele>131.3</ele>
        <time>2021-04-24T09:56:59.999Z</time>
      </trkpt>
      <trkpt lat="48.75534" lon="2.2732">
        <ele>131.52</ele>
        <time>2021-04-24T09:57:08.999Z</time>
      </trkpt>
      <trkpt lat="48.7554" lon="2.2731">
        <ele>131.66</ele>
        <time>2021-04-24T09:57:14.999Z</time>
      </trkpt>
      <trkpt lat="48.75546" lon="2.27298">
        <ele>131.86</ele>
        <time>2021-04-24T09:57:23.999Z</time>
      </trkpt>
      <trkpt lat="48.75552" lon="2.27286">
        <ele>132.07</ele>
        <time>2021-04-24T09:57:32.999Z</time>
      </trkpt>
      <trkpt lat="48.7556" lon="2.27274">
        <ele>132.29</ele>
        <time>2021-04-24T09:57:41.999Z</time>
      </trkpt>
      <trkpt lat="48.75568" lon="2.27264">
        <ele>132.55</ele>
        <time>2021-04-24T09:57:51.999Z</time>
      </trkpt>
      <trkpt lat="48.75576" lon="2.27256">
        <ele>132.75</ele>
        <time>2021-04-24T09:57:59.999Z</time>
      </trkpt>
      <trkpt lat="48.75585" lon="2.27247">
        <ele>132.92</ele>
        <time>2021-04-24T09:58:06.999Z</time>
      </trkpt>
      <trkpt lat="48.75593" lon="2.27237">
        <ele>133.11</ele>
        <time>2021-04-24T09:58:13.999Z</time>
      </trkpt>
      <trkpt lat="48.75601" lon="2.27229">
        <ele>133.29</ele>
        <time>2021-04-24T09:58:19.999Z</time>
      </trkpt>
      <trkpt lat="48.75604" lon="2.27216">
        <ele>133.54</ele>
        <time>2021-04-24T09:58:27.999Z</time>
      </trkpt>
      <trkpt lat="48.75605" lon="2.27202">
        <ele>133.72</ele>
        <time>2021-04-24T09:58:33.999Z</time>
      </trkpt>
      <trkpt lat="48.75611" lon="2.2719">
        <ele>134.13</ele>
        <time>2021-04-24T09:58:47.999Z</time>
      </trkpt>
      <trkpt lat="48.7562" lon="2.27182">
        <ele>134.34</ele>
        <time>2021-04-24T09:58:54.999Z</time>
      </trkpt>
      <trkpt lat="48.75628" lon="2.27172">
        <ele>134.65</ele>
        <time>2021-04-24T09:59:03.999Z</time>
      </trkpt>
      <trkpt lat="48.75634" lon="2.2716">
        <ele>134.9</ele>
        <time>2021-04-24T09:59:10.999Z</time>
      </trkpt>
      <trkpt lat="48.75639" lon="2.27147">
        <ele>135.26</ele>
        <time>2021-04-24T09:59:20.999Z</time>
      </trkpt>
      <trkpt lat="48.75646" lon="2.2714">
        <ele>135.56</ele>
        <time>2021-04-24T09:59:29.999Z</time>
      </trkpt>
      <trkpt lat="48.75654" lon="2.27132">
        <ele>135.81</ele>
        <time>2021-04-24T09:59:37.999Z</time>
      </trkpt>
      <trkpt lat="48.75658" lon="2.27119">
        <ele>136.09</ele>
        <time>2021-04-24T09:59:47.999Z</time>
      </trkpt>
      <trkpt lat="48.75661" lon="2.27105">
        <ele>136.31</ele>
        <time>2021-04-24T09:59:55.999Z</time>
      </trkpt>
      <trkpt lat="48.75666" lon="2.27094">
        <ele>136.61</ele>
        <time>2021-04-24T10:00:06.999Z</time>
      </trkpt>
      <trkpt lat="48.75673" lon="2.27084">
        <ele>136.79</ele>
        <time>2021-04-24T10:00:13.999Z</time>
      </trkpt>
      <trkpt lat="48.75678" lon="2.27072">
        <ele>136.98</ele>
        <time>2021-04-24T10:00:20.999Z</time>
      </trkpt>
      <trkpt lat="48.75685" lon="2.27061">
        <ele>137.21</ele>
        <time>2021-04-24T10:00:27.999Z</time>
      </trkpt>
      <trkpt lat="48.75692" lon="2.27051">
        <ele>137.46</ele>
        <time>2021-04-24T10:00:34.999Z</time>
      </trkpt>
      <trkpt lat="48.75696" lon="2.27038">
        <ele>137.76</ele>
        <time>2021-04-24T10:00:43.999Z</time>
      </trkpt>
      <trkpt lat="48.757" lon="2.27026">
        <ele>138.05</ele>
        <time>2021-04-24T10:00:53.999Z</time>
      </trkpt>
      <trkpt lat="48.75704" lon="2.27013">
        <ele>138.29</ele>
        <time>2021-04-24T10:01:02.999Z</time>
      </trkpt>
      <trkpt lat="48.7571" lon="2.27002">
        <ele>138.43</ele>
        <time>2021-04-24T10:01:08.999Z</time>
      </trkpt>
      <trkpt lat="48.75716" lon="2.2699">
        <ele>138.66</ele>
        <time>2021-04-24T10:01:18.999Z</time>
      </trkpt>
      <trkpt lat="48.7572" lon="2.26977">
        <ele>138.83</ele>
        <time>2021-04-24T10:01:25.999Z</time>
      </trkpt>
      <trkpt lat="48.75727" lon="2.26967">
        <ele>138.98</ele>
        <time>2021-04-24T10:01:31.999Z</time>
      </trkpt>
      <trkpt lat="48.75733" lon="2.26956">
        <ele>139.2</ele>
        <time>2021-04-24T10:01:41.000Z</time>
      </trkpt>
      <trkpt lat="48.75739" lon="2.26945">
        <ele>139.38</ele>
        <time>2021-04-24T10:01:48.000Z</time>
      </trkpt>
      <trkpt lat="48.75748" lon="2.2694">
        <ele>139.73</ele>
        <time>2021-04-24T10:02:01.000Z</time>
      </trkpt>
      <trkpt lat="48.75758" lon="2.26937">
        <ele>140.02</ele>
        <time>2021-04-24T10:02:10.000Z</time>
      </trkpt>
      <trkpt lat="48.75767" lon="2.26934">
        <ele>140.32</ele>
        <time>2021-04-24T10:02:20.000Z</time>
      </trkpt>
      <trkpt lat="48.75774" lon="2.26924">
        <ele>140.61</ele>
        <time>2021-04-24T10:02:33.000Z</time>
      </trkpt>
      <trkpt lat="48.75777" lon="2.26911">
        <ele>140.87</ele>
        <time>2021-04-24T10:02:42.000Z</time>
      </trkpt>
      <trkpt lat="48.7578" lon="2.26897">
        <ele>141.78</ele>
        <time>2021-04-24T10:03:36.000Z</time>
      </trkpt>
      <trkpt lat="48.75784" lon="2.26884">
        <ele>142.1</ele>
        <time>2021-04-24T10:03:45.000Z</time>
      </trkpt>
      <trkpt lat="48.75789" lon="2.26872">
        <ele>142.42</ele>
        <time>2021-04-24T10:03:54.000Z</time>
      </trkpt>
      <trkpt lat="48.75792" lon="2.26858">
        <ele>142.78</ele>
        <time>2021-04-24T10:04:03.000Z</time>
      </trkpt>
      <trkpt lat="48.75797" lon="2.26846">
        <ele>143.2</ele>
        <time>2021-04-24T10:04:14.000Z</time>
      </trkpt>
      <trkpt lat="48.75799" lon="2.26831">
        <ele>143.51</ele>
        <time>2021-04-24T10:04:23.000Z</time>
      </trkpt>
      <trkpt lat="48.75803" lon="2.26818">
        <ele>143.92</ele>
        <time>2021-04-24T10:04:36.000Z</time>
      </trkpt>
      <trkpt lat="48.75806" lon="2.26804">
        <ele>144.2</ele>
        <time>2021-04-24T10:04:45.000Z</time>
      </trkpt>
      <trkpt lat="48.7581" lon="2.26791">
        <ele>144.44</ele>
        <time>2021-04-24T10:04:53.000Z</time>
      </trkpt>
      <trkpt lat="48.75811" lon="2.26776">
        <ele>144.82</ele>
        <time>2021-04-24T10:05:07.000Z</time>
      </trkpt>
      <trkpt lat="48.75814" lon="2.26761">
        <ele>145.06</ele>
        <time>2021-04-24T10:05:16.000Z</time>
      </trkpt>
      <trkpt lat="48.75815" lon="2.26747">
        <ele>145.33</ele>
        <time>2021-04-24T10:05:26.000Z</time>
      </trkpt>
      <trkpt lat="48.75817" lon="2.26734">
        <ele>145.71</ele>
        <time>2021-04-24T10:05:39.000Z</time>
      </trkpt>
      <trkpt lat="48.7582" lon="2.26721">
        <ele>145.99</ele>
        <time>2021-04-24T10:05:50.000Z</time>
      </trkpt>
      <trkpt lat="48.75824" lon="2.26708">
        <ele>146.16</ele>
        <time>2021-04-24T10:05:57.000Z</time>
      </trkpt>
      <trkpt lat="48.75825" lon="2.26694">
        <ele>146.37</ele>
        <time>2021-04-24T10:06:06.000Z</time>
      </trkpt>
      <trkpt lat="48.75823" lon="2.26681">
        <ele>146.58</ele>
        <time>2021-04-24T10:06:15.000Z</time>
      </trkpt>
      <trkpt lat="48.7582" lon="2.26666">
        <ele>146.82</ele>
        <time>2021-04-24T10:06:26.000Z</time>
      </trkpt>
      <trkpt lat="48.75821" lon="2.26651">
        <ele>147.05</ele>
        <time>2021-04-24T10:06:37.000Z</time>
      </trkpt>
      <trkpt lat="48.7582" lon="2.26636">
        <ele>147.23</ele>
        <time>2021-04-24T10:06:47.000Z</time>
      </trkpt>
      <trkpt lat="48.75822" lon="2.26622">
        <ele>147.45</ele>
        <time>2021-04-24T10:07:00.000Z</time>
      </trkpt>
      <trkpt lat="48.75825" lon="2.26608">
        <ele>147.59</ele>
        <time>2021-04-24T10:07:10.000Z</time>
      </trkpt>
      <trkpt lat="48.75832" lon="2.26598">
        <ele>147.75</ele>
        <time>2021-04-24T10:07:29.000Z</time>
      </trkpt>
      <trkpt lat="48.75838" lon="2.26587">
        <ele>147.94</ele>
        <time>2021-04-24T10:07:44.000Z</time>
      </trkpt>
      <trkpt lat="48.75843" lon="2.26575">
        <ele>148.1</ele>
        <time>2021-04-24T10:07:56.000Z</time>
      </trkpt>
      <trkpt lat="48.7585" lon="2.26565">
        <ele>148.4</ele>
        <time>2021-04-24T10:08:24.000Z</time>
      </trkpt>
      <trkpt lat="48.75854" lon="2.26553">
        <ele>148.97</ele>
        <time>2021-04-24T10:09:26.000Z</time>
      </trkpt>
      <trkpt lat="48.75849" lon="2.26541">
        <ele>149.18</ele>
        <time>2021-04-24T10:09:44.000Z</time>
      </trkpt>
      <trkpt lat="48.75844" lon="2.26527">
        <ele>149.3</ele>
        <time>2021-04-24T10:09:54.000Z</time>
      </trkpt>
      <trkpt lat="48.75837" lon="2.26515">
        <ele>149.39</ele>
        <time>2021-04-24T10:10:01.000Z</time>
      </trkpt>
      <trkpt lat="48.7583" lon="2.26504">
        <ele>149.49</ele>
        <time>2021-04-24T10:10:09.000Z</time>
      </trkpt>
      <trkpt lat="48.75823" lon="2.26494">
        <ele>149.61</ele>
        <time>2021-04-24T10:10:19.000Z</time>
      </trkpt>
      <trkpt lat="48.75817" lon="2.26482">
        <ele>149.71</ele>
        <time>2021-04-24T10:10:27.000Z</time>
      </trkpt>
      <trkpt lat="48.75809" lon="2.26474">
        <ele>149.78</ele>
        <time>2021-04-24T10:10:34.000Z</time>
      </trkpt>
      <trkpt lat="48.758" lon="2.26464">
        <ele>149.86</ele>
        <time>2021-04-24T10:10:42.000Z</time>
      </trkpt>
      <trkpt lat="48.75795" lon="2.26452">
        <ele>149.92</ele>
        <time>2021-04-24T10:10:51.000Z</time>
      </trkpt>
      <trkpt lat="48.75792" lon="2.26439">
        <ele>149.93</ele>
        <time>2021-04-24T10:10:59.000Z</time>
      </trkpt>
      <trkpt lat="48.75789" lon="2.26425">
        <ele>149.97</ele>
        <time>2021-04-24T10:11:07.000Z</time>
      </trkpt>
      <trkpt lat="48.75786" lon="2.26413">
        <ele>150.11</ele>
        <time>2021-04-24T10:11:17.000Z</time>
      </trkpt>
      <trkpt lat="48.75782" lon="2.26399">
        <ele>150.3</ele>
        <time>2021-04-24T10:11:26.000Z</time>
      </trkpt>
      <trkpt lat="48.75777" lon="2.26387">
        <ele>150.58</ele>
        <time>2021-04-24T10:11:35.000Z</time>
      </trkpt>
      <trkpt lat="48.75772" lon="2.26376">
        <ele>151.03</ele>
        <time>2021-04-24T10:11:46.000Z</time>
      </trkpt>
      <trkpt lat="48.75764" lon="2.26369">
        <ele>151.79</ele>
        <time>2021-04-24T10:12:02.000Z</time>
      </trkpt>
      <trkpt lat="48.75757" lon="2.26359">
        <ele>152.24</ele>
        <time>2021-04-24T10:12:11.000Z</time>
      </trkpt>
      <trkpt lat="48.7575" lon="2.2635">
        <ele>152.61</ele>
        <time>2021-04-24T10:12:19.000Z</time>
      </trkpt>
      <trkpt lat="48.75743" lon="2.26341">
        <ele>153.06</ele>
        <time>2021-04-24T10:12:29.000Z</time>
      </trkpt>
      <trkpt lat="48.75737" lon="2.26329">
        <ele>153.63</ele>
        <time>2021-04-24T10:12:41.000Z</time>
      </trkpt>
      <trkpt lat="48.75729" lon="2.26321">
        <ele>154.19</ele>
        <time>2021-04-24T10:12:52.000Z</time>
      </trkpt>
      <trkpt lat="48.75722" lon="2.2631">
        <ele>154.68</ele>
        <time>2021-04-24T10:13:01.000Z</time>
      </trkpt>
      <trkpt lat="48.75718" lon="2.26298">
        <ele>155.12</ele>
        <time>2021-04-24T10:13:08.000Z</time>
      </trkpt>
      <trkpt lat="48.75713" lon="2.26285">
        <ele>155.55</ele>
        <time>2021-04-24T10:13:14.000Z</time>
      </trkpt>
      <trkpt lat="48.75707" lon="2.2627">
        <ele>156.03</ele>
        <time>2021-04-24T10:13:20.000Z</time>
      </trkpt>
      <trkpt lat="48.75703" lon="2.26256">
        <ele>156.49</ele>
        <time>2021-04-24T10:13:25.000Z</time>
      </trkpt>
      <trkpt lat="48.75699" lon="2.26243">
        <ele>157.5</ele>
        <time>2021-04-24T10:13:34.000Z</time>
      </trkpt>
      <trkpt lat="48.757" lon="2.26229">
        <ele>158.74</ele>
        <time>2021-04-24T10:13:43.000Z</time>
      </trkpt>
      <trkpt lat="48.75701" lon="2.26215">
        <ele>160.34</ele>
        <time>2021-04-24T10:13:54.000Z</time>
      </trkpt>
      <trkpt lat="48.75705" lon="2.26202">
        <ele>161.79</ele>
        <time>2021-04-24T10:14:03.000Z</time>
      </trkpt>
      <trkpt lat="48.75711" lon="2.2619">
        <ele>163.25</ele>
        <time>2021-04-24T10:14:12.000Z</time>
      </trkpt>
      <trkpt lat="48.75718" lon="2.26179">
        <ele>164.83</ele>
        <time>2021-04-24T10:14:22.000Z</time>
      </trkpt>
      <trkpt lat="48.75721" lon="2.26164">
        <ele>166.42</ele>
        <time>2021-04-24T10:14:33.000Z</time>
      </trkpt>
      <trkpt lat="48.75728" lon="2.26156">
        <ele>168.44</ele>
        <time>2021-04-24T10:14:52.000Z</time>
      </trkpt>
      <trkpt lat="48.75737" lon="2.2616">
        <ele>169.37</ele>
        <time>2021-04-24T10:15:02.000Z</time>
      </trkpt>
      <trkpt lat="48.75746" lon="2.26166">
        <ele>169.9</ele>
        <time>2021-04-24T10:15:07.000Z</time>
      </trkpt>
      <trkpt lat="48.75757" lon="2.2617">
        <ele>170.4</ele>
        <time>2021-04-24T10:15:12.000Z</time>
      </trkpt>
      <trkpt lat="48.75768" lon="2.26174">
        <ele>171.26</ele>
        <time>2021-04-24T10:15:21.000Z</time>
      </trkpt>
      <trkpt lat="48.75777" lon="2.26182">
        <ele>171.91</ele>
        <time>2021-04-24T10:15:29.000Z</time>
      </trkpt>
      <trkpt lat="48.75784" lon="2.2619">
        <ele>172.44</ele>
        <time>2021-04-24T10:15:36.000Z</time>
      </trkpt>
      <trkpt lat="48.7579" lon="2.26202">
        <ele>173.2</ele>
        <time>2021-04-24T10:15:45.000Z</time>
      </trkpt>
      <trkpt lat="48.75794" lon="2.26215">
        <ele>173.84</ele>
        <time>2021-04-24T10:15:53.000Z</time>
      </trkpt>
      <trkpt lat="48.75796" lon="2.26229">
        <ele>174.55</ele>
        <time>2021-04-24T10:16:03.000Z</time>
      </trkpt>
      <trkpt lat="48.75799" lon="2.26242">
        <ele>175.24</ele>
        <time>2021-04-24T10:16:13.000Z</time>
      </trkpt>
      <trkpt lat="48.75805" lon="2.26254">
        <ele>176.4</ele>
        <time>2021-04-24T10:16:25.000Z</time>
      </trkpt>
      <trkpt lat="48.7581" lon="2.26266">
        <ele>177.29</ele>
        <time>2021-04-24T10:16:33.000Z</time>
      </trkpt>
      <trkpt lat="48.75816" lon="2.26277">
        <ele>178.35</ele>
        <time>2021-04-24T10:16:42.000Z</time>
      </trkpt>
      <trkpt lat="48.75825" lon="2.2628">
        <ele>179.32</ele>
        <time>2021-04-24T10:16:50.000Z</time>
      </trkpt>
      <trkpt lat="48.75833" lon="2.26289">
        <ele>180.24</ele>
        <time>2021-04-24T10:16:58.000Z</time>
      </trkpt>
      <trkpt lat="48.75834" lon="2.26306">
        <ele>181.28</ele>
        <time>2021-04-24T10:17:08.000Z</time>
      </trkpt>
      <trkpt lat="48.75842" lon="2.26313">
        <ele>182.58</ele>
        <time>2021-04-24T10:17:21.000Z</time>
      </trkpt>
      <trkpt lat="48.75851" lon="2.26317">
        <ele>183.58</ele>
        <time>2021-04-24T10:17:31.000Z</time>
      </trkpt>
      <trkpt lat="48.7586" lon="2.26317">
        <ele>184.27</ele>
        <time>2021-04-24T10:17:40.000Z</time>
      </trkpt>
      <trkpt lat="48.75869" lon="2.26312">
        <ele>185.01</ele>
        <time>2021-04-24T10:17:49.000Z</time>
      </trkpt>
      <trkpt lat="48.75878" lon="2.26307">
        <ele>185.85</ele>
        <time>2021-04-24T10:17:59.000Z</time>
      </trkpt>
      <trkpt lat="48.75885" lon="2.26299">
        <ele>186.46</ele>
        <time>2021-04-24T10:18:07.000Z</time>
      </trkpt>
      <trkpt lat="48.75892" lon="2.26289">
        <ele>187.17</ele>
        <time>2021-04-24T10:18:17.000Z</time>
      </trkpt>
      <trkpt lat="48.75894" lon="2.26273">
        <ele>187.84</ele>
        <time>2021-04-24T10:18:27.000Z</time>
      </trkpt>
      <trkpt lat="48.75895" lon="2.26259">
        <ele>188.52</ele>
        <time>2021-04-24T10:18:38.000Z</time>
      </trkpt>
      <trkpt lat="48.75897" lon="2.26245">
        <ele>188.93</ele>
        <time>2021-04-24T10:18:45.000Z</time>
      </trkpt>
      <trkpt lat="48.75896" lon="2.2623">
        <ele>189.61</ele>
        <time>2021-04-24T10:18:57.000Z</time>
      </trkpt>
      <trkpt lat="48.75897" lon="2.26215">
        <ele>190.14</ele>
        <time>2021-04-24T10:19:07.000Z</time>
      </trkpt>
      <trkpt lat="48.75897" lon="2.26202">
        <ele>190.61</ele>
        <time>2021-04-24T10:19:17.000Z</time>
      </trkpt>
      <trkpt lat="48.759" lon="2.26188">
        <ele>190.92</ele>
        <time>2021-04-24T10:19:24.000Z</time>
      </trkpt>
      <trkpt lat="48.75901" lon="2.26174">
        <ele>191.52</ele>
        <time>2021-04-24T10:19:38.000Z</time>
      </trkpt>
      <trkpt lat="48.75904" lon="2.2616">
        <ele>191.9</ele>
        <time>2021-04-24T10:19:48.000Z</time>
      </trkpt>
      <trkpt lat="48.75906" lon="2.26144">
        <ele>192.27</ele>
        <time>2021-04-24T10:19:58.000Z</time>
      </trkpt>
      <trkpt lat="48.75909" lon="2.26131">
        <ele>192.49</ele>
        <time>2021-04-24T10:20:04.000Z</time>
      </trkpt>
      <trkpt lat="48.75911" lon="2.26117">
        <ele>192.97</ele>
        <time>2021-04-24T10:20:18.000Z</time>
      </trkpt>
      <trkpt lat="48.75912" lon="2.26104">
        <ele>193.18</ele>
        <time>2021-04-24T10:20:26.000Z</time>
      </trkpt>
      <trkpt lat="48.75909" lon="2.26091">
        <ele>193.52</ele>
        <time>2021-04-24T10:20:40.000Z</time>
      </trkpt>
      <trkpt lat="48.75903" lon="2.2608">
        <ele>193.69</ele>
        <time>2021-04-24T10:20:48.000Z</time>
      </trkpt>
      <trkpt lat="48.75898" lon="2.26068">
        <ele>193.85</ele>
        <time>2021-04-24T10:20:57.000Z</time>
      </trkpt>
      <trkpt lat="48.75889" lon="2.26061">
        <ele>193.97</ele>
        <time>2021-04-24T10:21:06.000Z</time>
      </trkpt>
      <trkpt lat="48.75881" lon="2.2605">
        <ele>194.05</ele>
        <time>2021-04-24T10:21:12.000Z</time>
      </trkpt>
      <trkpt lat="48.75873" lon="2.26046">
        <ele>194.19</ele>
        <time>2021-04-24T10:21:24.000Z</time>
      </trkpt>
      <trkpt lat="48.75865" lon="2.26037">
        <ele>194.26</ele>
        <time>2021-04-24T10:21:35.000Z</time>
      </trkpt>
      <trkpt lat="48.75863" lon="2.26024">
        <ele>194.33</ele>
        <time>2021-04-24T10:23:01.999Z</time>
      </trkpt>
      <trkpt lat="48.75859" lon="2.26012">
        <ele>194.59</ele>
        <time>2021-04-24T10:24:21.999Z</time>
      </trkpt>
      <trkpt lat="48.75854" lon="2.25999">
        <ele>194.74</ele>
        <time>2021-04-24T10:24:29.999Z</time>
      </trkpt>
      <trkpt lat="48.75847" lon="2.25988">
        <ele>194.88</ele>
        <time>2021-04-24T10:24:38.999Z</time>
      </trkpt>
      <trkpt lat="48.75837" lon="2.25983">
        <ele>194.98</ele>
        <time>2021-04-24T10:24:46.999Z</time>
      </trkpt>
      <trkpt lat="48.75833" lon="2.2597">
        <ele>195.07</ele>
        <time>2021-04-24T10:24:54.999Z</time>
      </trkpt>
      <trkpt lat="48.75829" lon="2.25957">
        <ele>195.14</ele>
        <time>2021-04-24T10:25:01.999Z</time>
      </trkpt>
      <trkpt lat="48.75824" lon="2.25945">
        <ele>195.25</ele>
        <time>2021-04-24T10:25:13.999Z</time>
      </trkpt>
      <trkpt lat="48.75816" lon="2.25935">
        <ele>195.29</ele>
        <time>2021-04-24T10:25:19.999Z</time>
      </trkpt>
      <trkpt lat="48.75811" lon="2.25924">
        <ele>195.34</ele>
        <time>2021-04-24T10:25:27.999Z</time>
      </trkpt>
      <trkpt lat="48.75807" lon="2.2591">
        <ele>195.37</ele>
        <time>2021-04-24T10:25:33.999Z</time>
      </trkpt>
      <trkpt lat="48.75799" lon="2.25901">
        <ele>195.4</ele>
        <time>2021-04-24T10:25:39.999Z</time>
      </trkpt>
      <trkpt lat="48.75795" lon="2.25888">
        <ele>195.44</ele>
        <time>2021-04-24T10:25:46.999Z</time>
      </trkpt>
      <trkpt lat="48.75798" lon="2.25874">
        <ele>195.47</ele>
        <time>2021-04-24T10:25:53.999Z</time>
      </trkpt>
      <trkpt lat="48.75796" lon="2.25861">
        <ele>195.5</ele>
        <time>2021-04-24T10:26:02.999Z</time>
      </trkpt>
      <trkpt lat="48.75791" lon="2.25848">
        <ele>195.52</ele>
        <time>2021-04-24T10:26:08.999Z</time>
      </trkpt>
      <trkpt lat="48.75786" lon="2.2583">
        <ele>195.55</ele>
        <time>2021-04-24T10:26:16.999Z</time>
      </trkpt>
      <trkpt lat="48.75782" lon="2.25817">
        <ele>195.56</ele>
        <time>2021-04-24T10:26:19.999Z</time>
      </trkpt>
      <trkpt lat="48.75778" lon="2.25805">
        <ele>195.59</ele>
        <time>2021-04-24T10:26:26.999Z</time>
      </trkpt>
      <trkpt lat="48.75772" lon="2.25794">
        <ele>195.63</ele>
        <time>2021-04-24T10:26:32.999Z</time>
      </trkpt>
      <trkpt lat="48.75768" lon="2.2578">
        <ele>195.67</ele>
        <time>2021-04-24T10:26:39.999Z</time>
      </trkpt>
      <trkpt lat="48.75766" lon="2.25767">
        <ele>195.75</ele>
        <time>2021-04-24T10:26:47.999Z</time>
      </trkpt>
      <trkpt lat="48.75768" lon="2.2575">
        <ele>195.95</ele>
        <time>2021-04-24T10:27:18.999Z</time>
      </trkpt>
      <trkpt lat="48.75764" lon="2.25738">
        <ele>196.1</ele>
        <time>2021-04-24T10:27:27.999Z</time>
      </trkpt>
      <trkpt lat="48.75757" lon="2.25727">
        <ele>196.31</ele>
        <time>2021-04-24T10:27:35.999Z</time>
      </trkpt>
      <trkpt lat="48.75751" lon="2.25712">
        <ele>196.59</ele>
        <time>2021-04-24T10:27:46.999Z</time>
      </trkpt>
      <trkpt lat="48.7575" lon="2.25698">
        <ele>196.8</ele>
        <time>2021-04-24T10:27:58.999Z</time>
      </trkpt>
      <trkpt lat="48.75745" lon="2.25686">
        <ele>196.89</ele>
        <time>2021-04-24T10:28:05.999Z</time>
      </trkpt>
      <trkpt lat="48.7574" lon="2.25673">
        <ele>196.95</ele>
        <time>2021-04-24T10:28:12.999Z</time>
      </trkpt>
      <trkpt lat="48.75739" lon="2.25656">
        <ele>197.05</ele>
        <time>2021-04-24T10:28:24.999Z</time>
      </trkpt>
      <trkpt lat="48.75744" lon="2.25644">
        <ele>197.09</ele>
        <time>2021-04-24T10:28:35.999Z</time>
      </trkpt>
      <trkpt lat="48.75751" lon="2.25634">
        <ele>197.09</ele>
        <time>2021-04-24T10:28:46.999Z</time>
      </trkpt>
      <trkpt lat="48.75756" lon="2.25622">
        <ele>197.06</ele>
        <time>2021-04-24T10:28:58.999Z</time>
      </trkpt>
      <trkpt lat="48.75761" lon="2.2561">
        <ele>196.99</ele>
        <time>2021-04-24T10:29:07.999Z</time>
      </trkpt>
      <trkpt lat="48.75762" lon="2.25595">
        <ele>196.88</ele>
        <time>2021-04-24T10:29:16.999Z</time>
      </trkpt>
      <trkpt lat="48.75762" lon="2.25581">
        <ele>196.76</ele>
        <time>2021-04-24T10:29:24.999Z</time>
      </trkpt>
      <trkpt lat="48.75764" lon="2.25566">
        <ele>196.61</ele>
        <time>2021-04-24T10:29:33.999Z</time>
      </trkpt>
      <trkpt lat="48.75765" lon="2.25552">
        <ele>196.37</ele>
        <time>2021-04-24T10:29:46.999Z</time>
      </trkpt>
      <trkpt lat="48.75769" lon="2.25539">
        <ele>196.3</ele>
        <time>2021-04-24T10:29:55.999Z</time>
      </trkpt>
      <trkpt lat="48.7576" lon="2.25534">
        <ele>196.66</ele>
        <time>2021-04-24T10:30:36.999Z</time>
      </trkpt>
      <trkpt lat="48.7575" lon="2.25532">
        <ele>196.68</ele>
        <time>2021-04-24T10:30:52.999Z</time>
      </trkpt>
      <trkpt lat="48.75744" lon="2.2552">
        <ele>196.74</ele>
        <time>2021-04-24T10:31:14.999Z</time>
      </trkpt>
      <trkpt lat="48.75736" lon="2.25509">
        <ele>197.03</ele>
        <time>2021-04-24T10:31:42.999Z</time>
      </trkpt>
      <trkpt lat="48.75728" lon="2.25513">
        <ele>197.22</ele>
        <time>2021-04-24T10:31:52.999Z</time>
      </trkpt>
      <trkpt lat="48.75718" lon="2.25512">
        <ele>197.7</ele>
        <time>2021-04-24T10:32:13.999Z</time>
      </trkpt>
      <trkpt lat="48.75725" lon="2.25504">
        <ele>198.49</ele>
        <time>2021-04-24T10:32:47.999Z</time>
      </trkpt>
      <trkpt lat="48.75732" lon="2.25513">
        <ele>211.92</ele>
        <time>2021-04-24T10:38:23.999Z</time>
      </trkpt>
      <trkpt lat="48.75727" lon="2.255">
        <ele>217.51</ele>
        <time>2021-04-24T10:45:29.000Z</time>
      </trkpt>
      <trkpt lat="48.75719" lon="2.25512">
        <ele>217.76</ele>
        <time>2021-04-24T10:45:57.000Z</time>
      </trkpt>
      <trkpt lat="48.75723" lon="2.25524">
        <ele>217.77</ele>
        <time>2021-04-24T10:46:23.000Z</time>
      </trkpt>
      <trkpt lat="48.7573" lon="2.25513">
        <ele>217.74</ele>
        <time>2021-04-24T10:47:17.000Z</time>
      </trkpt>
      <trkpt lat="48.75722" lon="2.25505">
        <ele>218.39</ele>
        <time>2021-04-24T10:49:08.000Z</time>
      </trkpt>
      <trkpt lat="48.75731" lon="2.25499">
        <ele>219.01</ele>
        <time>2021-04-24T10:50:17.000Z</time>
      </trkpt>
      <trkpt lat="48.75731" lon="2.25513">
        <ele>219.24</ele>
        <time>2021-04-24T10:51:09.000Z</time>
      </trkpt>
      <trkpt lat="48.75734" lon="2.25495">
        <ele>219.23</ele>
        <time>2021-04-24T10:51:24.000Z</time>
      </trkpt>
      <trkpt lat="48.75741" lon="2.25486">
        <ele>219.23</ele>
        <time>2021-04-24T10:51:26.000Z</time>
      </trkpt>
      <trkpt lat="48.7574" lon="2.25502">
        <ele>219.3</ele>
        <time>2021-04-24T10:51:51.000Z</time>
      </trkpt>
      <trkpt lat="48.75731" lon="2.25509">
        <ele>219.43</ele>
        <time>2021-04-24T10:52:21.000Z</time>
      </trkpt>
      <trkpt lat="48.75725" lon="2.25519">
        <ele>219.54</ele>
        <time>2021-04-24T10:52:38.000Z</time>
      </trkpt>
      <trkpt lat="48.75732" lon="2.25508">
        <ele>219.6</ele>
        <time>2021-04-24T10:53:30.000Z</time>
      </trkpt>
      <trkpt lat="48.75727" lon="2.25497">
        <ele>219.17</ele>
        <time>2021-04-24T10:55:29.000Z</time>
      </trkpt>
      <trkpt lat="48.75735" lon="2.25504">
        <ele>220.13</ele>
        <time>2021-04-24T11:06:51.999Z</time>
      </trkpt>
      <trkpt lat="48.75743" lon="2.25511">
        <ele>220.17</ele>
        <time>2021-04-24T11:06:58.999Z</time>
      </trkpt>
      <trkpt lat="48.75752" lon="2.25514">
        <ele>220.26</ele>
        <time>2021-04-24T11:07:26.999Z</time>
      </trkpt>
      <trkpt lat="48.75756" lon="2.25528">
        <ele>220.32</ele>
        <time>2021-04-24T11:07:42.999Z</time>
      </trkpt>
      <trkpt lat="48.75764" lon="2.25533">
        <ele>220.35</ele>
        <time>2021-04-24T11:07:54.999Z</time>
      </trkpt>
      <trkpt lat="48.75753" lon="2.25536">
        <ele>220.35</ele>
        <time>2021-04-24T11:08:16.999Z</time>
      </trkpt>
      <trkpt lat="48.75756" lon="2.25551">
        <ele>220.35</ele>
        <time>2021-04-24T11:08:37.999Z</time>
      </trkpt>
      <trkpt lat="48.75757" lon="2.25537">
        <ele>220.34</ele>
        <time>2021-04-24T11:09:31.999Z</time>
      </trkpt>
      <trkpt lat="48.75747" lon="2.25537">
        <ele>220.33</ele>
        <time>2021-04-24T11:10:27.999Z</time>
      </trkpt>
      <trkpt lat="48.75755" lon="2.25545">
        <ele>220.33</ele>
        <time>2021-04-24T11:10:32.999Z</time>
      </trkpt>
      <trkpt lat="48.75766" lon="2.25539">
        <ele>220.33</ele>
        <time>2021-04-24T11:10:35.999Z</time>
      </trkpt>
      <trkpt lat="48.75761" lon="2.25526">
        <ele>220.35</ele>
        <time>2021-04-24T11:10:55.999Z</time>
      </trkpt>
      <trkpt lat="48.75762" lon="2.25508">
        <ele>220.36</ele>
        <time>2021-04-24T11:11:12.999Z</time>
      </trkpt>
      <trkpt lat="48.75767" lon="2.25521">
        <ele>220.33</ele>
        <time>2021-04-24T11:11:30.999Z</time>
      </trkpt>
      <trkpt lat="48.75759" lon="2.25528">
        <ele>220.28</ele>
        <time>2021-04-24T11:11:45.999Z</time>
      </trkpt>
      <trkpt lat="48.75767" lon="2.25516">
        <ele>220.26</ele>
        <time>2021-04-24T11:11:53.999Z</time>
      </trkpt>
      <trkpt lat="48.75778" lon="2.25516">
        <ele>220.21</ele>
        <time>2021-04-24T11:12:06.999Z</time>
      </trkpt>
      <trkpt lat="48.75773" lon="2.25528">
        <ele>220.12</ele>
        <time>2021-04-24T11:12:28.999Z</time>
      </trkpt>
      <trkpt lat="48.75763" lon="2.25527">
        <ele>219.94</ele>
        <time>2021-04-24T11:13:27.999Z</time>
      </trkpt>
      <trkpt lat="48.75766" lon="2.25514">
        <ele>219.94</ele>
        <time>2021-04-24T11:13:58.999Z</time>
      </trkpt>
      <trkpt lat="48.7577" lon="2.25499">
        <ele>219.93</ele>
        <time>2021-04-24T11:14:17.999Z</time>
      </trkpt>
      <trkpt lat="48.75763" lon="2.25491">
        <ele>219.87</ele>
        <time>2021-04-24T11:14:35.999Z</time>
      </trkpt>
      <trkpt lat="48.75769" lon="2.25482">
        <ele>219.84</ele>
        <time>2021-04-24T11:14:40.999Z</time>
      </trkpt>
      <trkpt lat="48.75771" lon="2.25468">
        <ele>219.71</ele>
        <time>2021-04-24T11:14:57.999Z</time>
      </trkpt>
      <trkpt lat="48.75775" lon="2.25448">
        <ele>219.68</ele>
        <time>2021-04-24T11:15:01.999Z</time>
      </trkpt>
      <trkpt lat="48.75773" lon="2.25433">
        <ele>219.6</ele>
        <time>2021-04-24T11:15:09.999Z</time>
      </trkpt>
      <trkpt lat="48.75776" lon="2.25416">
        <ele>219.47</ele>
        <time>2021-04-24T11:15:22.999Z</time>
      </trkpt>
      <trkpt lat="48.75776" lon="2.254">
        <ele>219.41</ele>
        <time>2021-04-24T11:15:28.999Z</time>
      </trkpt>
      <trkpt lat="48.75778" lon="2.25384">
        <ele>219.31</ele>
        <time>2021-04-24T11:15:36.999Z</time>
      </trkpt>
      <trkpt lat="48.75781" lon="2.2537">
        <ele>219.17</ele>
        <time>2021-04-24T11:15:47.999Z</time>
      </trkpt>
      <trkpt lat="48.75784" lon="2.25355">
        <ele>219.12</ele>
        <time>2021-04-24T11:15:51.999Z</time>
      </trkpt>
      <trkpt lat="48.75789" lon="2.25341">
        <ele>218.97</ele>
        <time>2021-04-24T11:16:02.999Z</time>
      </trkpt>
      <trkpt lat="48.75792" lon="2.25326">
        <ele>218.85</ele>
        <time>2021-04-24T11:16:10.999Z</time>
      </trkpt>
      <trkpt lat="48.75797" lon="2.25315">
        <ele>218.76</ele>
        <time>2021-04-24T11:16:16.999Z</time>
      </trkpt>
      <trkpt lat="48.75801" lon="2.25301">
        <ele>218.62</ele>
        <time>2021-04-24T11:16:26.999Z</time>
      </trkpt>
      <trkpt lat="48.75804" lon="2.25288">
        <ele>218.5</ele>
        <time>2021-04-24T11:16:34.999Z</time>
      </trkpt>
      <trkpt lat="48.75804" lon="2.25272">
        <ele>218.4</ele>
        <time>2021-04-24T11:16:41.999Z</time>
      </trkpt>
      <trkpt lat="48.75797" lon="2.25261">
        <ele>218.29</ele>
        <time>2021-04-24T11:16:49.999Z</time>
      </trkpt>
      <trkpt lat="48.75799" lon="2.25247">
        <ele>218.18</ele>
        <time>2021-04-24T11:16:56.999Z</time>
      </trkpt>
      <trkpt lat="48.75802" lon="2.25233">
        <ele>217.97</ele>
        <time>2021-04-24T11:17:10.999Z</time>
      </trkpt>
      <trkpt lat="48.75802" lon="2.25219">
        <ele>217.89</ele>
        <time>2021-04-24T11:17:15.999Z</time>
      </trkpt>
      <trkpt lat="48.75796" lon="2.25208">
        <ele>217.74</ele>
        <time>2021-04-24T11:17:24.999Z</time>
      </trkpt>
      <trkpt lat="48.75799" lon="2.25194">
        <ele>217.5</ele>
        <time>2021-04-24T11:17:39.999Z</time>
      </trkpt>
      <trkpt lat="48.75798" lon="2.25179">
        <ele>217.44</ele>
        <time>2021-04-24T11:17:42.999Z</time>
      </trkpt>
      <trkpt lat="48.75803" lon="2.25164">
        <ele>217.38</ele>
        <time>2021-04-24T11:17:47.999Z</time>
      </trkpt>
      <trkpt lat="48.75811" lon="2.25156">
        <ele>217.3</ele>
        <time>2021-04-24T11:17:52.999Z</time>
      </trkpt>
      <trkpt lat="48.75821" lon="2.25155">
        <ele>217.13</ele>
        <time>2021-04-24T11:18:00.999Z</time>
      </trkpt>
      <trkpt lat="48.75826" lon="2.25143">
        <ele>216.89</ele>
        <time>2021-04-24T11:18:12.999Z</time>
      </trkpt>
      <trkpt lat="48.75837" lon="2.25139">
        <ele>216.69</ele>
        <time>2021-04-24T11:18:21.999Z</time>
      </trkpt>
      <trkpt lat="48.75827" lon="2.25132">
        <ele>216.59</ele>
        <time>2021-04-24T11:18:25.999Z</time>
      </trkpt>
      <trkpt lat="48.75835" lon="2.25124">
        <ele>216.32</ele>
        <time>2021-04-24T11:18:36.999Z</time>
      </trkpt>
      <trkpt lat="48.75837" lon="2.2511">
        <ele>216.17</ele>
        <time>2021-04-24T11:18:42.999Z</time>
      </trkpt>
      <trkpt lat="48.75828" lon="2.25117">
        <ele>216.1</ele>
        <time>2021-04-24T11:18:46.999Z</time>
      </trkpt>
      <trkpt lat="48.75836" lon="2.25098">
        <ele>215.95</ele>
        <time>2021-04-24T11:18:52.999Z</time>
      </trkpt>
      <trkpt lat="48.7584" lon="2.25086">
        <ele>215.85</ele>
        <time>2021-04-24T11:18:57.999Z</time>
      </trkpt>
      <trkpt lat="48.75852" lon="2.25082">
        <ele>215.75</ele>
        <time>2021-04-24T11:19:01.999Z</time>
      </trkpt>
      <trkpt lat="48.75849" lon="2.25068">
        <ele>215.65</ele>
        <time>2021-04-24T11:19:06.999Z</time>
      </trkpt>
      <trkpt lat="48.75843" lon="2.25052">
        <ele>215.29</ele>
        <time>2021-04-24T11:19:20.999Z</time>
      </trkpt>
      <trkpt lat="48.75847" lon="2.25038">
        <ele>215.07</ele>
        <time>2021-04-24T11:19:29.999Z</time>
      </trkpt>
      <trkpt lat="48.75842" lon="2.25025">
        <ele>214.92</ele>
        <time>2021-04-24T11:19:36.999Z</time>
      </trkpt>
      <trkpt lat="48.75844" lon="2.25007">
        <ele>214.82</ele>
        <time>2021-04-24T11:19:41.999Z</time>
      </trkpt>
      <trkpt lat="48.75851" lon="2.24995">
        <ele>214.46</ele>
        <time>2021-04-24T11:20:00.999Z</time>
      </trkpt>
      <trkpt lat="48.75855" lon="2.24981">
        <ele>214.23</ele>
        <time>2021-04-24T11:20:12.999Z</time>
      </trkpt>
      <trkpt lat="48.75856" lon="2.24963">
        <ele>213.97</ele>
        <time>2021-04-24T11:20:24.999Z</time>
      </trkpt>
      <trkpt lat="48.75854" lon="2.24949">
        <ele>213.85</ele>
        <time>2021-04-24T11:20:29.999Z</time>
      </trkpt>
      <trkpt lat="48.75855" lon="2.24935">
        <ele>213.74</ele>
        <time>2021-04-24T11:20:34.999Z</time>
      </trkpt>
      <trkpt lat="48.7586" lon="2.24924">
        <ele>213.65</ele>
        <time>2021-04-24T11:20:39.999Z</time>
      </trkpt>
      <trkpt lat="48.75864" lon="2.2491">
        <ele>213.47</ele>
        <time>2021-04-24T11:20:48.999Z</time>
      </trkpt>
      <trkpt lat="48.75872" lon="2.24902">
        <ele>213.14</ele>
        <time>2021-04-24T11:21:02.999Z</time>
      </trkpt>
      <trkpt lat="48.75875" lon="2.24888">
        <ele>212.83</ele>
        <time>2021-04-24T11:21:15.999Z</time>
      </trkpt>
      <trkpt lat="48.75873" lon="2.24873">
        <ele>212.62</ele>
        <time>2021-04-24T11:21:24.999Z</time>
      </trkpt>
      <trkpt lat="48.75872" lon="2.24858">
        <ele>212.55</ele>
        <time>2021-04-24T11:21:28.999Z</time>
      </trkpt>
      <trkpt lat="48.75879" lon="2.24847">
        <ele>212.28</ele>
        <time>2021-04-24T11:21:40.999Z</time>
      </trkpt>
      <trkpt lat="48.75883" lon="2.24832">
        <ele>212.14</ele>
        <time>2021-04-24T11:21:46.999Z</time>
      </trkpt>
      <trkpt lat="48.7589" lon="2.24821">
        <ele>211.94</ele>
        <time>2021-04-24T11:21:56.999Z</time>
      </trkpt>
      <trkpt lat="48.75899" lon="2.24809">
        <ele>211.72</ele>
        <time>2021-04-24T11:22:04.999Z</time>
      </trkpt>
      <trkpt lat="48.75888" lon="2.24803">
        <ele>211.37</ele>
        <time>2021-04-24T11:22:16.999Z</time>
      </trkpt>
      <trkpt lat="48.75885" lon="2.24789">
        <ele>211.1</ele>
        <time>2021-04-24T11:22:28.000Z</time>
      </trkpt>
      <trkpt lat="48.75882" lon="2.24774">
        <ele>210.95</ele>
        <time>2021-04-24T11:22:34.000Z</time>
      </trkpt>
      <trkpt lat="48.75884" lon="2.2476">
        <ele>210.86</ele>
        <time>2021-04-24T11:22:38.000Z</time>
      </trkpt>
      <trkpt lat="48.75884" lon="2.24742">
        <ele>210.63</ele>
        <time>2021-04-24T11:22:50.000Z</time>
      </trkpt>
      <trkpt lat="48.7589" lon="2.24728">
        <ele>210.43</ele>
        <time>2021-04-24T11:23:00.000Z</time>
      </trkpt>
      <trkpt lat="48.75898" lon="2.24718">
        <ele>210.26</ele>
        <time>2021-04-24T11:23:08.000Z</time>
      </trkpt>
      <trkpt lat="48.759" lon="2.24703">
        <ele>210.09</ele>
        <time>2021-04-24T11:23:16.000Z</time>
      </trkpt>
      <trkpt lat="48.759" lon="2.24687">
        <ele>209.94</ele>
        <time>2021-04-24T11:23:24.000Z</time>
      </trkpt>
      <trkpt lat="48.759" lon="2.24672">
        <ele>209.77</ele>
        <time>2021-04-24T11:23:33.000Z</time>
      </trkpt>
      <trkpt lat="48.75907" lon="2.24662">
        <ele>209.56</ele>
        <time>2021-04-24T11:23:44.000Z</time>
      </trkpt>
      <trkpt lat="48.75916" lon="2.24653">
        <ele>209.47</ele>
        <time>2021-04-24T11:23:48.000Z</time>
      </trkpt>
      <trkpt lat="48.75921" lon="2.24639">
        <ele>209.21</ele>
        <time>2021-04-24T11:24:00.000Z</time>
      </trkpt>
      <trkpt lat="48.75921" lon="2.24626">
        <ele>209.13</ele>
        <time>2021-04-24T11:24:04.000Z</time>
      </trkpt>
      <trkpt lat="48.75916" lon="2.24615">
        <ele>208.97</ele>
        <time>2021-04-24T11:24:12.000Z</time>
      </trkpt>
      <trkpt lat="48.75916" lon="2.24601">
        <ele>208.78</ele>
        <time>2021-04-24T11:24:20.000Z</time>
      </trkpt>
      <trkpt lat="48.75924" lon="2.24593">
        <ele>208.6</ele>
        <time>2021-04-24T11:24:26.000Z</time>
      </trkpt>
      <trkpt lat="48.75919" lon="2.24578">
        <ele>208.41</ele>
        <time>2021-04-24T11:24:31.000Z</time>
      </trkpt>
      <trkpt lat="48.75923" lon="2.24565">
        <ele>208.06</ele>
        <time>2021-04-24T11:24:41.000Z</time>
      </trkpt>
      <trkpt lat="48.75931" lon="2.24557">
        <ele>207.71</ele>
        <time>2021-04-24T11:24:51.000Z</time>
      </trkpt>
      <trkpt lat="48.75924" lon="2.24548">
        <ele>207.33</ele>
        <time>2021-04-24T11:25:04.000Z</time>
      </trkpt>
      <trkpt lat="48.75927" lon="2.24534">
        <ele>207.18</ele>
        <time>2021-04-24T11:25:09.000Z</time>
      </trkpt>
      <trkpt lat="48.75928" lon="2.24517">
        <ele>207.03</ele>
        <time>2021-04-24T11:25:14.000Z</time>
      </trkpt>
      <trkpt lat="48.75931" lon="2.24504">
        <ele>206.68</ele>
        <time>2021-04-24T11:25:25.000Z</time>
      </trkpt>
      <trkpt lat="48.75935" lon="2.24489">
        <ele>206.41</ele>
        <time>2021-04-24T11:25:32.000Z</time>
      </trkpt>
      <trkpt lat="48.75942" lon="2.2448">
        <ele>206.01</ele>
        <time>2021-04-24T11:25:39.000Z</time>
      </trkpt>
      <trkpt lat="48.75941" lon="2.24466">
        <ele>205.62</ele>
        <time>2021-04-24T11:25:46.000Z</time>
      </trkpt>
      <trkpt lat="48.75937" lon="2.24453">
        <ele>205.28</ele>
        <time>2021-04-24T11:25:51.000Z</time>
      </trkpt>
      <trkpt lat="48.75932" lon="2.24442">
        <ele>204.89</ele>
        <time>2021-04-24T11:25:57.000Z</time>
      </trkpt>
      <trkpt lat="48.75938" lon="2.24431">
        <ele>204.58</ele>
        <time>2021-04-24T11:26:02.000Z</time>
      </trkpt>
      <trkpt lat="48.75942" lon="2.24417">
        <ele>203.75</ele>
        <time>2021-04-24T11:26:16.000Z</time>
      </trkpt>
      <trkpt lat="48.75953" lon="2.24413">
        <ele>203.22</ele>
        <time>2021-04-24T11:26:27.000Z</time>
      </trkpt>
      <trkpt lat="48.75962" lon="2.24415">
        <ele>202.84</ele>
        <time>2021-04-24T11:26:32.000Z</time>
      </trkpt>
      <trkpt lat="48.75971" lon="2.24417">
        <ele>202.46</ele>
        <time>2021-04-24T11:26:37.000Z</time>
      </trkpt>
      <trkpt lat="48.7598" lon="2.24414">
        <ele>201.67</ele>
        <time>2021-04-24T11:26:50.000Z</time>
      </trkpt>
      <trkpt lat="48.75989" lon="2.24418">
        <ele>200.17</ele>
        <time>2021-04-24T11:27:21.000Z</time>
      </trkpt>
      <trkpt lat="48.75999" lon="2.2441">
        <ele>199.7</ele>
        <time>2021-04-24T11:27:31.000Z</time>
      </trkpt>
      <trkpt lat="48.76009" lon="2.24411">
        <ele>198.97</ele>
        <time>2021-04-24T11:27:41.000Z</time>
      </trkpt>
      <trkpt lat="48.76018" lon="2.24408">
        <ele>198.66</ele>
        <time>2021-04-24T11:27:45.000Z</time>
      </trkpt>
      <trkpt lat="48.76026" lon="2.24428">
        <ele>198.33</ele>
        <time>2021-04-24T11:27:50.000Z</time>
      </trkpt>
      <trkpt lat="48.76021" lon="2.24443">
        <ele>198.18</ele>
        <time>2021-04-24T11:27:52.000Z</time>
      </trkpt>
      <trkpt lat="48.76026" lon="2.2443">
        <ele>198.02</ele>
        <time>2021-04-24T11:27:54.000Z</time>
      </trkpt>
      <trkpt lat="48.76035" lon="2.24427">
        <ele>197.58</ele>
        <time>2021-04-24T11:28:00.000Z</time>
      </trkpt>
      <trkpt lat="48.76044" lon="2.24428">
        <ele>197.05</ele>
        <time>2021-04-24T11:28:08.000Z</time>
      </trkpt>
      <trkpt lat="48.76052" lon="2.24436">
        <ele>196.67</ele>
        <time>2021-04-24T11:28:13.000Z</time>
      </trkpt>
      <trkpt lat="48.76059" lon="2.24427">
        <ele>196.01</ele>
        <time>2021-04-24T11:28:23.000Z</time>
      </trkpt>
      <trkpt lat="48.76065" lon="2.24441">
        <ele>195.62</ele>
        <time>2021-04-24T11:28:28.000Z</time>
      </trkpt>
      <trkpt lat="48.76072" lon="2.24433">
        <ele>195.11</ele>
        <time>2021-04-24T11:28:35.000Z</time>
      </trkpt>
      <trkpt lat="48.76082" lon="2.2444">
        <ele>194.1</ele>
        <time>2021-04-24T11:28:45.000Z</time>
      </trkpt>
      <trkpt lat="48.76085" lon="2.24454">
        <ele>193.15</ele>
        <time>2021-04-24T11:28:56.000Z</time>
      </trkpt>
      <trkpt lat="48.76093" lon="2.24444">
        <ele>192.55</ele>
        <time>2021-04-24T11:29:02.000Z</time>
      </trkpt>
      <trkpt lat="48.76102" lon="2.24445">
        <ele>191.71</ele>
        <time>2021-04-24T11:29:11.000Z</time>
      </trkpt>
      <trkpt lat="48.76112" lon="2.24452">
        <ele>191.26</ele>
        <time>2021-04-24T11:29:16.000Z</time>
      </trkpt>
      <trkpt lat="48.76116" lon="2.24465">
        <ele>190.59</ele>
        <time>2021-04-24T11:29:22.000Z</time>
      </trkpt>
      <trkpt lat="48.76124" lon="2.24456">
        <ele>189.8</ele>
        <time>2021-04-24T11:29:30.000Z</time>
      </trkpt>
      <trkpt lat="48.76132" lon="2.24463">
        <ele>189.32</ele>
        <time>2021-04-24T11:29:35.000Z</time>
      </trkpt>
      <trkpt lat="48.76142" lon="2.24469">
        <ele>188.89</ele>
        <time>2021-04-24T11:29:40.000Z</time>
      </trkpt>
      <trkpt lat="48.7615" lon="2.24476">
        <ele>187.72</ele>
        <time>2021-04-24T11:29:53.000Z</time>
      </trkpt>
      <trkpt lat="48.76159" lon="2.24479">
        <ele>186.89</ele>
        <time>2021-04-24T11:30:00.000Z</time>
      </trkpt>
      <trkpt lat="48.76168" lon="2.24477">
        <ele>185.36</ele>
        <time>2021-04-24T11:30:12.000Z</time>
      </trkpt>
      <trkpt lat="48.76179" lon="2.2448">
        <ele>184.74</ele>
        <time>2021-04-24T11:30:16.000Z</time>
      </trkpt>
      <trkpt lat="48.76189" lon="2.24484">
        <ele>183.7</ele>
        <time>2021-04-24T11:30:22.000Z</time>
      </trkpt>
      <trkpt lat="48.76199" lon="2.24492">
        <ele>180.13</ele>
        <time>2021-04-24T11:30:42.000Z</time>
      </trkpt>
      <trkpt lat="48.76209" lon="2.2449">
        <ele>179.42</ele>
        <time>2021-04-24T11:30:46.000Z</time>
      </trkpt>
      <trkpt lat="48.76217" lon="2.24499">
        <ele>176.59</ele>
        <time>2021-04-24T11:31:00.000Z</time>
      </trkpt>
      <trkpt lat="48.76226" lon="2.24508">
        <ele>174.49</ele>
        <time>2021-04-24T11:31:13.000Z</time>
      </trkpt>
      <trkpt lat="48.76237" lon="2.24507">
        <ele>172.32</ele>
        <time>2021-04-24T11:31:24.000Z</time>
      </trkpt>
      <trkpt lat="48.76246" lon="2.24502">
        <ele>171</ele>
        <time>2021-04-24T11:31:29.000Z</time>
      </trkpt>
      <trkpt lat="48.76255" lon="2.24517">
        <ele>169.62</ele>
        <time>2021-04-24T11:31:35.000Z</time>
      </trkpt>
      <trkpt lat="48.76254" lon="2.24535">
        <ele>169.05</ele>
        <time>2021-04-24T11:31:38.000Z</time>
      </trkpt>
      <trkpt lat="48.76262" lon="2.24543">
        <ele>167.21</ele>
        <time>2021-04-24T11:31:49.000Z</time>
      </trkpt>
      <trkpt lat="48.76264" lon="2.24558">
        <ele>166.01</ele>
        <time>2021-04-24T11:31:58.000Z</time>
      </trkpt>
      <trkpt lat="48.76262" lon="2.24578">
        <ele>165.61</ele>
        <time>2021-04-24T11:32:06.000Z</time>
      </trkpt>
      <trkpt lat="48.76253" lon="2.24591">
        <ele>165.68</ele>
        <time>2021-04-24T11:32:11.000Z</time>
      </trkpt>
      <trkpt lat="48.76254" lon="2.24607">
        <ele>165.96</ele>
        <time>2021-04-24T11:32:24.000Z</time>
      </trkpt>
      <trkpt lat="48.76263" lon="2.24606">
        <ele>165.9</ele>
        <time>2021-04-24T11:32:29.000Z</time>
      </trkpt>
      <trkpt lat="48.76268" lon="2.24618">
        <ele>165.86</ele>
        <time>2021-04-24T11:32:33.000Z</time>
      </trkpt>
      <trkpt lat="48.76276" lon="2.24626">
        <ele>165.5</ele>
        <time>2021-04-24T11:32:42.000Z</time>
      </trkpt>
      <trkpt lat="48.76284" lon="2.24635">
        <ele>165.71</ele>
        <time>2021-04-24T11:32:50.000Z</time>
      </trkpt>
      <trkpt lat="48.76282" lon="2.24649">
        <ele>166.67</ele>
        <time>2021-04-24T11:32:58.000Z</time>
      </trkpt>
      <trkpt lat="48.76279" lon="2.24662">
        <ele>167.31</ele>
        <time>2021-04-24T11:33:03.000Z</time>
      </trkpt>
      <trkpt lat="48.76277" lon="2.24679">
        <ele>168.51</ele>
        <time>2021-04-24T11:33:12.000Z</time>
      </trkpt>
      <trkpt lat="48.76284" lon="2.24689">
        <ele>169.77</ele>
        <time>2021-04-24T11:33:21.000Z</time>
      </trkpt>
      <trkpt lat="48.76292" lon="2.24695">
        <ele>170.66</ele>
        <time>2021-04-24T11:33:28.000Z</time>
      </trkpt>
      <trkpt lat="48.76296" lon="2.24708">
        <ele>172.06</ele>
        <time>2021-04-24T11:33:36.000Z</time>
      </trkpt>
      <trkpt lat="48.76298" lon="2.24723">
        <ele>174.07</ele>
        <time>2021-04-24T11:33:45.000Z</time>
      </trkpt>
      <trkpt lat="48.76305" lon="2.24736">
        <ele>176.5</ele>
        <time>2021-04-24T11:33:55.000Z</time>
      </trkpt>
      <trkpt lat="48.76312" lon="2.24748">
        <ele>178.34</ele>
        <time>2021-04-24T11:34:04.000Z</time>
      </trkpt>
      <trkpt lat="48.76314" lon="2.24764">
        <ele>179.68</ele>
        <time>2021-04-24T11:34:10.000Z</time>
      </trkpt>
      <trkpt lat="48.76324" lon="2.24774">
        <ele>182.14</ele>
        <time>2021-04-24T11:34:22.000Z</time>
      </trkpt>
      <trkpt lat="48.76325" lon="2.2479">
        <ele>183.32</ele>
        <time>2021-04-24T11:34:28.000Z</time>
      </trkpt>
      <trkpt lat="48.76332" lon="2.24801">
        <ele>184.78</ele>
        <time>2021-04-24T11:34:36.000Z</time>
      </trkpt>
      <trkpt lat="48.76333" lon="2.24816">
        <ele>185.49</ele>
        <time>2021-04-24T11:34:40.000Z</time>
      </trkpt>
      <trkpt lat="48.76338" lon="2.24827">
        <ele>187.1</ele>
        <time>2021-04-24T11:34:49.000Z</time>
      </trkpt>
      <trkpt lat="48.76343" lon="2.24839">
        <ele>188.68</ele>
        <time>2021-04-24T11:34:58.000Z</time>
      </trkpt>
      <trkpt lat="48.76351" lon="2.24846">
        <ele>190.59</ele>
        <time>2021-04-24T11:35:10.000Z</time>
      </trkpt>
      <trkpt lat="48.76351" lon="2.24861">
        <ele>193.22</ele>
        <time>2021-04-24T11:35:36.000Z</time>
      </trkpt>
      <trkpt lat="48.76353" lon="2.24876">
        <ele>194.18</ele>
        <time>2021-04-24T11:35:50.000Z</time>
      </trkpt>
      <trkpt lat="48.76357" lon="2.24888">
        <ele>194.74</ele>
        <time>2021-04-24T11:36:07.000Z</time>
      </trkpt>
      <trkpt lat="48.7635" lon="2.249">
        <ele>196.19</ele>
        <time>2021-04-24T11:36:32.000Z</time>
      </trkpt>
      <trkpt lat="48.7635" lon="2.24913">
        <ele>196.57</ele>
        <time>2021-04-24T11:36:38.000Z</time>
      </trkpt>
      <trkpt lat="48.76345" lon="2.24929">
        <ele>197.05</ele>
        <time>2021-04-24T11:36:46.000Z</time>
      </trkpt>
      <trkpt lat="48.76351" lon="2.2494">
        <ele>197.51</ele>
        <time>2021-04-24T11:36:54.000Z</time>
      </trkpt>
      <trkpt lat="48.76345" lon="2.24951">
        <ele>198.16</ele>
        <time>2021-04-24T11:37:06.000Z</time>
      </trkpt>
      <trkpt lat="48.76343" lon="2.24969">
        <ele>198.39</ele>
        <time>2021-04-24T11:37:11.000Z</time>
      </trkpt>
      <trkpt lat="48.76343" lon="2.24985">
        <ele>198.65</ele>
        <time>2021-04-24T11:37:19.000Z</time>
      </trkpt>
      <trkpt lat="48.76344" lon="2.25">
        <ele>198.88</ele>
        <time>2021-04-24T11:37:29.000Z</time>
      </trkpt>
      <trkpt lat="48.76342" lon="2.25014">
        <ele>199.13</ele>
        <time>2021-04-24T11:37:45.000Z</time>
      </trkpt>
      <trkpt lat="48.7634" lon="2.25029">
        <ele>199.25</ele>
        <time>2021-04-24T11:37:56.000Z</time>
      </trkpt>
      <trkpt lat="48.76338" lon="2.25043">
        <ele>199.3</ele>
        <time>2021-04-24T11:38:02.000Z</time>
      </trkpt>
      <trkpt lat="48.76342" lon="2.25057">
        <ele>199.4</ele>
        <time>2021-04-24T11:38:29.000Z</time>
      </trkpt>
      <trkpt lat="48.76345" lon="2.2507">
        <ele>199.36</ele>
        <time>2021-04-24T11:38:38.000Z</time>
      </trkpt>
      <trkpt lat="48.7635" lon="2.25083">
        <ele>199.2</ele>
        <time>2021-04-24T11:38:48.000Z</time>
      </trkpt>
      <trkpt lat="48.76355" lon="2.25095">
        <ele>199.02</ele>
        <time>2021-04-24T11:38:58.000Z</time>
      </trkpt>
      <trkpt lat="48.7636" lon="2.25106">
        <ele>198.76</ele>
        <time>2021-04-24T11:39:12.000Z</time>
      </trkpt>
      <trkpt lat="48.76355" lon="2.25117">
        <ele>198.44</ele>
        <time>2021-04-24T11:39:28.000Z</time>
      </trkpt>
      <trkpt lat="48.76346" lon="2.25124">
        <ele>198.33</ele>
        <time>2021-04-24T11:39:41.000Z</time>
      </trkpt>
      <trkpt lat="48.7634" lon="2.25134">
        <ele>198.36</ele>
        <time>2021-04-24T11:39:54.000Z</time>
      </trkpt>
      <trkpt lat="48.76334" lon="2.25144">
        <ele>198.43</ele>
        <time>2021-04-24T11:40:04.000Z</time>
      </trkpt>
      <trkpt lat="48.76329" lon="2.25155">
        <ele>198.57</ele>
        <time>2021-04-24T11:40:13.000Z</time>
      </trkpt>
      <trkpt lat="48.76321" lon="2.25165">
        <ele>198.69</ele>
        <time>2021-04-24T11:40:21.000Z</time>
      </trkpt>
      <trkpt lat="48.76313" lon="2.25175">
        <ele>198.84</ele>
        <time>2021-04-24T11:40:30.000Z</time>
      </trkpt>
      <trkpt lat="48.76307" lon="2.25186">
        <ele>199.04</ele>
        <time>2021-04-24T11:40:39.000Z</time>
      </trkpt>
      <trkpt lat="48.76299" lon="2.25194">
        <ele>199.28</ele>
        <time>2021-04-24T11:40:48.000Z</time>
      </trkpt>
      <trkpt lat="48.76294" lon="2.25207">
        <ele>199.59</ele>
        <time>2021-04-24T11:40:58.000Z</time>
      </trkpt>
      <trkpt lat="48.76286" lon="2.25212">
        <ele>199.86</ele>
        <time>2021-04-24T11:41:07.000Z</time>
      </trkpt>
      <trkpt lat="48.76279" lon="2.25222">
        <ele>200.18</ele>
        <time>2021-04-24T11:41:16.000Z</time>
      </trkpt>
      <trkpt lat="48.76273" lon="2.25233">
        <ele>200.44</ele>
        <time>2021-04-24T11:41:24.000Z</time>
      </trkpt>
      <trkpt lat="48.76268" lon="2.25245">
        <ele>200.76</ele>
        <time>2021-04-24T11:41:34.000Z</time>
      </trkpt>
      <trkpt lat="48.76263" lon="2.25257">
        <ele>201.01</ele>
        <time>2021-04-24T11:41:41.000Z</time>
      </trkpt>
      <trkpt lat="48.76258" lon="2.25268">
        <ele>201.3</ele>
        <time>2021-04-24T11:41:49.000Z</time>
      </trkpt>
      <trkpt lat="48.7625" lon="2.25275">
        <ele>201.55</ele>
        <time>2021-04-24T11:41:56.000Z</time>
      </trkpt>
      <trkpt lat="48.76242" lon="2.25282">
        <ele>201.99</ele>
        <time>2021-04-24T11:42:08.000Z</time>
      </trkpt>
      <trkpt lat="48.76234" lon="2.2529">
        <ele>202.46</ele>
        <time>2021-04-24T11:42:23.000Z</time>
      </trkpt>
      <trkpt lat="48.76229" lon="2.25302">
        <ele>202.78</ele>
        <time>2021-04-24T11:42:38.999Z</time>
      </trkpt>
      <trkpt lat="48.76232" lon="2.25316">
        <ele>202.9</ele>
        <time>2021-04-24T11:42:44.999Z</time>
      </trkpt>
      <trkpt lat="48.76238" lon="2.25328">
        <ele>203.03</ele>
        <time>2021-04-24T11:42:53.999Z</time>
      </trkpt>
      <trkpt lat="48.76243" lon="2.25339">
        <ele>203.12</ele>
        <time>2021-04-24T11:43:00.999Z</time>
      </trkpt>
      <trkpt lat="48.76248" lon="2.25352">
        <ele>203.19</ele>
        <time>2021-04-24T11:43:07.999Z</time>
      </trkpt>
      <trkpt lat="48.76255" lon="2.25363">
        <ele>203.28</ele>
        <time>2021-04-24T11:43:18.999Z</time>
      </trkpt>
      <trkpt lat="48.76264" lon="2.25368">
        <ele>203.34</ele>
        <time>2021-04-24T11:43:28.999Z</time>
      </trkpt>
      <trkpt lat="48.76273" lon="2.25368">
        <ele>203.34</ele>
        <time>2021-04-24T11:43:36.999Z</time>
      </trkpt>
      <trkpt lat="48.76282" lon="2.25369">
        <ele>203.33</ele>
        <time>2021-04-24T11:43:42.999Z</time>
      </trkpt>
      <trkpt lat="48.76292" lon="2.25367">
        <ele>203.3</ele>
        <time>2021-04-24T11:43:51.999Z</time>
      </trkpt>
      <trkpt lat="48.763" lon="2.25375">
        <ele>203.26</ele>
        <time>2021-04-24T11:44:05.999Z</time>
      </trkpt>
      <trkpt lat="48.76309" lon="2.25382">
        <ele>203.22</ele>
        <time>2021-04-24T11:44:16.999Z</time>
      </trkpt>
      <trkpt lat="48.76317" lon="2.2539">
        <ele>203.19</ele>
        <time>2021-04-24T11:44:26.999Z</time>
      </trkpt>
      <trkpt lat="48.76326" lon="2.25396">
        <ele>203.14</ele>
        <time>2021-04-24T11:44:37.999Z</time>
      </trkpt>
      <trkpt lat="48.76335" lon="2.254">
        <ele>203.09</ele>
        <time>2021-04-24T11:44:49.999Z</time>
      </trkpt>
      <trkpt lat="48.76339" lon="2.25415">
        <ele>203.05</ele>
        <time>2021-04-24T11:44:57.999Z</time>
      </trkpt>
      <trkpt lat="48.76341" lon="2.25428">
        <ele>203.02</ele>
        <time>2021-04-24T11:45:05.999Z</time>
      </trkpt>
      <trkpt lat="48.76349" lon="2.25437">
        <ele>202.95</ele>
        <time>2021-04-24T11:45:19.999Z</time>
      </trkpt>
      <trkpt lat="48.76351" lon="2.25451">
        <ele>202.87</ele>
        <time>2021-04-24T11:45:39.999Z</time>
      </trkpt>
      <trkpt lat="48.7635" lon="2.25466">
        <ele>202.81</ele>
        <time>2021-04-24T11:45:56.999Z</time>
      </trkpt>
      <trkpt lat="48.76351" lon="2.25479">
        <ele>202.78</ele>
        <time>2021-04-24T11:46:03.999Z</time>
      </trkpt>
      <trkpt lat="48.76351" lon="2.25493">
        <ele>202.75</ele>
        <time>2021-04-24T11:46:12.999Z</time>
      </trkpt>
      <trkpt lat="48.76351" lon="2.25508">
        <ele>202.75</ele>
        <time>2021-04-24T11:46:22.999Z</time>
      </trkpt>
      <trkpt lat="48.76354" lon="2.25521">
        <ele>202.75</ele>
        <time>2021-04-24T11:46:32.999Z</time>
      </trkpt>
      <trkpt lat="48.76358" lon="2.25534">
        <ele>202.78</ele>
        <time>2021-04-24T11:46:41.999Z</time>
      </trkpt>
      <trkpt lat="48.76362" lon="2.25548">
        <ele>202.82</ele>
        <time>2021-04-24T11:46:51.999Z</time>
      </trkpt>
      <trkpt lat="48.76367" lon="2.25559">
        <ele>202.88</ele>
        <time>2021-04-24T11:46:59.999Z</time>
      </trkpt>
      <trkpt lat="48.7637" lon="2.25574">
        <ele>202.97</ele>
        <time>2021-04-24T11:47:10.999Z</time>
      </trkpt>
      <trkpt lat="48.76371" lon="2.25587">
        <ele>203.07</ele>
        <time>2021-04-24T11:47:20.999Z</time>
      </trkpt>
      <trkpt lat="48.76377" lon="2.25599">
        <ele>203.2</ele>
        <time>2021-04-24T11:47:35.999Z</time>
      </trkpt>
      <trkpt lat="48.76384" lon="2.25614">
        <ele>203.26</ele>
        <time>2021-04-24T11:47:47.999Z</time>
      </trkpt>
      <trkpt lat="48.7639" lon="2.25625">
        <ele>203.29</ele>
        <time>2021-04-24T11:47:58.999Z</time>
      </trkpt>
      <trkpt lat="48.76398" lon="2.2563">
        <ele>203.25</ele>
        <time>2021-04-24T11:48:14.999Z</time>
      </trkpt>
      <trkpt lat="48.76406" lon="2.25622">
        <ele>203.21</ele>
        <time>2021-04-24T11:48:22.999Z</time>
      </trkpt>
      <trkpt lat="48.76411" lon="2.2561">
        <ele>203.17</ele>
        <time>2021-04-24T11:48:33.999Z</time>
      </trkpt>
      <trkpt lat="48.7642" lon="2.25615">
        <ele>203.12</ele>
        <time>2021-04-24T11:48:53.999Z</time>
      </trkpt>
      <trkpt lat="48.76427" lon="2.25625">
        <ele>203.1</ele>
        <time>2021-04-24T11:49:03.999Z</time>
      </trkpt>
      <trkpt lat="48.76435" lon="2.25631">
        <ele>203.09</ele>
        <time>2021-04-24T11:49:12.999Z</time>
      </trkpt>
      <trkpt lat="48.76441" lon="2.25643">
        <ele>203.07</ele>
        <time>2021-04-24T11:49:25.999Z</time>
      </trkpt>
      <trkpt lat="48.76443" lon="2.25656">
        <ele>203.04</ele>
        <time>2021-04-24T11:49:34.999Z</time>
      </trkpt>
      <trkpt lat="48.76448" lon="2.25667">
        <ele>203.01</ele>
        <time>2021-04-24T11:49:46.999Z</time>
      </trkpt>
      <trkpt lat="48.76453" lon="2.2568">
        <ele>202.97</ele>
        <time>2021-04-24T11:49:59.999Z</time>
      </trkpt>
      <trkpt lat="48.76456" lon="2.25693">
        <ele>202.96</ele>
        <time>2021-04-24T11:50:09.999Z</time>
      </trkpt>
      <trkpt lat="48.76462" lon="2.25704">
        <ele>202.96</ele>
        <time>2021-04-24T11:50:20.999Z</time>
      </trkpt>
      <trkpt lat="48.76469" lon="2.25715">
        <ele>202.93</ele>
        <time>2021-04-24T11:50:29.999Z</time>
      </trkpt>
      <trkpt lat="48.76471" lon="2.25728">
        <ele>202.88</ele>
        <time>2021-04-24T11:50:39.999Z</time>
      </trkpt>
      <trkpt lat="48.76476" lon="2.25742">
        <ele>202.72</ele>
        <time>2021-04-24T11:50:59.999Z</time>
      </trkpt>
      <trkpt lat="48.76483" lon="2.25754">
        <ele>202.63</ele>
        <time>2021-04-24T11:51:08.999Z</time>
      </trkpt>
      <trkpt lat="48.76488" lon="2.25766">
        <ele>202.56</ele>
        <time>2021-04-24T11:51:14.999Z</time>
      </trkpt>
      <trkpt lat="48.76491" lon="2.25781">
        <ele>202.42</ele>
        <time>2021-04-24T11:51:24.999Z</time>
      </trkpt>
      <trkpt lat="48.76489" lon="2.25794">
        <ele>202.32</ele>
        <time>2021-04-24T11:51:32.999Z</time>
      </trkpt>
      <trkpt lat="48.76486" lon="2.25808">
        <ele>202.23</ele>
        <time>2021-04-24T11:51:42.999Z</time>
      </trkpt>
      <trkpt lat="48.76482" lon="2.2582">
        <ele>202.16</ele>
        <time>2021-04-24T11:51:51.999Z</time>
      </trkpt>
      <trkpt lat="48.76479" lon="2.25834">
        <ele>202.11</ele>
        <time>2021-04-24T11:52:00.999Z</time>
      </trkpt>
      <trkpt lat="48.76485" lon="2.25846">
        <ele>202.07</ele>
        <time>2021-04-24T11:52:06.999Z</time>
      </trkpt>
      <trkpt lat="48.76494" lon="2.25837">
        <ele>202</ele>
        <time>2021-04-24T11:52:16.999Z</time>
      </trkpt>
      <trkpt lat="48.76503" lon="2.25836">
        <ele>201.84</ele>
        <time>2021-04-24T11:52:30.999Z</time>
      </trkpt>
      <trkpt lat="48.76514" lon="2.25837">
        <ele>201.74</ele>
        <time>2021-04-24T11:52:38.999Z</time>
      </trkpt>
      <trkpt lat="48.76523" lon="2.25835">
        <ele>201.68</ele>
        <time>2021-04-24T11:52:42.999Z</time>
      </trkpt>
      <trkpt lat="48.76533" lon="2.25838">
        <ele>201.49</ele>
        <time>2021-04-24T11:52:54.999Z</time>
      </trkpt>
      <trkpt lat="48.76544" lon="2.25838">
        <ele>201.18</ele>
        <time>2021-04-24T11:53:13.999Z</time>
      </trkpt>
      <trkpt lat="48.76553" lon="2.25839">
        <ele>201.11</ele>
        <time>2021-04-24T11:53:17.999Z</time>
      </trkpt>
      <trkpt lat="48.76562" lon="2.25845">
        <ele>201.01</ele>
        <time>2021-04-24T11:53:23.999Z</time>
      </trkpt>
      <trkpt lat="48.76563" lon="2.2586">
        <ele>200.9</ele>
        <time>2021-04-24T11:53:32.999Z</time>
      </trkpt>
      <trkpt lat="48.76559" lon="2.25873">
        <ele>200.83</ele>
        <time>2021-04-24T11:53:41.999Z</time>
      </trkpt>
      <trkpt lat="48.76555" lon="2.25887">
        <ele>200.8</ele>
        <time>2021-04-24T11:53:50.999Z</time>
      </trkpt>
      <trkpt lat="48.76553" lon="2.25901">
        <ele>200.78</ele>
        <time>2021-04-24T11:53:57.999Z</time>
      </trkpt>
      <trkpt lat="48.76553" lon="2.25917">
        <ele>200.77</ele>
        <time>2021-04-24T11:54:07.999Z</time>
      </trkpt>
      <trkpt lat="48.76551" lon="2.25931">
        <ele>200.81</ele>
        <time>2021-04-24T11:54:15.999Z</time>
      </trkpt>
      <trkpt lat="48.76548" lon="2.25945">
        <ele>200.89</ele>
        <time>2021-04-24T11:54:25.999Z</time>
      </trkpt>
      <trkpt lat="48.76548" lon="2.2596">
        <ele>200.96</ele>
        <time>2021-04-24T11:54:33.999Z</time>
      </trkpt>
      <trkpt lat="48.76544" lon="2.25972">
        <ele>201.02</ele>
        <time>2021-04-24T11:54:41.999Z</time>
      </trkpt>
      <trkpt lat="48.76542" lon="2.25986">
        <ele>201.07</ele>
        <time>2021-04-24T11:54:50.999Z</time>
      </trkpt>
      <trkpt lat="48.7654" lon="2.26">
        <ele>201.1</ele>
        <time>2021-04-24T11:55:00.999Z</time>
      </trkpt>
      <trkpt lat="48.76537" lon="2.26013">
        <ele>201.12</ele>
        <time>2021-04-24T11:55:08.999Z</time>
      </trkpt>
      <trkpt lat="48.76535" lon="2.26027">
        <ele>201.14</ele>
        <time>2021-04-24T11:55:20.999Z</time>
      </trkpt>
      <trkpt lat="48.7653" lon="2.2604">
        <ele>201.18</ele>
        <time>2021-04-24T11:55:30.999Z</time>
      </trkpt>
      <trkpt lat="48.76535" lon="2.26051">
        <ele>201.23</ele>
        <time>2021-04-24T11:55:45.999Z</time>
      </trkpt>
      <trkpt lat="48.76544" lon="2.26054">
        <ele>201.19</ele>
        <time>2021-04-24T11:55:59.999Z</time>
      </trkpt>
      <trkpt lat="48.76553" lon="2.26058">
        <ele>201.13</ele>
        <time>2021-04-24T11:56:09.999Z</time>
      </trkpt>
      <trkpt lat="48.76562" lon="2.2605">
        <ele>200.89</ele>
        <time>2021-04-24T11:56:22.999Z</time>
      </trkpt>
      <trkpt lat="48.76572" lon="2.26047">
        <ele>200.76</ele>
        <time>2021-04-24T11:56:28.999Z</time>
      </trkpt>
      <trkpt lat="48.76577" lon="2.26058">
        <ele>200.73</ele>
        <time>2021-04-24T11:58:15.999Z</time>
      </trkpt>
      <trkpt lat="48.76586" lon="2.26055">
        <ele>200.81</ele>
        <time>2021-04-24T11:58:28.999Z</time>
      </trkpt>
      <trkpt lat="48.76596" lon="2.26055">
        <ele>200.85</ele>
        <time>2021-04-24T11:58:39.999Z</time>
      </trkpt>
      <trkpt lat="48.76601" lon="2.26067">
        <ele>205.52</ele>
        <time>2021-04-24T12:02:53.000Z</time>
      </trkpt>
      <trkpt lat="48.76606" lon="2.26055">
        <ele>206.37</ele>
        <time>2021-04-24T12:03:30.000Z</time>
      </trkpt>
      <trkpt lat="48.76615" lon="2.26052">
        <ele>206.69</ele>
        <time>2021-04-24T12:04:05.000Z</time>
      </trkpt>
      <trkpt lat="48.7662" lon="2.26063">
        <ele>206.92</ele>
        <time>2021-04-24T12:04:15.000Z</time>
      </trkpt>
      <trkpt lat="48.76629" lon="2.26068">
        <ele>207.17</ele>
        <time>2021-04-24T12:04:28.000Z</time>
      </trkpt>
      <trkpt lat="48.76639" lon="2.26074">
        <ele>207.29</ele>
        <time>2021-04-24T12:04:36.000Z</time>
      </trkpt>
      <trkpt lat="48.76649" lon="2.26075">
        <ele>207.42</ele>
        <time>2021-04-24T12:04:44.000Z</time>
      </trkpt>
      <trkpt lat="48.76658" lon="2.26075">
        <ele>207.54</ele>
        <time>2021-04-24T12:04:51.000Z</time>
      </trkpt>
      <trkpt lat="48.76667" lon="2.26074">
        <ele>207.72</ele>
        <time>2021-04-24T12:05:01.000Z</time>
      </trkpt>
      <trkpt lat="48.76676" lon="2.26075">
        <ele>207.86</ele>
        <time>2021-04-24T12:05:09.000Z</time>
      </trkpt>
      <trkpt lat="48.76686" lon="2.26072">
        <ele>207.96</ele>
        <time>2021-04-24T12:05:17.000Z</time>
      </trkpt>
      <trkpt lat="48.76692" lon="2.26083">
        <ele>208.13</ele>
        <time>2021-04-24T12:05:41.000Z</time>
      </trkpt>
      <trkpt lat="48.76692" lon="2.26098">
        <ele>208.21</ele>
        <time>2021-04-24T12:05:54.000Z</time>
      </trkpt>
      <trkpt lat="48.76694" lon="2.26111">
        <ele>208.26</ele>
        <time>2021-04-24T12:06:02.000Z</time>
      </trkpt>
      <trkpt lat="48.76694" lon="2.26125">
        <ele>208.32</ele>
        <time>2021-04-24T12:06:12.000Z</time>
      </trkpt>
      <trkpt lat="48.76694" lon="2.26139">
        <ele>208.34</ele>
        <time>2021-04-24T12:06:23.000Z</time>
      </trkpt>
      <trkpt lat="48.76694" lon="2.26153">
        <ele>208.3</ele>
        <time>2021-04-24T12:06:31.000Z</time>
      </trkpt>
      <trkpt lat="48.76694" lon="2.26167">
        <ele>208.23</ele>
        <time>2021-04-24T12:06:39.000Z</time>
      </trkpt>
      <trkpt lat="48.76692" lon="2.26182">
        <ele>208.16</ele>
        <time>2021-04-24T12:06:50.000Z</time>
      </trkpt>
      <trkpt lat="48.76694" lon="2.26197">
        <ele>208.07</ele>
        <time>2021-04-24T12:07:00.000Z</time>
      </trkpt>
      <trkpt lat="48.76696" lon="2.26211">
        <ele>208</ele>
        <time>2021-04-24T12:07:07.000Z</time>
      </trkpt>
      <trkpt lat="48.76699" lon="2.26225">
        <ele>207.94</ele>
        <time>2021-04-24T12:07:15.000Z</time>
      </trkpt>
      <trkpt lat="48.76701" lon="2.26239">
        <ele>207.88</ele>
        <time>2021-04-24T12:07:25.000Z</time>
      </trkpt>
      <trkpt lat="48.76702" lon="2.26253">
        <ele>207.83</ele>
        <time>2021-04-24T12:07:36.000Z</time>
      </trkpt>
      <trkpt lat="48.76701" lon="2.26267">
        <ele>207.78</ele>
        <time>2021-04-24T12:07:51.000Z</time>
      </trkpt>
      <trkpt lat="48.76703" lon="2.26283">
        <ele>207.74</ele>
        <time>2021-04-24T12:07:58.000Z</time>
      </trkpt>
      <trkpt lat="48.76706" lon="2.26296">
        <ele>207.7</ele>
        <time>2021-04-24T12:08:05.000Z</time>
      </trkpt>
      <trkpt lat="48.76712" lon="2.26308">
        <ele>207.59</ele>
        <time>2021-04-24T12:08:16.000Z</time>
      </trkpt>
      <trkpt lat="48.76722" lon="2.26314">
        <ele>207.5</ele>
        <time>2021-04-24T12:08:24.000Z</time>
      </trkpt>
      <trkpt lat="48.76731" lon="2.26312">
        <ele>207.41</ele>
        <time>2021-04-24T12:08:30.000Z</time>
      </trkpt>
      <trkpt lat="48.76741" lon="2.26313">
        <ele>207.32</ele>
        <time>2021-04-24T12:08:36.000Z</time>
      </trkpt>
      <trkpt lat="48.76752" lon="2.26312">
        <ele>207.21</ele>
        <time>2021-04-24T12:08:43.000Z</time>
      </trkpt>
      <trkpt lat="48.76762" lon="2.26314">
        <ele>207.13</ele>
        <time>2021-04-24T12:08:49.000Z</time>
      </trkpt>
      <trkpt lat="48.76771" lon="2.26315">
        <ele>207.05</ele>
        <time>2021-04-24T12:08:56.000Z</time>
      </trkpt>
      <trkpt lat="48.7678" lon="2.2631">
        <ele>206.99</ele>
        <time>2021-04-24T12:09:03.000Z</time>
      </trkpt>
      <trkpt lat="48.76789" lon="2.26306">
        <ele>206.89</ele>
        <time>2021-04-24T12:09:15.000Z</time>
      </trkpt>
      <trkpt lat="48.76798" lon="2.26302">
        <ele>206.74</ele>
        <time>2021-04-24T12:09:38.000Z</time>
      </trkpt>
      <trkpt lat="48.76808" lon="2.26296">
        <ele>206.61</ele>
        <time>2021-04-24T12:09:48.000Z</time>
      </trkpt>
      <trkpt lat="48.76815" lon="2.26286">
        <ele>206.49</ele>
        <time>2021-04-24T12:09:56.000Z</time>
      </trkpt>
      <trkpt lat="48.76823" lon="2.26278">
        <ele>206.34</ele>
        <time>2021-04-24T12:10:12.000Z</time>
      </trkpt>
      <trkpt lat="48.76829" lon="2.26267">
        <ele>206.19</ele>
        <time>2021-04-24T12:10:23.000Z</time>
      </trkpt>
      <trkpt lat="48.76834" lon="2.26255">
        <ele>205.98</ele>
        <time>2021-04-24T12:10:36.000Z</time>
      </trkpt>
      <trkpt lat="48.76834" lon="2.26241">
        <ele>205.77</ele>
        <time>2021-04-24T12:10:47.000Z</time>
      </trkpt>
      <trkpt lat="48.76834" lon="2.26227">
        <ele>205.6</ele>
        <time>2021-04-24T12:10:54.000Z</time>
      </trkpt>
      <trkpt lat="48.76831" lon="2.26214">
        <ele>205.41</ele>
        <time>2021-04-24T12:11:02.000Z</time>
      </trkpt>
      <trkpt lat="48.76826" lon="2.262">
        <ele>205.2</ele>
        <time>2021-04-24T12:11:11.000Z</time>
      </trkpt>
      <trkpt lat="48.76824" lon="2.26185">
        <ele>205.01</ele>
        <time>2021-04-24T12:11:18.000Z</time>
      </trkpt>
      <trkpt lat="48.76827" lon="2.26171">
        <ele>204.76</ele>
        <time>2021-04-24T12:11:28.000Z</time>
      </trkpt>
      <trkpt lat="48.76823" lon="2.26157">
        <ele>204.63</ele>
        <time>2021-04-24T12:11:34.000Z</time>
      </trkpt>
      <trkpt lat="48.76813" lon="2.26149">
        <ele>204.53</ele>
        <time>2021-04-24T12:11:39.000Z</time>
      </trkpt>
      <trkpt lat="48.76823" lon="2.26145">
        <ele>204.18</ele>
        <time>2021-04-24T12:12:00.000Z</time>
      </trkpt>
      <trkpt lat="48.7683" lon="2.26154">
        <ele>202.28</ele>
        <time>2021-04-24T12:15:04.000Z</time>
      </trkpt>
      <trkpt lat="48.76832" lon="2.26167">
        <ele>201.7</ele>
        <time>2021-04-24T12:15:24.000Z</time>
      </trkpt>
      <trkpt lat="48.76837" lon="2.2618">
        <ele>201.34</ele>
        <time>2021-04-24T12:15:43.000Z</time>
      </trkpt>
      <trkpt lat="48.76845" lon="2.2619">
        <ele>201.23</ele>
        <time>2021-04-24T12:15:47.000Z</time>
      </trkpt>
      <trkpt lat="48.76854" lon="2.26196">
        <ele>201.11</ele>
        <time>2021-04-24T12:15:51.000Z</time>
      </trkpt>
      <trkpt lat="48.76863" lon="2.26199">
        <ele>200.95</ele>
        <time>2021-04-24T12:15:57.000Z</time>
      </trkpt>
      <trkpt lat="48.76873" lon="2.26201">
        <ele>200.75</ele>
        <time>2021-04-24T12:16:06.000Z</time>
      </trkpt>
      <trkpt lat="48.76881" lon="2.26206">
        <ele>200.51</ele>
        <time>2021-04-24T12:16:20.000Z</time>
      </trkpt>
      <trkpt lat="48.76891" lon="2.26208">
        <ele>200.32</ele>
        <time>2021-04-24T12:16:31.000Z</time>
      </trkpt>
      <trkpt lat="48.769" lon="2.2621">
        <ele>200.05</ele>
        <time>2021-04-24T12:16:49.000Z</time>
      </trkpt>
      <trkpt lat="48.76908" lon="2.26216">
        <ele>199.87</ele>
        <time>2021-04-24T12:17:01.000Z</time>
      </trkpt>
      <trkpt lat="48.76919" lon="2.26214">
        <ele>199.79</ele>
        <time>2021-04-24T12:17:09.000Z</time>
      </trkpt>
      <trkpt lat="48.76926" lon="2.26204">
        <ele>199.67</ele>
        <time>2021-04-24T12:17:17.000Z</time>
      </trkpt>
      <trkpt lat="48.76933" lon="2.26192">
        <ele>199.63</ele>
        <time>2021-04-24T12:17:21.000Z</time>
      </trkpt>
      <trkpt lat="48.76934" lon="2.26178">
        <ele>199.49</ele>
        <time>2021-04-24T12:17:30.000Z</time>
      </trkpt>
      <trkpt lat="48.76937" lon="2.26163">
        <ele>199.37</ele>
        <time>2021-04-24T12:17:40.000Z</time>
      </trkpt>
      <trkpt lat="48.76942" lon="2.26149">
        <ele>199.29</ele>
        <time>2021-04-24T12:17:45.000Z</time>
      </trkpt>
      <trkpt lat="48.76943" lon="2.26136">
        <ele>199.17</ele>
        <time>2021-04-24T12:17:56.000Z</time>
      </trkpt>
      <trkpt lat="48.76941" lon="2.26121">
        <ele>199.08</ele>
        <time>2021-04-24T12:18:03.000Z</time>
      </trkpt>
      <trkpt lat="48.76936" lon="2.26108">
        <ele>198.96</ele>
        <time>2021-04-24T12:18:15.000Z</time>
      </trkpt>
      <trkpt lat="48.76936" lon="2.26093">
        <ele>198.84</ele>
        <time>2021-04-24T12:18:26.000Z</time>
      </trkpt>
      <trkpt lat="48.76934" lon="2.26079">
        <ele>198.71</ele>
        <time>2021-04-24T12:18:36.000Z</time>
      </trkpt>
      <trkpt lat="48.76937" lon="2.26066">
        <ele>198.6</ele>
        <time>2021-04-24T12:18:45.000Z</time>
      </trkpt>
      <trkpt lat="48.76941" lon="2.26053">
        <ele>198.54</ele>
        <time>2021-04-24T12:18:57.000Z</time>
      </trkpt>
      <trkpt lat="48.76948" lon="2.26045">
        <ele>198.45</ele>
        <time>2021-04-24T12:19:17.000Z</time>
      </trkpt>
      <trkpt lat="48.76958" lon="2.2604">
        <ele>198.34</ele>
        <time>2021-04-24T12:19:28.000Z</time>
      </trkpt>
      <trkpt lat="48.76968" lon="2.26048">
        <ele>198.17</ele>
        <time>2021-04-24T12:19:41.000Z</time>
      </trkpt>
      <trkpt lat="48.76977" lon="2.26049">
        <ele>198.07</ele>
        <time>2021-04-24T12:19:47.000Z</time>
      </trkpt>
      <trkpt lat="48.76986" lon="2.26055">
        <ele>197.96</ele>
        <time>2021-04-24T12:19:53.000Z</time>
      </trkpt>
      <trkpt lat="48.76994" lon="2.26058">
        <ele>197.81</ele>
        <time>2021-04-24T12:20:00.000Z</time>
      </trkpt>
      <trkpt lat="48.77004" lon="2.2606">
        <ele>197.6</ele>
        <time>2021-04-24T12:20:12.000Z</time>
      </trkpt>
      <trkpt lat="48.77013" lon="2.26059">
        <ele>197.41</ele>
        <time>2021-04-24T12:20:27.000Z</time>
      </trkpt>
      <trkpt lat="48.77022" lon="2.2606">
        <ele>197.32</ele>
        <time>2021-04-24T12:20:32.000Z</time>
      </trkpt>
      <trkpt lat="48.77031" lon="2.26056">
        <ele>197.22</ele>
        <time>2021-04-24T12:20:38.000Z</time>
      </trkpt>
      <trkpt lat="48.7704" lon="2.26051">
        <ele>197.06</ele>
        <time>2021-04-24T12:20:48.000Z</time>
      </trkpt>
      <trkpt lat="48.7705" lon="2.26046">
        <ele>196.85</ele>
        <time>2021-04-24T12:21:04.000Z</time>
      </trkpt>
      <trkpt lat="48.77059" lon="2.26045">
        <ele>196.75</ele>
        <time>2021-04-24T12:21:14.000Z</time>
      </trkpt>
      <trkpt lat="48.77068" lon="2.2605">
        <ele>196.49</ele>
        <time>2021-04-24T12:21:32.000Z</time>
      </trkpt>
      <trkpt lat="48.77079" lon="2.26054">
        <ele>196.36</ele>
        <time>2021-04-24T12:21:40.000Z</time>
      </trkpt>
      <trkpt lat="48.77088" lon="2.26059">
        <ele>196.23</ele>
        <time>2021-04-24T12:21:49.000Z</time>
      </trkpt>
      <trkpt lat="48.77097" lon="2.26063">
        <ele>196.01</ele>
        <time>2021-04-24T12:22:05.000Z</time>
      </trkpt>
      <trkpt lat="48.77105" lon="2.2607">
        <ele>195.83</ele>
        <time>2021-04-24T12:22:29.000Z</time>
      </trkpt>
      <trkpt lat="48.77117" lon="2.26074">
        <ele>195.77</ele>
        <time>2021-04-24T12:22:33.000Z</time>
      </trkpt>
      <trkpt lat="48.77126" lon="2.2607">
        <ele>195.63</ele>
        <time>2021-04-24T12:22:44.000Z</time>
      </trkpt>
      <trkpt lat="48.77135" lon="2.26069">
        <ele>195.45</ele>
        <time>2021-04-24T12:22:56.000Z</time>
      </trkpt>
      <trkpt lat="48.77144" lon="2.26068">
        <ele>195.23</ele>
        <time>2021-04-24T12:23:19.000Z</time>
      </trkpt>
      <trkpt lat="48.77154" lon="2.26071">
        <ele>195.14</ele>
        <time>2021-04-24T12:23:24.999Z</time>
      </trkpt>
      <trkpt lat="48.77163" lon="2.26075">
        <ele>195.07</ele>
        <time>2021-04-24T12:23:28.999Z</time>
      </trkpt>
      <trkpt lat="48.77173" lon="2.26081">
        <ele>194.99</ele>
        <time>2021-04-24T12:23:35.999Z</time>
      </trkpt>
      <trkpt lat="48.77182" lon="2.2608">
        <ele>194.82</ele>
        <time>2021-04-24T12:23:47.999Z</time>
      </trkpt>
      <trkpt lat="48.77191" lon="2.26086">
        <ele>194.69</ele>
        <time>2021-04-24T12:23:56.999Z</time>
      </trkpt>
      <trkpt lat="48.772" lon="2.26092">
        <ele>194.57</ele>
        <time>2021-04-24T12:24:04.999Z</time>
      </trkpt>
      <trkpt lat="48.77208" lon="2.26097">
        <ele>194.41</ele>
        <time>2021-04-24T12:24:20.999Z</time>
      </trkpt>
      <trkpt lat="48.77216" lon="2.26107">
        <ele>194.28</ele>
        <time>2021-04-24T12:24:31.999Z</time>
      </trkpt>
      <trkpt lat="48.77222" lon="2.26118">
        <ele>194.17</ele>
        <time>2021-04-24T12:24:45.999Z</time>
      </trkpt>
      <trkpt lat="48.77227" lon="2.26129">
        <ele>194.07</ele>
        <time>2021-04-24T12:24:58.999Z</time>
      </trkpt>
      <trkpt lat="48.77234" lon="2.26139">
        <ele>194.03</ele>
        <time>2021-04-24T12:25:01.999Z</time>
      </trkpt>
      <trkpt lat="48.77242" lon="2.26147">
        <ele>193.96</ele>
        <time>2021-04-24T12:25:07.999Z</time>
      </trkpt>
      <trkpt lat="48.7725" lon="2.26155">
        <ele>193.91</ele>
        <time>2021-04-24T12:25:14.999Z</time>
      </trkpt>
      <trkpt lat="48.77259" lon="2.2616">
        <ele>193.59</ele>
        <time>2021-04-24T12:25:42.999Z</time>
      </trkpt>
      <trkpt lat="48.77268" lon="2.26157">
        <ele>193.47</ele>
        <time>2021-04-24T12:25:51.999Z</time>
      </trkpt>
      <trkpt lat="48.77275" lon="2.26148">
        <ele>193.34</ele>
        <time>2021-04-24T12:26:04.999Z</time>
      </trkpt>
      <trkpt lat="48.77278" lon="2.26135">
        <ele>193.25</ele>
        <time>2021-04-24T12:26:29.999Z</time>
      </trkpt>
      <trkpt lat="48.77279" lon="2.26149">
        <ele>192.95</ele>
        <time>2021-04-24T12:27:06.999Z</time>
      </trkpt>
      <trkpt lat="48.77278" lon="2.26163">
        <ele>192.82</ele>
        <time>2021-04-24T12:27:15.999Z</time>
      </trkpt>
      <trkpt lat="48.77275" lon="2.26176">
        <ele>192.62</ele>
        <time>2021-04-24T12:27:28.999Z</time>
      </trkpt>
      <trkpt lat="48.77285" lon="2.26183">
        <ele>192.46</ele>
        <time>2021-04-24T12:27:42.999Z</time>
      </trkpt>
      <trkpt lat="48.77292" lon="2.26193">
        <ele>192.4</ele>
        <time>2021-04-24T12:27:47.999Z</time>
      </trkpt>
      <trkpt lat="48.77295" lon="2.26206">
        <ele>192.31</ele>
        <time>2021-04-24T12:27:53.999Z</time>
      </trkpt>
      <trkpt lat="48.77296" lon="2.26222">
        <ele>192.22</ele>
        <time>2021-04-24T12:28:00.999Z</time>
      </trkpt>
      <trkpt lat="48.77298" lon="2.26235">
        <ele>192.16</ele>
        <time>2021-04-24T12:28:04.999Z</time>
      </trkpt>
      <trkpt lat="48.77302" lon="2.26249">
        <ele>191.99</ele>
        <time>2021-04-24T12:28:17.999Z</time>
      </trkpt>
      <trkpt lat="48.77308" lon="2.26261">
        <ele>191.88</ele>
        <time>2021-04-24T12:28:25.999Z</time>
      </trkpt>
      <trkpt lat="48.77311" lon="2.26276">
        <ele>191.78</ele>
        <time>2021-04-24T12:28:32.999Z</time>
      </trkpt>
      <trkpt lat="48.77318" lon="2.26286">
        <ele>191.7</ele>
        <time>2021-04-24T12:28:38.999Z</time>
      </trkpt>
      <trkpt lat="48.77324" lon="2.26297">
        <ele>191.63</ele>
        <time>2021-04-24T12:28:44.999Z</time>
      </trkpt>
      <trkpt lat="48.7733" lon="2.26307">
        <ele>191.54</ele>
        <time>2021-04-24T12:28:51.999Z</time>
      </trkpt>
      <trkpt lat="48.77336" lon="2.2632">
        <ele>191.44</ele>
        <time>2021-04-24T12:29:03.999Z</time>
      </trkpt>
      <trkpt lat="48.77345" lon="2.26331">
        <ele>191.31</ele>
        <time>2021-04-24T12:29:14.999Z</time>
      </trkpt>
      <trkpt lat="48.77353" lon="2.2634">
        <ele>191.25</ele>
        <time>2021-04-24T12:29:20.999Z</time>
      </trkpt>
      <trkpt lat="48.77359" lon="2.26351">
        <ele>191.18</ele>
        <time>2021-04-24T12:29:28.999Z</time>
      </trkpt>
      <trkpt lat="48.77362" lon="2.26365">
        <ele>191.08</ele>
        <time>2021-04-24T12:29:37.999Z</time>
      </trkpt>
      <trkpt lat="48.77369" lon="2.26373">
        <ele>190.97</ele>
        <time>2021-04-24T12:29:48.999Z</time>
      </trkpt>
      <trkpt lat="48.77379" lon="2.26375">
        <ele>190.84</ele>
        <time>2021-04-24T12:30:01.999Z</time>
      </trkpt>
      <trkpt lat="48.77389" lon="2.26374">
        <ele>190.73</ele>
        <time>2021-04-24T12:30:13.999Z</time>
      </trkpt>
      <trkpt lat="48.77398" lon="2.26378">
        <ele>190.68</ele>
        <time>2021-04-24T12:30:23.999Z</time>
      </trkpt>
      <trkpt lat="48.77407" lon="2.26377">
        <ele>190.61</ele>
        <time>2021-04-24T12:30:35.999Z</time>
      </trkpt>
      <trkpt lat="48.77417" lon="2.26374">
        <ele>190.56</ele>
        <time>2021-04-24T12:30:42.999Z</time>
      </trkpt>
      <trkpt lat="48.77429" lon="2.26376">
        <ele>190.54</ele>
        <time>2021-04-24T12:30:47.999Z</time>
      </trkpt>
      <trkpt lat="48.77438" lon="2.26383">
        <ele>190.5</ele>
        <time>2021-04-24T12:30:54.999Z</time>
      </trkpt>
      <trkpt lat="48.77443" lon="2.26396">
        <ele>190.45</ele>
        <time>2021-04-24T12:31:05.999Z</time>
      </trkpt>
      <trkpt lat="48.77449" lon="2.26408">
        <ele>190.4</ele>
        <time>2021-04-24T12:31:16.999Z</time>
      </trkpt>
      <trkpt lat="48.77455" lon="2.2642">
        <ele>190.37</ele>
        <time>2021-04-24T12:31:26.999Z</time>
      </trkpt>
      <trkpt lat="48.7746" lon="2.26434">
        <ele>190.35</ele>
        <time>2021-04-24T12:31:33.999Z</time>
      </trkpt>
      <trkpt lat="48.77463" lon="2.26447">
        <ele>190.3</ele>
        <time>2021-04-24T12:31:53.999Z</time>
      </trkpt>
      <trkpt lat="48.77462" lon="2.26462">
        <ele>190.25</ele>
        <time>2021-04-24T12:32:16.999Z</time>
      </trkpt>
      <trkpt lat="48.77462" lon="2.26475">
        <ele>190.23</ele>
        <time>2021-04-24T12:32:24.999Z</time>
      </trkpt>
      <trkpt lat="48.7746" lon="2.26491">
        <ele>190.21</ele>
        <time>2021-04-24T12:32:34.999Z</time>
      </trkpt>
      <trkpt lat="48.7746" lon="2.26504">
        <ele>190.18</ele>
        <time>2021-04-24T12:32:48.999Z</time>
      </trkpt>
      <trkpt lat="48.77462" lon="2.26522">
        <ele>190.17</ele>
        <time>2021-04-24T12:32:56.999Z</time>
      </trkpt>
      <trkpt lat="48.77466" lon="2.26536">
        <ele>190.14</ele>
        <time>2021-04-24T12:33:04.999Z</time>
      </trkpt>
      <trkpt lat="48.77467" lon="2.2655">
        <ele>190.12</ele>
        <time>2021-04-24T12:33:12.999Z</time>
      </trkpt>
      <trkpt lat="48.7746" lon="2.26561">
        <ele>190.08</ele>
        <time>2021-04-24T12:33:21.999Z</time>
      </trkpt>
      <trkpt lat="48.77451" lon="2.26572">
        <ele>190.03</ele>
        <time>2021-04-24T12:33:28.999Z</time>
      </trkpt>
      <trkpt lat="48.77443" lon="2.26578">
        <ele>189.95</ele>
        <time>2021-04-24T12:33:38.999Z</time>
      </trkpt>
      <trkpt lat="48.77433" lon="2.26583">
        <ele>189.89</ele>
        <time>2021-04-24T12:33:43.999Z</time>
      </trkpt>
      <trkpt lat="48.77423" lon="2.26587">
        <ele>189.78</ele>
        <time>2021-04-24T12:33:52.999Z</time>
      </trkpt>
      <trkpt lat="48.77419" lon="2.266">
        <ele>189.66</ele>
        <time>2021-04-24T12:34:01.999Z</time>
      </trkpt>
      <trkpt lat="48.77413" lon="2.26612">
        <ele>189.43</ele>
        <time>2021-04-24T12:34:11.999Z</time>
      </trkpt>
      <trkpt lat="48.77405" lon="2.26621">
        <ele>189.05</ele>
        <time>2021-04-24T12:34:23.999Z</time>
      </trkpt>
      <trkpt lat="48.77397" lon="2.2663">
        <ele>188.88</ele>
        <time>2021-04-24T12:34:27.999Z</time>
      </trkpt>
      <trkpt lat="48.7739" lon="2.26641">
        <ele>188.67</ele>
        <time>2021-04-24T12:34:32.999Z</time>
      </trkpt>
      <trkpt lat="48.77384" lon="2.26653">
        <ele>188.35</ele>
        <time>2021-04-24T12:34:40.999Z</time>
      </trkpt>
      <trkpt lat="48.77379" lon="2.26665">
        <ele>188.1</ele>
        <time>2021-04-24T12:34:46.999Z</time>
      </trkpt>
      <trkpt lat="48.7737" lon="2.26675">
        <ele>187.69</ele>
        <time>2021-04-24T12:34:56.999Z</time>
      </trkpt>
      <trkpt lat="48.77364" lon="2.26685">
        <ele>187.34</ele>
        <time>2021-04-24T12:35:05.999Z</time>
      </trkpt>
      <trkpt lat="48.77361" lon="2.26698">
        <ele>187.07</ele>
        <time>2021-04-24T12:35:12.999Z</time>
      </trkpt>
      <trkpt lat="48.77358" lon="2.26711">
        <ele>186.82</ele>
        <time>2021-04-24T12:35:20.999Z</time>
      </trkpt>
      <trkpt lat="48.77353" lon="2.26724">
        <ele>186.48</ele>
        <time>2021-04-24T12:35:30.999Z</time>
      </trkpt>
      <trkpt lat="48.77348" lon="2.26736">
        <ele>186.18</ele>
        <time>2021-04-24T12:35:40.999Z</time>
      </trkpt>
      <trkpt lat="48.7734" lon="2.26745">
        <ele>185.78</ele>
        <time>2021-04-24T12:35:53.999Z</time>
      </trkpt>
      <trkpt lat="48.77338" lon="2.26759">
        <ele>185.35</ele>
        <time>2021-04-24T12:36:08.999Z</time>
      </trkpt>
      <trkpt lat="48.77331" lon="2.26768">
        <ele>184.72</ele>
        <time>2021-04-24T12:36:22.999Z</time>
      </trkpt>
      <trkpt lat="48.77322" lon="2.26773">
        <ele>184.31</ele>
        <time>2021-04-24T12:36:30.999Z</time>
      </trkpt>
      <trkpt lat="48.77315" lon="2.26783">
        <ele>183.67</ele>
        <time>2021-04-24T12:36:44.999Z</time>
      </trkpt>
      <trkpt lat="48.77308" lon="2.26794">
        <ele>183.11</ele>
        <time>2021-04-24T12:36:55.999Z</time>
      </trkpt>
      <trkpt lat="48.77302" lon="2.26803">
        <ele>182.7</ele>
        <time>2021-04-24T12:37:04.999Z</time>
      </trkpt>
      <trkpt lat="48.77295" lon="2.26814">
        <ele>182.25</ele>
        <time>2021-04-24T12:37:13.999Z</time>
      </trkpt>
      <trkpt lat="48.77294" lon="2.26828">
        <ele>181.85</ele>
        <time>2021-04-24T12:37:21.999Z</time>
      </trkpt>
      <trkpt lat="48.773" lon="2.26842">
        <ele>181.39</ele>
        <time>2021-04-24T12:37:29.999Z</time>
      </trkpt>
      <trkpt lat="48.77308" lon="2.26852">
        <ele>181.01</ele>
        <time>2021-04-24T12:37:35.999Z</time>
      </trkpt>
      <trkpt lat="48.77313" lon="2.26863">
        <ele>180.49</ele>
        <time>2021-04-24T12:37:43.999Z</time>
      </trkpt>
      <trkpt lat="48.77319" lon="2.26873">
        <ele>179.61</ele>
        <time>2021-04-24T12:37:55.999Z</time>
      </trkpt>
      <trkpt lat="48.77328" lon="2.2688">
        <ele>178.91</ele>
        <time>2021-04-24T12:38:04.999Z</time>
      </trkpt>
      <trkpt lat="48.77336" lon="2.26888">
        <ele>178.06</ele>
        <time>2021-04-24T12:38:15.999Z</time>
      </trkpt>
      <trkpt lat="48.77344" lon="2.26896">
        <ele>177.42</ele>
        <time>2021-04-24T12:38:24.999Z</time>
      </trkpt>
      <trkpt lat="48.77336" lon="2.26904">
        <ele>173.12</ele>
        <time>2021-04-24T12:40:43.999Z</time>
      </trkpt>
      <trkpt lat="48.77331" lon="2.26915">
        <ele>169.09</ele>
        <time>2021-04-24T12:42:25.999Z</time>
      </trkpt>
      <trkpt lat="48.77325" lon="2.26927">
        <ele>168.47</ele>
        <time>2021-04-24T12:42:32.999Z</time>
      </trkpt>
      <trkpt lat="48.77321" lon="2.26939">
        <ele>167.67</ele>
        <time>2021-04-24T12:42:42.999Z</time>
      </trkpt>
      <trkpt lat="48.77316" lon="2.26952">
        <ele>167.17</ele>
        <time>2021-04-24T12:42:49.999Z</time>
      </trkpt>
      <trkpt lat="48.77314" lon="2.26965">
        <ele>166.58</ele>
        <time>2021-04-24T12:42:58.999Z</time>
      </trkpt>
      <trkpt lat="48.77319" lon="2.26978">
        <ele>166.17</ele>
        <time>2021-04-24T12:43:05.999Z</time>
      </trkpt>
      <trkpt lat="48.77321" lon="2.26991">
        <ele>165.76</ele>
        <time>2021-04-24T12:43:12.999Z</time>
      </trkpt>
      <trkpt lat="48.77322" lon="2.27006">
        <ele>165.26</ele>
        <time>2021-04-24T12:43:21.999Z</time>
      </trkpt>
      <trkpt lat="48.77321" lon="2.2702">
        <ele>164.6</ele>
        <time>2021-04-24T12:43:34.999Z</time>
      </trkpt>
      <trkpt lat="48.77319" lon="2.27035">
        <ele>164.2</ele>
        <time>2021-04-24T12:43:45.000Z</time>
      </trkpt>
      <trkpt lat="48.77316" lon="2.27048">
        <ele>163.93</ele>
        <time>2021-04-24T12:43:52.000Z</time>
      </trkpt>
      <trkpt lat="48.77313" lon="2.27061">
        <ele>163.59</ele>
        <time>2021-04-24T12:44:01.000Z</time>
      </trkpt>
      <trkpt lat="48.77308" lon="2.27074">
        <ele>163.16</ele>
        <time>2021-04-24T12:44:13.000Z</time>
      </trkpt>
      <trkpt lat="48.77304" lon="2.27088">
        <ele>162.91</ele>
        <time>2021-04-24T12:44:21.000Z</time>
      </trkpt>
      <trkpt lat="48.77301" lon="2.27102">
        <ele>162.66</ele>
        <time>2021-04-24T12:44:30.000Z</time>
      </trkpt>
      <trkpt lat="48.77298" lon="2.27115">
        <ele>162.4</ele>
        <time>2021-04-24T12:44:40.000Z</time>
      </trkpt>
      <trkpt lat="48.77292" lon="2.27128">
        <ele>162.23</ele>
        <time>2021-04-24T12:44:47.000Z</time>
      </trkpt>
      <trkpt lat="48.77285" lon="2.27137">
        <ele>162.05</ele>
        <time>2021-04-24T12:44:55.000Z</time>
      </trkpt>
      <trkpt lat="48.77277" lon="2.27143">
        <ele>161.86</ele>
        <time>2021-04-24T12:45:05.000Z</time>
      </trkpt>
      <trkpt lat="48.77269" lon="2.27153">
        <ele>161.76</ele>
        <time>2021-04-24T12:45:11.000Z</time>
      </trkpt>
      <trkpt lat="48.77263" lon="2.27164">
        <ele>161.65</ele>
        <time>2021-04-24T12:45:18.000Z</time>
      </trkpt>
      <trkpt lat="48.77254" lon="2.27169">
        <ele>161.52</ele>
        <time>2021-04-24T12:45:27.000Z</time>
      </trkpt>
      <trkpt lat="48.77245" lon="2.27174">
        <ele>161.42</ele>
        <time>2021-04-24T12:45:35.000Z</time>
      </trkpt>
      <trkpt lat="48.77235" lon="2.27177">
        <ele>161.29</ele>
        <time>2021-04-24T12:45:44.000Z</time>
      </trkpt>
      <trkpt lat="48.77226" lon="2.27181">
        <ele>161.11</ele>
        <time>2021-04-24T12:45:55.000Z</time>
      </trkpt>
      <trkpt lat="48.77217" lon="2.27186">
        <ele>160.94</ele>
        <time>2021-04-24T12:46:05.000Z</time>
      </trkpt>
      <trkpt lat="48.77208" lon="2.2719">
        <ele>160.8</ele>
        <time>2021-04-24T12:46:14.000Z</time>
      </trkpt>
      <trkpt lat="48.77198" lon="2.27194">
        <ele>160.65</ele>
        <time>2021-04-24T12:46:23.000Z</time>
      </trkpt>
      <trkpt lat="48.77189" lon="2.27197">
        <ele>160.5</ele>
        <time>2021-04-24T12:46:31.000Z</time>
      </trkpt>
      <trkpt lat="48.7718" lon="2.272">
        <ele>160.35</ele>
        <time>2021-04-24T12:46:39.000Z</time>
      </trkpt>
      <trkpt lat="48.7717" lon="2.27201">
        <ele>160.21</ele>
        <time>2021-04-24T12:46:46.000Z</time>
      </trkpt>
      <trkpt lat="48.77161" lon="2.27204">
        <ele>159.97</ele>
        <time>2021-04-24T12:46:59.000Z</time>
      </trkpt>
      <trkpt lat="48.77152" lon="2.27207">
        <ele>159.83</ele>
        <time>2021-04-24T12:47:07.000Z</time>
      </trkpt>
      <trkpt lat="48.77142" lon="2.27209">
        <ele>159.69</ele>
        <time>2021-04-24T12:47:16.000Z</time>
      </trkpt>
      <trkpt lat="48.77133" lon="2.27213">
        <ele>159.56</ele>
        <time>2021-04-24T12:47:25.000Z</time>
      </trkpt>
      <trkpt lat="48.77124" lon="2.27215">
        <ele>159.44</ele>
        <time>2021-04-24T12:47:34.000Z</time>
      </trkpt>
      <trkpt lat="48.77115" lon="2.2722">
        <ele>159.33</ele>
        <time>2021-04-24T12:47:42.000Z</time>
      </trkpt>
      <trkpt lat="48.77106" lon="2.27223">
        <ele>159.22</ele>
        <time>2021-04-24T12:47:51.000Z</time>
      </trkpt>
      <trkpt lat="48.77097" lon="2.27225">
        <ele>159.13</ele>
        <time>2021-04-24T12:48:00.000Z</time>
      </trkpt>
      <trkpt lat="48.77088" lon="2.27228">
        <ele>159.06</ele>
        <time>2021-04-24T12:48:08.000Z</time>
      </trkpt>
      <trkpt lat="48.7708" lon="2.27234">
        <ele>159</ele>
        <time>2021-04-24T12:48:16.000Z</time>
      </trkpt>
      <trkpt lat="48.7707" lon="2.27238">
        <ele>158.93</ele>
        <time>2021-04-24T12:48:25.000Z</time>
      </trkpt>
      <trkpt lat="48.77061" lon="2.2724">
        <ele>158.89</ele>
        <time>2021-04-24T12:48:32.000Z</time>
      </trkpt>
      <trkpt lat="48.77051" lon="2.27243">
        <ele>158.84</ele>
        <time>2021-04-24T12:48:41.000Z</time>
      </trkpt>
      <trkpt lat="48.77043" lon="2.27248">
        <ele>158.79</ele>
        <time>2021-04-24T12:48:51.000Z</time>
      </trkpt>
      <trkpt lat="48.77034" lon="2.27253">
        <ele>158.74</ele>
        <time>2021-04-24T12:49:00.000Z</time>
      </trkpt>
      <trkpt lat="48.77024" lon="2.27254">
        <ele>158.7</ele>
        <time>2021-04-24T12:49:08.000Z</time>
      </trkpt>
      <trkpt lat="48.77016" lon="2.2726">
        <ele>158.64</ele>
        <time>2021-04-24T12:49:18.000Z</time>
      </trkpt>
      <trkpt lat="48.77017" lon="2.27275">
        <ele>158.56</ele>
        <time>2021-04-24T12:49:28.000Z</time>
      </trkpt>
      <trkpt lat="48.77018" lon="2.27289">
        <ele>158.42</ele>
        <time>2021-04-24T12:49:37.000Z</time>
      </trkpt>
      <trkpt lat="48.77014" lon="2.27303">
        <ele>158.22</ele>
        <time>2021-04-24T12:49:48.000Z</time>
      </trkpt>
      <trkpt lat="48.77012" lon="2.27316">
        <ele>158.02</ele>
        <time>2021-04-24T12:49:58.000Z</time>
      </trkpt>
      <trkpt lat="48.77015" lon="2.2733">
        <ele>157.81</ele>
        <time>2021-04-24T12:50:09.000Z</time>
      </trkpt>
      <trkpt lat="48.77019" lon="2.27345">
        <ele>157.65</ele>
        <time>2021-04-24T12:50:18.000Z</time>
      </trkpt>
      <trkpt lat="48.77021" lon="2.27361">
        <ele>157.5</ele>
        <time>2021-04-24T12:50:27.000Z</time>
      </trkpt>
      <trkpt lat="48.77024" lon="2.27376">
        <ele>157.38</ele>
        <time>2021-04-24T12:50:35.000Z</time>
      </trkpt>
      <trkpt lat="48.77026" lon="2.2739">
        <ele>157.27</ele>
        <time>2021-04-24T12:50:44.000Z</time>
      </trkpt>
      <trkpt lat="48.7703" lon="2.27403">
        <ele>157.16</ele>
        <time>2021-04-24T12:50:53.000Z</time>
      </trkpt>
      <trkpt lat="48.77037" lon="2.27414">
        <ele>156.95</ele>
        <time>2021-04-24T12:51:07.000Z</time>
      </trkpt>
      <trkpt lat="48.77045" lon="2.27419">
        <ele>156.64</ele>
        <time>2021-04-24T12:51:30.000Z</time>
      </trkpt>
      <trkpt lat="48.77044" lon="2.27433">
        <ele>156.19</ele>
        <time>2021-04-24T12:51:56.000Z</time>
      </trkpt>
      <trkpt lat="48.7704" lon="2.27447">
        <ele>156.06</ele>
        <time>2021-04-24T12:52:02.000Z</time>
      </trkpt>
      <trkpt lat="48.7704" lon="2.27461">
        <ele>155.49</ele>
        <time>2021-04-24T12:52:56.000Z</time>
      </trkpt>
      <trkpt lat="48.77045" lon="2.27474">
        <ele>155.16</ele>
        <time>2021-04-24T12:53:22.000Z</time>
      </trkpt>
      <trkpt lat="48.77047" lon="2.27487">
        <ele>155</ele>
        <time>2021-04-24T12:53:33.000Z</time>
      </trkpt>
      <trkpt lat="48.77049" lon="2.27502">
        <ele>154.88</ele>
        <time>2021-04-24T12:53:41.000Z</time>
      </trkpt>
      <trkpt lat="48.7705" lon="2.27517">
        <ele>154.76</ele>
        <time>2021-04-24T12:53:50.000Z</time>
      </trkpt>
      <trkpt lat="48.7705" lon="2.27531">
        <ele>154.66</ele>
        <time>2021-04-24T12:53:58.000Z</time>
      </trkpt>
      <trkpt lat="48.77051" lon="2.27545">
        <ele>154.54</ele>
        <time>2021-04-24T12:54:07.000Z</time>
      </trkpt>
      <trkpt lat="48.77053" lon="2.27559">
        <ele>154.44</ele>
        <time>2021-04-24T12:54:15.000Z</time>
      </trkpt>
      <trkpt lat="48.77058" lon="2.2757">
        <ele>154.26</ele>
        <time>2021-04-24T12:54:27.000Z</time>
      </trkpt>
      <trkpt lat="48.7706" lon="2.27584">
        <ele>154.14</ele>
        <time>2021-04-24T12:54:32.000Z</time>
      </trkpt>
      <trkpt lat="48.77061" lon="2.27598">
        <ele>153.99</ele>
        <time>2021-04-24T12:54:38.000Z</time>
      </trkpt>
      <trkpt lat="48.77064" lon="2.27612">
        <ele>153.82</ele>
        <time>2021-04-24T12:54:45.000Z</time>
      </trkpt>
      <trkpt lat="48.77065" lon="2.27626">
        <ele>153.66</ele>
        <time>2021-04-24T12:54:52.000Z</time>
      </trkpt>
      <trkpt lat="48.77067" lon="2.2764">
        <ele>153.48</ele>
        <time>2021-04-24T12:55:00.000Z</time>
      </trkpt>
      <trkpt lat="48.77068" lon="2.27654">
        <ele>153.29</ele>
        <time>2021-04-24T12:55:09.000Z</time>
      </trkpt>
      <trkpt lat="48.7707" lon="2.27668">
        <ele>153.07</ele>
        <time>2021-04-24T12:55:20.000Z</time>
      </trkpt>
      <trkpt lat="48.77074" lon="2.27681">
        <ele>152.92</ele>
        <time>2021-04-24T12:55:28.000Z</time>
      </trkpt>
      <trkpt lat="48.77076" lon="2.27696">
        <ele>152.75</ele>
        <time>2021-04-24T12:55:38.000Z</time>
      </trkpt>
      <trkpt lat="48.77077" lon="2.27711">
        <ele>152.63</ele>
        <time>2021-04-24T12:55:45.000Z</time>
      </trkpt>
      <trkpt lat="48.77079" lon="2.27726">
        <ele>152.52</ele>
        <time>2021-04-24T12:55:52.000Z</time>
      </trkpt>
      <trkpt lat="48.77081" lon="2.2774">
        <ele>152.39</ele>
        <time>2021-04-24T12:56:01.000Z</time>
      </trkpt>
      <trkpt lat="48.77085" lon="2.27753">
        <ele>152.27</ele>
        <time>2021-04-24T12:56:10.000Z</time>
      </trkpt>
      <trkpt lat="48.77088" lon="2.27767">
        <ele>152.16</ele>
        <time>2021-04-24T12:56:18.000Z</time>
      </trkpt>
      <trkpt lat="48.77092" lon="2.27781">
        <ele>152.03</ele>
        <time>2021-04-24T12:56:27.000Z</time>
      </trkpt>
      <trkpt lat="48.77094" lon="2.27795">
        <ele>151.85</ele>
        <time>2021-04-24T12:56:38.000Z</time>
      </trkpt>
      <trkpt lat="48.77096" lon="2.27809">
        <ele>151.67</ele>
        <time>2021-04-24T12:56:48.000Z</time>
      </trkpt>
      <trkpt lat="48.77094" lon="2.27824">
        <ele>151.55</ele>
        <time>2021-04-24T12:56:55.000Z</time>
      </trkpt>
      <trkpt lat="48.77096" lon="2.27837">
        <ele>151.46</ele>
        <time>2021-04-24T12:57:01.000Z</time>
      </trkpt>
      <trkpt lat="48.77098" lon="2.27851">
        <ele>151.33</ele>
        <time>2021-04-24T12:57:10.000Z</time>
      </trkpt>
      <trkpt lat="48.77102" lon="2.27864">
        <ele>151.25</ele>
        <time>2021-04-24T12:57:17.000Z</time>
      </trkpt>
      <trkpt lat="48.77103" lon="2.27878">
        <ele>151.12</ele>
        <time>2021-04-24T12:57:25.000Z</time>
      </trkpt>
      <trkpt lat="48.77104" lon="2.27892">
        <ele>150.98</ele>
        <time>2021-04-24T12:57:35.000Z</time>
      </trkpt>
      <trkpt lat="48.77109" lon="2.27904">
        <ele>150.91</ele>
        <time>2021-04-24T12:57:41.000Z</time>
      </trkpt>
      <trkpt lat="48.77114" lon="2.27917">
        <ele>150.81</ele>
        <time>2021-04-24T12:57:51.000Z</time>
      </trkpt>
      <trkpt lat="48.7712" lon="2.27927">
        <ele>150.72</ele>
        <time>2021-04-24T12:58:03.000Z</time>
      </trkpt>
      <trkpt lat="48.77121" lon="2.27942">
        <ele>150.67</ele>
        <time>2021-04-24T12:58:10.000Z</time>
      </trkpt>
      <trkpt lat="48.77117" lon="2.27955">
        <ele>150.65</ele>
        <time>2021-04-24T12:58:16.000Z</time>
      </trkpt>
      <trkpt lat="48.7712" lon="2.2797">
        <ele>150.64</ele>
        <time>2021-04-24T12:58:26.000Z</time>
      </trkpt>
      <trkpt lat="48.77126" lon="2.27981">
        <ele>150.66</ele>
        <time>2021-04-24T12:58:33.000Z</time>
      </trkpt>
      <trkpt lat="48.7713" lon="2.27995">
        <ele>150.69</ele>
        <time>2021-04-24T12:58:41.000Z</time>
      </trkpt>
      <trkpt lat="48.77132" lon="2.28009">
        <ele>150.73</ele>
        <time>2021-04-24T12:58:47.000Z</time>
      </trkpt>
      <trkpt lat="48.77137" lon="2.28021">
        <ele>150.8</ele>
        <time>2021-04-24T12:58:58.000Z</time>
      </trkpt>
      <trkpt lat="48.77141" lon="2.28034">
        <ele>150.83</ele>
        <time>2021-04-24T12:59:03.000Z</time>
      </trkpt>
      <trkpt lat="48.77142" lon="2.28048">
        <ele>150.91</ele>
        <time>2021-04-24T12:59:15.000Z</time>
      </trkpt>
      <trkpt lat="48.77146" lon="2.28062">
        <ele>150.97</ele>
        <time>2021-04-24T12:59:24.000Z</time>
      </trkpt>
      <trkpt lat="48.77151" lon="2.28074">
        <ele>151.09</ele>
        <time>2021-04-24T12:59:42.000Z</time>
      </trkpt>
      <trkpt lat="48.77151" lon="2.28089">
        <ele>151.18</ele>
        <time>2021-04-24T12:59:51.000Z</time>
      </trkpt>
      <trkpt lat="48.77149" lon="2.28102">
        <ele>151.3</ele>
        <time>2021-04-24T13:00:02.000Z</time>
      </trkpt>
      <trkpt lat="48.77146" lon="2.28116">
        <ele>151.38</ele>
        <time>2021-04-24T13:00:10.000Z</time>
      </trkpt>
      <trkpt lat="48.7715" lon="2.2813">
        <ele>151.45</ele>
        <time>2021-04-24T13:00:17.000Z</time>
      </trkpt>
      <trkpt lat="48.77156" lon="2.28142">
        <ele>151.56</ele>
        <time>2021-04-24T13:00:26.000Z</time>
      </trkpt>
      <trkpt lat="48.77157" lon="2.28156">
        <ele>151.68</ele>
        <time>2021-04-24T13:00:35.000Z</time>
      </trkpt>
      <trkpt lat="48.77158" lon="2.28171">
        <ele>151.75</ele>
        <time>2021-04-24T13:00:41.000Z</time>
      </trkpt>
      <trkpt lat="48.77162" lon="2.28185">
        <ele>151.82</ele>
        <time>2021-04-24T13:00:48.000Z</time>
      </trkpt>
      <trkpt lat="48.77166" lon="2.28198">
        <ele>151.93</ele>
        <time>2021-04-24T13:01:00.000Z</time>
      </trkpt>
      <trkpt lat="48.77169" lon="2.28212">
        <ele>152.02</ele>
        <time>2021-04-24T13:01:11.000Z</time>
      </trkpt>
      <trkpt lat="48.77166" lon="2.28225">
        <ele>152.08</ele>
        <time>2021-04-24T13:01:18.000Z</time>
      </trkpt>
      <trkpt lat="48.77167" lon="2.28238">
        <ele>152.12</ele>
        <time>2021-04-24T13:01:24.000Z</time>
      </trkpt>
      <trkpt lat="48.77169" lon="2.28252">
        <ele>152.16</ele>
        <time>2021-04-24T13:01:30.000Z</time>
      </trkpt>
      <trkpt lat="48.77175" lon="2.28263">
        <ele>152.23</ele>
        <time>2021-04-24T13:01:38.000Z</time>
      </trkpt>
      <trkpt lat="48.77179" lon="2.28277">
        <ele>152.29</ele>
        <time>2021-04-24T13:01:46.000Z</time>
      </trkpt>
      <trkpt lat="48.7718" lon="2.28291">
        <ele>152.34</ele>
        <time>2021-04-24T13:01:54.000Z</time>
      </trkpt>
      <trkpt lat="48.77187" lon="2.283">
        <ele>152.41</ele>
        <time>2021-04-24T13:02:03.000Z</time>
      </trkpt>
      <trkpt lat="48.77188" lon="2.28315">
        <ele>152.47</ele>
        <time>2021-04-24T13:02:11.000Z</time>
      </trkpt>
      <trkpt lat="48.77187" lon="2.28331">
        <ele>152.51</ele>
        <time>2021-04-24T13:02:17.000Z</time>
      </trkpt>
      <trkpt lat="48.77189" lon="2.28345">
        <ele>152.6</ele>
        <time>2021-04-24T13:02:28.000Z</time>
      </trkpt>
      <trkpt lat="48.77191" lon="2.28358">
        <ele>152.67</ele>
        <time>2021-04-24T13:02:35.000Z</time>
      </trkpt>
      <trkpt lat="48.77193" lon="2.28373">
        <ele>152.73</ele>
        <time>2021-04-24T13:02:42.000Z</time>
      </trkpt>
      <trkpt lat="48.77197" lon="2.28386">
        <ele>152.78</ele>
        <time>2021-04-24T13:02:50.000Z</time>
      </trkpt>
      <trkpt lat="48.77196" lon="2.284">
        <ele>152.97</ele>
        <time>2021-04-24T13:03:19.000Z</time>
      </trkpt>
      <trkpt lat="48.77193" lon="2.28413">
        <ele>153.08</ele>
        <time>2021-04-24T13:03:32.000Z</time>
      </trkpt>
      <trkpt lat="48.77192" lon="2.28427">
        <ele>153.2</ele>
        <time>2021-04-24T13:03:40.000Z</time>
      </trkpt>
      <trkpt lat="48.77193" lon="2.28441">
        <ele>153.37</ele>
        <time>2021-04-24T13:03:52.000Z</time>
      </trkpt>
      <trkpt lat="48.77194" lon="2.28455">
        <ele>153.46</ele>
        <time>2021-04-24T13:04:00.000Z</time>
      </trkpt>
      <trkpt lat="48.77194" lon="2.28469">
        <ele>153.52</ele>
        <time>2021-04-24T13:04:05.000Z</time>
      </trkpt>
      <trkpt lat="48.77195" lon="2.28484">
        <ele>153.6</ele>
        <time>2021-04-24T13:04:12.000Z</time>
      </trkpt>
      <trkpt lat="48.77202" lon="2.28494">
        <ele>153.69</ele>
        <time>2021-04-24T13:04:18.999Z</time>
      </trkpt>
      <trkpt lat="48.7721" lon="2.28501">
        <ele>153.8</ele>
        <time>2021-04-24T13:04:26.999Z</time>
      </trkpt>
      <trkpt lat="48.77219" lon="2.28507">
        <ele>153.97</ele>
        <time>2021-04-24T13:04:42.999Z</time>
      </trkpt>
      <trkpt lat="48.77227" lon="2.28514">
        <ele>154.06</ele>
        <time>2021-04-24T13:04:51.999Z</time>
      </trkpt>
      <trkpt lat="48.77236" lon="2.28521">
        <ele>154.17</ele>
        <time>2021-04-24T13:05:01.999Z</time>
      </trkpt>
      <trkpt lat="48.77244" lon="2.28527">
        <ele>154.25</ele>
        <time>2021-04-24T13:05:12.999Z</time>
      </trkpt>
      <trkpt lat="48.77252" lon="2.28533">
        <ele>154.32</ele>
        <time>2021-04-24T13:05:21.999Z</time>
      </trkpt>
      <trkpt lat="48.77261" lon="2.28539">
        <ele>154.35</ele>
        <time>2021-04-24T13:05:29.999Z</time>
      </trkpt>
      <trkpt lat="48.77269" lon="2.28545">
        <ele>154.38</ele>
        <time>2021-04-24T13:05:36.999Z</time>
      </trkpt>
      <trkpt lat="48.77277" lon="2.28554">
        <ele>154.41</ele>
        <time>2021-04-24T13:05:44.999Z</time>
      </trkpt>
      <trkpt lat="48.77285" lon="2.2856">
        <ele>154.43</ele>
        <time>2021-04-24T13:05:52.999Z</time>
      </trkpt>
      <trkpt lat="48.77294" lon="2.28564">
        <ele>154.45</ele>
        <time>2021-04-24T13:06:00.999Z</time>
      </trkpt>
      <trkpt lat="48.77303" lon="2.28566">
        <ele>154.47</ele>
        <time>2021-04-24T13:06:08.999Z</time>
      </trkpt>
      <trkpt lat="48.77312" lon="2.28564">
        <ele>154.48</ele>
        <time>2021-04-24T13:06:16.999Z</time>
      </trkpt>
      <trkpt lat="48.77321" lon="2.28563">
        <ele>154.54</ele>
        <time>2021-04-24T13:06:36.999Z</time>
      </trkpt>
      <trkpt lat="48.7733" lon="2.28567">
        <ele>154.57</ele>
        <time>2021-04-24T13:06:48.999Z</time>
      </trkpt>
      <trkpt lat="48.77341" lon="2.28565">
        <ele>154.56</ele>
        <time>2021-04-24T13:06:58.999Z</time>
      </trkpt>
      <trkpt lat="48.77349" lon="2.28571">
        <ele>154.53</ele>
        <time>2021-04-24T13:07:10.999Z</time>
      </trkpt>
      <trkpt lat="48.77357" lon="2.28577">
        <ele>154.51</ele>
        <time>2021-04-24T13:07:20.999Z</time>
      </trkpt>
      <trkpt lat="48.77366" lon="2.28582">
        <ele>154.47</ele>
        <time>2021-04-24T13:07:30.999Z</time>
      </trkpt>
      <trkpt lat="48.77375" lon="2.28583">
        <ele>154.41</ele>
        <time>2021-04-24T13:07:40.999Z</time>
      </trkpt>
      <trkpt lat="48.77386" lon="2.28584">
        <ele>154.36</ele>
        <time>2021-04-24T13:07:48.999Z</time>
      </trkpt>
      <trkpt lat="48.77396" lon="2.28584">
        <ele>154.29</ele>
        <time>2021-04-24T13:07:56.999Z</time>
      </trkpt>
      <trkpt lat="48.77405" lon="2.28583">
        <ele>154.23</ele>
        <time>2021-04-24T13:08:04.999Z</time>
      </trkpt>
      <trkpt lat="48.77415" lon="2.28587">
        <ele>154.12</ele>
        <time>2021-04-24T13:08:17.999Z</time>
      </trkpt>
      <trkpt lat="48.77424" lon="2.28587">
        <ele>154.04</ele>
        <time>2021-04-24T13:08:25.999Z</time>
      </trkpt>
      <trkpt lat="48.77433" lon="2.28592">
        <ele>153.95</ele>
        <time>2021-04-24T13:08:37.999Z</time>
      </trkpt>
      <trkpt lat="48.77443" lon="2.28593">
        <ele>153.86</ele>
        <time>2021-04-24T13:08:48.999Z</time>
      </trkpt>
      <trkpt lat="48.77451" lon="2.286">
        <ele>153.81</ele>
        <time>2021-04-24T13:08:56.999Z</time>
      </trkpt>
      <trkpt lat="48.7746" lon="2.28603">
        <ele>153.72</ele>
        <time>2021-04-24T13:09:10.999Z</time>
      </trkpt>
      <trkpt lat="48.77469" lon="2.28607">
        <ele>153.67</ele>
        <time>2021-04-24T13:09:18.999Z</time>
      </trkpt>
      <trkpt lat="48.77479" lon="2.28607">
        <ele>153.63</ele>
        <time>2021-04-24T13:09:25.999Z</time>
      </trkpt>
      <trkpt lat="48.77489" lon="2.28606">
        <ele>153.58</ele>
        <time>2021-04-24T13:09:33.999Z</time>
      </trkpt>
      <trkpt lat="48.77498" lon="2.28602">
        <ele>153.53</ele>
        <time>2021-04-24T13:09:41.999Z</time>
      </trkpt>
      <trkpt lat="48.77508" lon="2.2861">
        <ele>153.52</ele>
        <time>2021-04-24T13:09:48.999Z</time>
      </trkpt>
      <trkpt lat="48.77516" lon="2.28617">
        <ele>153.51</ele>
        <time>2021-04-24T13:09:53.999Z</time>
      </trkpt>
      <trkpt lat="48.77525" lon="2.28614">
        <ele>153.51</ele>
        <time>2021-04-24T13:10:07.999Z</time>
      </trkpt>
      <trkpt lat="48.77535" lon="2.28616">
        <ele>153.52</ele>
        <time>2021-04-24T13:10:16.999Z</time>
      </trkpt>
      <trkpt lat="48.77547" lon="2.28623">
        <ele>153.54</ele>
        <time>2021-04-24T13:10:25.999Z</time>
      </trkpt>
      <trkpt lat="48.77556" lon="2.28622">
        <ele>153.55</ele>
        <time>2021-04-24T13:10:33.999Z</time>
      </trkpt>
      <trkpt lat="48.77566" lon="2.28622">
        <ele>153.55</ele>
        <time>2021-04-24T13:10:40.999Z</time>
      </trkpt>
      <trkpt lat="48.77577" lon="2.28623">
        <ele>153.57</ele>
        <time>2021-04-24T13:10:47.999Z</time>
      </trkpt>
      <trkpt lat="48.77585" lon="2.28629">
        <ele>153.61</ele>
        <time>2021-04-24T13:11:10.999Z</time>
      </trkpt>
      <trkpt lat="48.77594" lon="2.2863">
        <ele>153.6</ele>
        <time>2021-04-24T13:11:21.999Z</time>
      </trkpt>
      <trkpt lat="48.77604" lon="2.28627">
        <ele>153.57</ele>
        <time>2021-04-24T13:11:27.999Z</time>
      </trkpt>
      <trkpt lat="48.77614" lon="2.28626">
        <ele>153.53</ele>
        <time>2021-04-24T13:11:35.999Z</time>
      </trkpt>
      <trkpt lat="48.77623" lon="2.28626">
        <ele>153.49</ele>
        <time>2021-04-24T13:11:45.999Z</time>
      </trkpt>
      <trkpt lat="48.77633" lon="2.28629">
        <ele>153.47</ele>
        <time>2021-04-24T13:11:54.999Z</time>
      </trkpt>
      <trkpt lat="48.77642" lon="2.28631">
        <ele>153.48</ele>
        <time>2021-04-24T13:12:06.999Z</time>
      </trkpt>
      <trkpt lat="48.77652" lon="2.28634">
        <ele>153.5</ele>
        <time>2021-04-24T13:12:18.999Z</time>
      </trkpt>
      <trkpt lat="48.77661" lon="2.28636">
        <ele>153.52</ele>
        <time>2021-04-24T13:12:34.999Z</time>
      </trkpt>
      <trkpt lat="48.7767" lon="2.2864">
        <ele>153.54</ele>
        <time>2021-04-24T13:12:44.999Z</time>
      </trkpt>
      <trkpt lat="48.77679" lon="2.28641">
        <ele>153.57</ele>
        <time>2021-04-24T13:12:51.999Z</time>
      </trkpt>
      <trkpt lat="48.77689" lon="2.28639">
        <ele>153.59</ele>
        <time>2021-04-24T13:12:58.999Z</time>
      </trkpt>
      <trkpt lat="48.77699" lon="2.28637">
        <ele>153.62</ele>
        <time>2021-04-24T13:13:06.999Z</time>
      </trkpt>
      <trkpt lat="48.77707" lon="2.2863">
        <ele>153.68</ele>
        <time>2021-04-24T13:13:22.999Z</time>
      </trkpt>
      <trkpt lat="48.77715" lon="2.28623">
        <ele>153.76</ele>
        <time>2021-04-24T13:13:38.999Z</time>
      </trkpt>
      <trkpt lat="48.77722" lon="2.28614">
        <ele>154.84</ele>
        <time>2021-04-24T13:15:30.999Z</time>
      </trkpt>
      <trkpt lat="48.77729" lon="2.28623">
        <ele>156.61</ele>
        <time>2021-04-24T13:16:49.999Z</time>
      </trkpt>
      <trkpt lat="48.77738" lon="2.28628">
        <ele>157.2</ele>
        <time>2021-04-24T13:17:01.999Z</time>
      </trkpt>
      <trkpt lat="48.77746" lon="2.28633">
        <ele>157.76</ele>
        <time>2021-04-24T13:17:15.999Z</time>
      </trkpt>
      <trkpt lat="48.77755" lon="2.28636">
        <ele>158.13</ele>
        <time>2021-04-24T13:17:26.999Z</time>
      </trkpt>
      <trkpt lat="48.77765" lon="2.28639">
        <ele>158.51</ele>
        <time>2021-04-24T13:17:39.999Z</time>
      </trkpt>
      <trkpt lat="48.77774" lon="2.28639">
        <ele>158.73</ele>
        <time>2021-04-24T13:17:48.999Z</time>
      </trkpt>
      <trkpt lat="48.77784" lon="2.28637">
        <ele>158.91</ele>
        <time>2021-04-24T13:17:56.999Z</time>
      </trkpt>
      <trkpt lat="48.77794" lon="2.28637">
        <ele>159.07</ele>
        <time>2021-04-24T13:18:04.999Z</time>
      </trkpt>
      <trkpt lat="48.77804" lon="2.2864">
        <ele>159.23</ele>
        <time>2021-04-24T13:18:13.999Z</time>
      </trkpt>
      <trkpt lat="48.77814" lon="2.28642">
        <ele>159.34</ele>
        <time>2021-04-24T13:18:20.999Z</time>
      </trkpt>
      <trkpt lat="48.77823" lon="2.28642">
        <ele>159.43</ele>
        <time>2021-04-24T13:18:27.999Z</time>
      </trkpt>
      <trkpt lat="48.77833" lon="2.28644">
        <ele>159.55</ele>
        <time>2021-04-24T13:18:36.999Z</time>
      </trkpt>
      <trkpt lat="48.77842" lon="2.28648">
        <ele>159.71</ele>
        <time>2021-04-24T13:18:49.999Z</time>
      </trkpt>
      <trkpt lat="48.77851" lon="2.28651">
        <ele>159.82</ele>
        <time>2021-04-24T13:19:02.999Z</time>
      </trkpt>
      <trkpt lat="48.77861" lon="2.28648">
        <ele>159.87</ele>
        <time>2021-04-24T13:19:07.999Z</time>
      </trkpt>
      <trkpt lat="48.7787" lon="2.28649">
        <ele>159.95</ele>
        <time>2021-04-24T13:19:14.999Z</time>
      </trkpt>
      <trkpt lat="48.7788" lon="2.28655">
        <ele>160.03</ele>
        <time>2021-04-24T13:19:24.999Z</time>
      </trkpt>
      <trkpt lat="48.77891" lon="2.28653">
        <ele>160.14</ele>
        <time>2021-04-24T13:19:36.999Z</time>
      </trkpt>
      <trkpt lat="48.779" lon="2.28658">
        <ele>160.25</ele>
        <time>2021-04-24T13:19:45.999Z</time>
      </trkpt>
      <trkpt lat="48.77909" lon="2.2866">
        <ele>160.42</ele>
        <time>2021-04-24T13:19:59.999Z</time>
      </trkpt>
      <trkpt lat="48.77918" lon="2.28664">
        <ele>160.54</ele>
        <time>2021-04-24T13:20:09.999Z</time>
      </trkpt>
      <trkpt lat="48.77928" lon="2.28663">
        <ele>160.61</ele>
        <time>2021-04-24T13:20:14.999Z</time>
      </trkpt>
      <trkpt lat="48.77937" lon="2.2866">
        <ele>160.67</ele>
        <time>2021-04-24T13:20:18.999Z</time>
      </trkpt>
      <trkpt lat="48.77948" lon="2.28659">
        <ele>160.79</ele>
        <time>2021-04-24T13:20:24.999Z</time>
      </trkpt>
      <trkpt lat="48.77958" lon="2.28663">
        <ele>161.05</ele>
        <time>2021-04-24T13:20:35.999Z</time>
      </trkpt>
      <trkpt lat="48.77967" lon="2.28668">
        <ele>161.26</ele>
        <time>2021-04-24T13:20:43.999Z</time>
      </trkpt>
      <trkpt lat="48.77972" lon="2.28681">
        <ele>161.51</ele>
        <time>2021-04-24T13:20:54.999Z</time>
      </trkpt>
      <trkpt lat="48.77982" lon="2.28686">
        <ele>161.71</ele>
        <time>2021-04-24T13:21:05.999Z</time>
      </trkpt>
      <trkpt lat="48.77991" lon="2.28686">
        <ele>161.87</ele>
        <time>2021-04-24T13:21:15.999Z</time>
      </trkpt>
      <trkpt lat="48.78" lon="2.28696">
        <ele>162.02</ele>
        <time>2021-04-24T13:21:24.999Z</time>
      </trkpt>
      <trkpt lat="48.78009" lon="2.28698">
        <ele>162.19</ele>
        <time>2021-04-24T13:21:36.999Z</time>
      </trkpt>
      <trkpt lat="48.78019" lon="2.28697">
        <ele>162.31</ele>
        <time>2021-04-24T13:21:47.999Z</time>
      </trkpt>
      <trkpt lat="48.78029" lon="2.28697">
        <ele>162.43</ele>
        <time>2021-04-24T13:21:55.999Z</time>
      </trkpt>
      <trkpt lat="48.78038" lon="2.28698">
        <ele>162.57</ele>
        <time>2021-04-24T13:22:02.999Z</time>
      </trkpt>
      <trkpt lat="48.78047" lon="2.28706">
        <ele>162.8</ele>
        <time>2021-04-24T13:22:13.999Z</time>
      </trkpt>
      <trkpt lat="48.78056" lon="2.28715">
        <ele>163</ele>
        <time>2021-04-24T13:22:22.999Z</time>
      </trkpt>
      <trkpt lat="48.78062" lon="2.28727">
        <ele>163.24</ele>
        <time>2021-04-24T13:22:35.999Z</time>
      </trkpt>
      <trkpt lat="48.78072" lon="2.28729">
        <ele>163.32</ele>
        <time>2021-04-24T13:22:40.999Z</time>
      </trkpt>
      <trkpt lat="48.78081" lon="2.28728">
        <ele>163.44</ele>
        <time>2021-04-24T13:22:50.999Z</time>
      </trkpt>
      <trkpt lat="48.78088" lon="2.28717">
        <ele>163.55</ele>
        <time>2021-04-24T13:23:05.999Z</time>
      </trkpt>
      <trkpt lat="48.78096" lon="2.28709">
        <ele>163.52</ele>
        <time>2021-04-24T13:23:11.999Z</time>
      </trkpt>
      <trkpt lat="48.78106" lon="2.28702">
        <ele>163.47</ele>
        <time>2021-04-24T13:23:18.999Z</time>
      </trkpt>
      <trkpt lat="48.78116" lon="2.28706">
        <ele>163.4</ele>
        <time>2021-04-24T13:23:26.999Z</time>
      </trkpt>
      <trkpt lat="48.78125" lon="2.28712">
        <ele>163.37</ele>
        <time>2021-04-24T13:23:32.999Z</time>
      </trkpt>
      <trkpt lat="48.78135" lon="2.28718">
        <ele>163.34</ele>
        <time>2021-04-24T13:23:37.999Z</time>
      </trkpt>
      <trkpt lat="48.78144" lon="2.28722">
        <ele>163.28</ele>
        <time>2021-04-24T13:23:46.999Z</time>
      </trkpt>
      <trkpt lat="48.78153" lon="2.28729">
        <ele>163.26</ele>
        <time>2021-04-24T13:23:52.999Z</time>
      </trkpt>
      <trkpt lat="48.7816" lon="2.28739">
        <ele>163.24</ele>
        <time>2021-04-24T13:24:02.999Z</time>
      </trkpt>
      <trkpt lat="48.78166" lon="2.2875">
        <ele>163.27</ele>
        <time>2021-04-24T13:24:16.999Z</time>
      </trkpt>
      <trkpt lat="48.78173" lon="2.28763">
        <ele>163.27</ele>
        <time>2021-04-24T13:24:30.999Z</time>
      </trkpt>
      <trkpt lat="48.78183" lon="2.28763">
        <ele>163.25</ele>
        <time>2021-04-24T13:24:36.999Z</time>
      </trkpt>
      <trkpt lat="48.78193" lon="2.28758">
        <ele>163.24</ele>
        <time>2021-04-24T13:24:41.999Z</time>
      </trkpt>
      <trkpt lat="48.78204" lon="2.28759">
        <ele>163.21</ele>
        <time>2021-04-24T13:24:48.999Z</time>
      </trkpt>
      <trkpt lat="48.78213" lon="2.2875">
        <ele>163.18</ele>
        <time>2021-04-24T13:24:54.999Z</time>
      </trkpt>
      <trkpt lat="48.78222" lon="2.28741">
        <ele>163.16</ele>
        <time>2021-04-24T13:25:01.999Z</time>
      </trkpt>
      <trkpt lat="48.78228" lon="2.2873">
        <ele>163.11</ele>
        <time>2021-04-24T13:25:15.000Z</time>
      </trkpt>
      <trkpt lat="48.78237" lon="2.2872">
        <ele>163.09</ele>
        <time>2021-04-24T13:25:19.000Z</time>
      </trkpt>
      <trkpt lat="48.78243" lon="2.28709">
        <ele>163.04</ele>
        <time>2021-04-24T13:25:33.000Z</time>
      </trkpt>
      <trkpt lat="48.78253" lon="2.28713">
        <ele>162.96</ele>
        <time>2021-04-24T13:25:46.000Z</time>
      </trkpt>
      <trkpt lat="48.78262" lon="2.28709">
        <ele>162.88</ele>
        <time>2021-04-24T13:25:55.000Z</time>
      </trkpt>
      <trkpt lat="48.78271" lon="2.28706">
        <ele>162.85</ele>
        <time>2021-04-24T13:25:59.000Z</time>
      </trkpt>
      <trkpt lat="48.78281" lon="2.28705">
        <ele>162.83</ele>
        <time>2021-04-24T13:26:03.000Z</time>
      </trkpt>
      <trkpt lat="48.7829" lon="2.28705">
        <ele>162.83</ele>
        <time>2021-04-24T13:26:07.000Z</time>
      </trkpt>
      <trkpt lat="48.78299" lon="2.28708">
        <ele>162.85</ele>
        <time>2021-04-24T13:26:16.000Z</time>
      </trkpt>
      <trkpt lat="48.78309" lon="2.28715">
        <ele>162.9</ele>
        <time>2021-04-24T13:26:25.000Z</time>
      </trkpt>
      <trkpt lat="48.78318" lon="2.28722">
        <ele>162.93</ele>
        <time>2021-04-24T13:26:35.000Z</time>
      </trkpt>
      <trkpt lat="48.78328" lon="2.28728">
        <ele>162.94</ele>
        <time>2021-04-24T13:26:41.000Z</time>
      </trkpt>
      <trkpt lat="48.78336" lon="2.28737">
        <ele>162.97</ele>
        <time>2021-04-24T13:26:53.000Z</time>
      </trkpt>
      <trkpt lat="48.78342" lon="2.28748">
        <ele>163.02</ele>
        <time>2021-04-24T13:27:06.000Z</time>
      </trkpt>
      <trkpt lat="48.78346" lon="2.2876">
        <ele>163.03</ele>
        <time>2021-04-24T13:27:16.000Z</time>
      </trkpt>
      <trkpt lat="48.78355" lon="2.28769">
        <ele>163.08</ele>
        <time>2021-04-24T13:27:33.000Z</time>
      </trkpt>
      <trkpt lat="48.78364" lon="2.28774">
        <ele>163.03</ele>
        <time>2021-04-24T13:28:07.000Z</time>
      </trkpt>
      <trkpt lat="48.78372" lon="2.28782">
        <ele>163</ele>
        <time>2021-04-24T13:28:15.000Z</time>
      </trkpt>
      <trkpt lat="48.78378" lon="2.28792">
        <ele>162.96</ele>
        <time>2021-04-24T13:28:27.000Z</time>
      </trkpt>
      <trkpt lat="48.78386" lon="2.28798">
        <ele>162.96</ele>
        <time>2021-04-24T13:28:37.000Z</time>
      </trkpt>
      <trkpt lat="48.78393" lon="2.28808">
        <ele>162.98</ele>
        <time>2021-04-24T13:28:48.000Z</time>
      </trkpt>
      <trkpt lat="48.78403" lon="2.28812">
        <ele>163.02</ele>
        <time>2021-04-24T13:28:58.000Z</time>
      </trkpt>
      <trkpt lat="48.78412" lon="2.28817">
        <ele>163.06</ele>
        <time>2021-04-24T13:29:05.000Z</time>
      </trkpt>
      <trkpt lat="48.7842" lon="2.28821">
        <ele>163.13</ele>
        <time>2021-04-24T13:29:13.000Z</time>
      </trkpt>
      <trkpt lat="48.78429" lon="2.28825">
        <ele>163.21</ele>
        <time>2021-04-24T13:29:23.000Z</time>
      </trkpt>
      <trkpt lat="48.78439" lon="2.2883">
        <ele>163.3</ele>
        <time>2021-04-24T13:29:34.000Z</time>
      </trkpt>
      <trkpt lat="48.78447" lon="2.28836">
        <ele>163.42</ele>
        <time>2021-04-24T13:29:47.000Z</time>
      </trkpt>
      <trkpt lat="48.78456" lon="2.28841">
        <ele>163.52</ele>
        <time>2021-04-24T13:29:58.000Z</time>
      </trkpt>
      <trkpt lat="48.78465" lon="2.28842">
        <ele>163.62</ele>
        <time>2021-04-24T13:30:09.000Z</time>
      </trkpt>
      <trkpt lat="48.78475" lon="2.28848">
        <ele>163.71</ele>
        <time>2021-04-24T13:30:20.000Z</time>
      </trkpt>
      <trkpt lat="48.78484" lon="2.28851">
        <ele>163.78</ele>
        <time>2021-04-24T13:30:29.000Z</time>
      </trkpt>
      <trkpt lat="48.78493" lon="2.28856">
        <ele>163.91</ele>
        <time>2021-04-24T13:30:42.000Z</time>
      </trkpt>
      <trkpt lat="48.78502" lon="2.2886">
        <ele>164.01</ele>
        <time>2021-04-24T13:30:51.000Z</time>
      </trkpt>
      <trkpt lat="48.7851" lon="2.28867">
        <ele>164.12</ele>
        <time>2021-04-24T13:31:00.000Z</time>
      </trkpt>
      <trkpt lat="48.78518" lon="2.28875">
        <ele>164.22</ele>
        <time>2021-04-24T13:31:08.000Z</time>
      </trkpt>
      <trkpt lat="48.78526" lon="2.28883">
        <ele>164.3</ele>
        <time>2021-04-24T13:31:14.000Z</time>
      </trkpt>
      <trkpt lat="48.78534" lon="2.2889">
        <ele>164.41</ele>
        <time>2021-04-24T13:31:22.000Z</time>
      </trkpt>
      <trkpt lat="48.7854" lon="2.289">
        <ele>164.55</ele>
        <time>2021-04-24T13:31:32.000Z</time>
      </trkpt>
      <trkpt lat="48.78547" lon="2.28911">
        <ele>164.68</ele>
        <time>2021-04-24T13:31:42.000Z</time>
      </trkpt>
      <trkpt lat="48.78554" lon="2.2892">
        <ele>164.85</ele>
        <time>2021-04-24T13:31:53.000Z</time>
      </trkpt>
      <trkpt lat="48.78562" lon="2.28928">
        <ele>164.98</ele>
        <time>2021-04-24T13:32:02.000Z</time>
      </trkpt>
      <trkpt lat="48.7857" lon="2.28934">
        <ele>165.12</ele>
        <time>2021-04-24T13:32:12.000Z</time>
      </trkpt>
      <trkpt lat="48.78579" lon="2.28939">
        <ele>165.34</ele>
        <time>2021-04-24T13:32:29.000Z</time>
      </trkpt>
      <trkpt lat="48.78588" lon="2.28943">
        <ele>165.49</ele>
        <time>2021-04-24T13:32:41.000Z</time>
      </trkpt>
      <trkpt lat="48.78595" lon="2.28952">
        <ele>165.61</ele>
        <time>2021-04-24T13:32:51.000Z</time>
      </trkpt>
      <trkpt lat="48.78604" lon="2.28959">
        <ele>165.71</ele>
        <time>2021-04-24T13:33:01.000Z</time>
      </trkpt>
      <trkpt lat="48.78612" lon="2.28966">
        <ele>165.79</ele>
        <time>2021-04-24T13:33:10.000Z</time>
      </trkpt>
      <trkpt lat="48.78622" lon="2.28974">
        <ele>165.89</ele>
        <time>2021-04-24T13:33:20.000Z</time>
      </trkpt>
      <trkpt lat="48.78629" lon="2.28982">
        <ele>166.01</ele>
        <time>2021-04-24T13:33:32.000Z</time>
      </trkpt>
      <trkpt lat="48.78639" lon="2.28983">
        <ele>166.08</ele>
        <time>2021-04-24T13:33:40.000Z</time>
      </trkpt>
      <trkpt lat="48.78647" lon="2.2899">
        <ele>166.19</ele>
        <time>2021-04-24T13:33:49.000Z</time>
      </trkpt>
      <trkpt lat="48.78656" lon="2.28996">
        <ele>166.32</ele>
        <time>2021-04-24T13:33:58.000Z</time>
      </trkpt>
      <trkpt lat="48.78665" lon="2.29">
        <ele>166.4</ele>
        <time>2021-04-24T13:34:04.000Z</time>
      </trkpt>
      <trkpt lat="48.78675" lon="2.29001">
        <ele>166.53</ele>
        <time>2021-04-24T13:34:12.000Z</time>
      </trkpt>
      <trkpt lat="48.78684" lon="2.29004">
        <ele>166.71</ele>
        <time>2021-04-24T13:34:24.000Z</time>
      </trkpt>
      <trkpt lat="48.78693" lon="2.29013">
        <ele>166.82</ele>
        <time>2021-04-24T13:34:31.000Z</time>
      </trkpt>
      <trkpt lat="48.78699" lon="2.29023">
        <ele>166.99</ele>
        <time>2021-04-24T13:34:44.000Z</time>
      </trkpt>
      <trkpt lat="48.78707" lon="2.2903">
        <ele>167.13</ele>
        <time>2021-04-24T13:34:53.000Z</time>
      </trkpt>
      <trkpt lat="48.78716" lon="2.29038">
        <ele>167.43</ele>
        <time>2021-04-24T13:35:09.000Z</time>
      </trkpt>
      <trkpt lat="48.78725" lon="2.29041">
        <ele>167.59</ele>
        <time>2021-04-24T13:35:17.000Z</time>
      </trkpt>
      <trkpt lat="48.78734" lon="2.29046">
        <ele>167.77</ele>
        <time>2021-04-24T13:35:25.000Z</time>
      </trkpt>
      <trkpt lat="48.78741" lon="2.29056">
        <ele>167.95</ele>
        <time>2021-04-24T13:35:34.000Z</time>
      </trkpt>
      <trkpt lat="48.78748" lon="2.29067">
        <ele>168.1</ele>
        <time>2021-04-24T13:35:41.000Z</time>
      </trkpt>
      <trkpt lat="48.78755" lon="2.29078">
        <ele>168.3</ele>
        <time>2021-04-24T13:35:52.000Z</time>
      </trkpt>
      <trkpt lat="48.78482" lon="2.28842">
        <ele>81.5</ele>
      </trkpt>
      <trkpt lat="48.78292" lon="2.28732">
        <ele>79</ele>
      </trkpt>
      <trkpt lat="48.78193" lon="2.28739">
        <ele>85.9</ele>
      </trkpt>
      <trkpt lat="48.77539" lon="2.28607">
        <ele>121.7</ele>
        <time>2021-04-24T07:58:55.414Z</time>
      </trkpt>
      <trkpt lat="48.77539" lon="2.28607">
        <ele>121.7</ele>
        <time>2021-04-24T07:58:55.414Z</time>
      </trkpt>
      <trkpt lat="48.7753" lon="2.28608">
        <ele>129.52</ele>
        <time>2021-04-24T07:58:57.417Z</time>
      </trkpt>
      <trkpt lat="48.77521" lon="2.28604">
        <ele>132.57</ele>
        <time>2021-04-24T07:59:09.999Z</time>
      </trkpt>
      <trkpt lat="48.77511" lon="2.28599">
        <ele>131.1</ele>
        <time>2021-04-24T07:59:18.999Z</time>
      </trkpt>
      <trkpt lat="48.77502" lon="2.28597">
        <ele>130.57</ele>
        <time>2021-04-24T07:59:27.999Z</time>
      </trkpt>
      <trkpt lat="48.77492" lon="2.28596">
        <ele>130.64</ele>
        <time>2021-04-24T07:59:36.999Z</time>
      </trkpt>
      <trkpt lat="48.77482" lon="2.28596">
        <ele>130.68</ele>
        <time>2021-04-24T07:59:45.999Z</time>
      </trkpt>
      <trkpt lat="48.77473" lon="2.28591">
        <ele>130.72</ele>
        <time>2021-04-24T07:59:52.999Z</time>
      </trkpt>
      <trkpt lat="48.77464" lon="2.28588">
        <ele>130.72</ele>
        <time>2021-04-24T08:00:00.999Z</time>
      </trkpt>
      <trkpt lat="48.77455" lon="2.28588">
        <ele>130.67</ele>
        <time>2021-04-24T08:00:09.999Z</time>
      </trkpt>
      <trkpt lat="48.77445" lon="2.28587">
        <ele>130.6</ele>
        <time>2021-04-24T08:00:16.999Z</time>
      </trkpt>
      <trkpt lat="48.77435" lon="2.28586">
        <ele>130.39</ele>
        <time>2021-04-24T08:00:26.999Z</time>
      </trkpt>
      <trkpt lat="48.77425" lon="2.28586">
        <ele>130.16</ele>
        <time>2021-04-24T08:00:34.999Z</time>
      </trkpt>
      <trkpt lat="48.77416" lon="2.28585">
        <ele>129.85</ele>
        <time>2021-04-24T08:00:43.999Z</time>
      </trkpt>
      <trkpt lat="48.77407" lon="2.28583">
        <ele>129.58</ele>
        <time>2021-04-24T08:00:51.999Z</time>
      </trkpt>
      <trkpt lat="48.77398" lon="2.28581">
        <ele>129.3</ele>
        <time>2021-04-24T08:01:00.999Z</time>
      </trkpt>
      <trkpt lat="48.77388" lon="2.28582">
        <ele>128.98</ele>
        <time>2021-04-24T08:01:09.999Z</time>
      </trkpt>
      <trkpt lat="48.77379" lon="2.28578">
        <ele>128.72</ele>
        <time>2021-04-24T08:01:17.999Z</time>
      </trkpt>
      <trkpt lat="48.77369" lon="2.28577">
        <ele>128.5</ele>
        <time>2021-04-24T08:01:26.999Z</time>
      </trkpt>
      <trkpt lat="48.77358" lon="2.28578">
        <ele>128.31</ele>
        <time>2021-04-24T08:01:34.000Z</time>
      </trkpt>
      <trkpt lat="48.77349" lon="2.28585">
        <ele>128.14</ele>
        <time>2021-04-24T08:01:40.000Z</time>
      </trkpt>
      <trkpt lat="48.77342" lon="2.28595">
        <ele>127.87</ele>
        <time>2021-04-24T08:01:48.000Z</time>
      </trkpt>
      <trkpt lat="48.77336" lon="2.28606">
        <ele>127.43</ele>
        <time>2021-04-24T08:01:59.000Z</time>
      </trkpt>
    </trkseg>
  </trk>
</gpx>